[[{"header":{"parameterUnit":"m.s-1","parameterCategory":1,"la1":30.6,"la2":28.766,"lo1":-90.7593,"lo2":-88.6598,"dx":0.0162,"dy":0.0183,"nx":116,"ny":114,"refTime":"2022-12-01T06:00:00:Z","depth":0,"parameterNumber":2,"parameterNumberName":"U-component_of_WINDS"},"data":[0.0,0.0,0.0,0.0,0.0,0.0,0.0,0.0,0.0,0.0,0.0,0.0,0.0,0.0,0.0,0.0,0.0,0.0,0.0,0.0,0.0,0.0,0.0,0.0,0.0,0.0,0.0,0.0,0.0,0.0,0.0,0.0,0.0,0.0,0.0,0.0,0.0,0.0,0.0,0.0,0.0,0.0,0.0,0.0,0.0,0.0,0.0,0.0,0.0,0.0,0.0,0.0,0.0,0.0,0.0,0.0,0.0,0.0,0.0,0.0,0.0,0.0,0.0,0.0,0.0,0.0,0.0,0.0,0.0,0.0,0.0,0.0,0.0,0.0,0.0,0.0,0.0,0.0,0.0,0.0,0.0,0.0,0.0,0.0,0.0,0.0,0.0,0.0,0.0,0.0,0.0,0.0,0.0,0.0,0.0,0.0,0.0,0.0,0.0,0.0,0.0,0.0,0.0,0.0,0.0,0.0,0.0,0.0,0.0,0.0,0.0,0.0,0.0,0.0,0.0,0.0,0.0,0.0,0.0,0.0,0.0,0.0,0.0,0.0,0.0,0.0,0.0,0.0,0.0,0.0,0.0,0.0,0.0,0.0,0.0,0.0,0.0,0.0,0.0,0.0,0.0,0.0,0.0,0.0,0.0,0.0,0.0,0.0,0.0,0.0,0.0,0.0,0.0,0.0,0.0,0.0,0.0,0.0,0.0,0.0,0.0,0.0,0.0,0.0,0.0,0.0,0.0,0.0,0.0,0.0,0.0,0.0,0.0,0.0,0.0,0.0,0.0,0.0,0.0,0.0,0.0,0.0,0.0,0.0,0.0,0.0,0.0,0.0,0.0,0.0,0.0,0.0,0.0,0.0,0.0,0.0,0.0,0.0,0.0,0.0,0.0,0.0,0.0,0.0,0.0,0.0,0.0,0.0,0.0,0.0,0.0,0.0,0.0,0.0,0.0,0.0,0.0,0.0,0.0,0.0,0.0,0.0,0.0,0.0,0.0,0.0,0.0,0.0,0.0,0.0,0.0,0.0,0.0,0.0,0.0,0.0,0.0,0.0,0.0,0.0,0.0,0.0,0.0,0.0,0.0,0.0,0.0,0.0,0.0,0.0,0.0,0.0,0.0,0.0,0.0,0.0,0.0,0.0,0.0,0.0,0.0,0.0,0.0,0.0,0.0,0.0,0.0,0.0,0.0,0.0,0.0,0.0,0.0,0.0,0.0,0.0,0.0,0.0,0.0,0.0,0.0,0.0,0.0,0.0,0.0,0.0,0.0,0.0,0.0,0.0,0.0,0.0,0.0,0.0,0.0,0.0,0.0,0.0,0.0,0.0,0.0,0.0,0.0,0.0,0.0,0.0,0.0,0.0,0.0,0.0,0.0,0.0,0.0,0.0,0.0,0.0,0.0,0.0,0.0,0.0,0.0,0.0,0.0,0.0,0.0,0.0,0.0,0.0,0.0,0.0,0.0,0.0,0.0,0.0,0.0,0.0,0.0,0.0,0.0,0.0,0.0,0.0,0.0,0.0,0.0,0.0,0.0,0.0,0.0,0.0,0.0,0.0,0.0,0.0,0.0,0.0,0.0,0.0,0.0,0.0,0.0,0.0,0.0,0.0,0.0,0.0,0.0,0.0,0.0,0.0,0.0,0.0,0.0,0.0,0.0,0.0,0.0,0.0,0.0,0.0,0.0,0.0,0.0,0.0,0.0,0.0,0.0,0.0,0.0,0.0,0.0,0.0,0.0,0.0,0.0,0.0,0.0,0.0,0.0,0.0,0.0,0.0,0.0,0.0,0.0,0.0,0.0,0.0,0.0,0.0,0.0,0.0,0.0,0.0,0.0,0.0,0.0,0.0,0.0,0.0,0.0,0.0,0.0,0.0,0.0,0.0,0.0,0.0,0.0,0.0,0.0,0.0,0.0,0.0,0.0,0.0,0.0,0.0,0.0,0.0,0.0,0.0,0.0,0.0,0.0,0.0,0.0,0.0,0.0,0.0,0.0,0.0,0.0,0.0,0.0,0.0,0.0,0.0,0.0,0.0,0.0,0.0,0.0,0.0,0.0,0.0,0.0,0.0,0.0,0.0,0.0,0.0,0.0,0.0,0.0,0.0,0.0,0.0,0.0,0.0,0.0,0.0,0.0,0.0,0.0,0.0,0.0,0.0,0.0,0.0,0.0,0.0,0.0,0.0,0.0,0.0,0.0,0.0,0.0,0.0,0.0,0.0,0.0,0.0,0.0,0.0,0.0,0.0,0.0,0.0,0.0,0.0,0.0,0.0,0.0,0.0,0.0,0.0,0.0,0.0,0.0,0.0,0.0,0.0,0.0,0.0,0.0,0.0,0.0,0.0,0.0,0.0,0.0,0.0,0.0,0.0,0.0,0.0,0.0,0.0,0.0,0.0,0.0,0.0,0.0,0.0,0.0,0.0,0.0,0.0,0.0,0.0,0.0,0.0,0.0,0.0,0.0,0.0,0.0,0.0,0.0,0.0,0.0,0.0,0.0,0.0,0.0,0.0,0.0,0.0,0.0,0.0,0.0,0.0,0.0,0.0,0.0,0.0,0.0,0.0,0.0,0.0,0.0,0.0,0.0,0.0,0.0,0.0,0.0,0.0,0.0,0.0,0.0,0.0,0.0,0.0,0.0,0.0,0.0,0.0,0.0,0.0,0.0,0.0,0.0,0.0,0.0,0.0,0.0,0.0,0.0,0.0,0.0,0.0,0.0,0.0,0.0,0.0,0.0,0.0,0.0,0.0,0.0,0.0,0.0,0.0,0.0,0.0,0.0,0.0,0.0,0.0,0.0,0.0,0.0,0.0,0.0,0.0,0.0,0.0,0.0,0.0,0.0,0.0,0.0,0.0,0.0,0.0,0.0,0.0,0.0,0.0,0.0,0.0,0.0,0.0,0.0,0.0,0.0,0.0,0.0,0.0,0.0,0.0,0.0,0.0,0.0,0.0,0.0,0.0,0.0,0.0,0.0,0.0,0.0,0.0,0.0,0.0,0.0,0.0,0.0,0.0,0.0,0.0,0.0,0.0,0.0,0.0,0.0,0.0,0.0,0.0,0.0,0.0,0.0,0.0,0.0,0.0,0.0,0.0,0.0,0.0,0.0,0.0,0.0,0.0,0.0,0.0,0.0,0.0,0.0,0.0,0.0,0.0,0.0,0.0,0.0,0.0,0.0,0.0,0.0,0.0,0.0,0.0,0.0,0.0,0.0,0.0,0.0,0.0,0.0,0.0,0.0,0.0,0.0,0.0,0.0,0.0,0.0,0.0,0.0,0.0,0.0,0.0,0.0,0.0,0.0,0.0,0.0,0.0,0.0,0.0,0.0,0.0,0.0,0.0,0.0,0.0,0.0,0.0,0.0,0.0,0.0,0.0,0.0,0.0,0.0,0.0,0.0,0.0,0.0,0.0,0.0,0.0,0.0,0.0,0.0,0.0,0.0,0.0,0.0,0.0,0.0,0.0,0.0,0.0,0.0,0.0,0.0,0.0,0.0,0.0,0.0,0.0,0.0,0.0,0.0,0.0,0.0,0.0,0.0,0.0,0.0,0.0,0.0,0.0,0.0,0.0,0.0,0.0,0.0,0.0,0.0,0.0,0.0,0.0,0.0,0.0,0.0,0.0,0.0,0.0,0.0,0.0,0.0,0.0,0.0,0.0,0.0,0.0,0.0,0.0,0.0,0.0,0.0,0.0,0.0,0.0,0.0,0.0,0.0,0.0,0.0,0.0,0.0,0.0,0.0,0.0,0.0,0.0,0.0,0.0,0.0,0.0,0.0,0.0,0.0,0.0,0.0,0.0,0.0,0.0,0.0,0.0,0.0,0.0,0.0,0.0,0.0,0.0,0.0,0.0,0.0,0.0,0.0,0.0,0.0,0.0,0.0,0.0,0.0,0.0,0.0,0.0,0.0,0.0,0.0,0.0,0.0,0.0,0.0,0.0,0.0,0.0,0.0,0.0,0.0,0.0,0.0,0.0,0.0,0.0,0.0,0.0,0.0,0.0,0.0,0.0,0.0,0.0,0.0,0.0,0.0,0.0,0.0,0.0,0.0,0.0,0.0,0.0,0.0,0.0,0.0,0.0,0.0,0.0,0.0,0.0,0.0,0.0,0.0,0.0,0.0,0.0,0.0,0.0,0.0,0.0,0.0,0.0,0.0,0.0,0.0,0.0,0.0,0.0,0.0,0.0,0.0,0.0,0.0,0.0,0.0,0.0,0.0,0.0,0.0,0.0,0.0,0.0,0.0,0.0,0.0,0.0,0.0,0.0,0.0,0.0,0.0,0.0,0.0,0.0,0.0,0.0,0.0,0.0,0.0,0.0,0.0,0.0,0.0,0.0,0.0,0.0,0.0,0.0,0.0,0.0,0.0,0.0,0.0,0.0,0.0,0.0,0.0,0.0,0.0,0.0,0.0,0.0,0.0,0.0,0.0,0.0,0.0,0.0,0.0,0.0,0.0,0.0,0.0,0.0,0.0,0.0,0.0,0.0,0.0,0.0,0.0,0.0,0.0,0.0,0.0,0.0,0.0,0.0,0.0,0.0,0.0,0.0,0.0,0.0,0.0,0.0,0.0,0.0,0.0,0.0,0.0,0.0,0.0,0.0,0.0,0.0,0.0,0.0,0.0,0.0,0.0,0.0,0.0,0.0,0.0,0.0,0.0,0.0,0.0,0.0,0.0,0.0,0.0,0.0,0.0,0.0,0.0,0.0,0.0,0.0,0.0,0.0,0.0,0.0,0.0,0.0,0.0,0.0,0.0,0.0,0.0,0.0,0.0,0.0,0.0,0.0,0.0,0.0,0.0,0.0,0.0,0.0,0.0,0.0,0.0,0.0,0.0,0.0,0.0,0.0,0.0,0.0,0.0,0.0,0.0,0.0,0.0,0.0,0.0,0.0,0.0,0.0,0.0,0.0,0.0,0.0,0.0,0.0,0.0,0.0,0.0,0.0,0.0,0.0,0.0,0.0,0.0,0.0,0.0,0.0,0.0,0.0,0.0,0.0,0.0,0.0,0.0,0.0,0.0,0.0,0.0,0.0,0.0,0.0,0.0,0.0,0.0,0.0,0.0,0.0,0.0,0.0,0.0,0.0,0.0,0.0,0.0,0.0,0.0,0.0,0.0,0.0,0.0,0.0,0.0,0.0,0.0,0.0,0.0,0.0,0.0,0.0,0.0,0.0,0.0,0.0,0.0,0.0,0.0,0.0,0.0,0.0,0.0,0.0,0.0,0.0,0.0,0.0,0.0,0.0,0.0,0.0,0.0,0.0,0.0,0.0,0.0,0.0,0.0,0.0,0.0,0.0,0.0,0.0,0.0,0.0,0.0,0.0,0.0,0.0,0.0,0.0,0.0,0.0,0.0,0.0,0.0,0.0,0.0,0.0,0.0,0.0,0.0,0.0,0.0,0.0,0.0,0.0,0.0,0.0,0.0,0.0,0.0,0.0,0.0,0.0,0.0,0.0,0.0,0.0,0.0,0.0,0.0,0.0,0.0,0.0,0.0,0.0,0.0,0.0,0.0,0.0,0.0,0.0,0.0,0.0,0.0,0.0,0.0,0.0,0.0,0.0,0.0,0.0,0.0,0.0,0.0,0.0,0.0,0.0,0.0,0.0,0.0,0.0,0.0,0.0,0.0,0.0,0.0,0.0,0.0,0.0,0.0,0.0,0.0,0.0,0.0,0.0,0.0,0.0,0.0,0.0,0.0,0.0,0.0,0.0,0.0,0.0,0.0,0.0,0.0,0.0,0.0,0.0,0.0,0.0,0.0,0.0,0.0,0.0,0.0,0.0,0.0,0.0,0.0,0.0,0.0,0.0,0.0,0.0,0.0,0.0,0.0,0.0,0.0,0.0,0.0,0.0,0.0,0.0,0.0,0.0,0.0,0.0,0.0,0.0,0.0,0.0,0.0,0.0,0.0,0.0,0.0,0.0,0.0,0.0,0.0,0.0,0.0,0.0,0.0,0.0,0.0,0.0,0.0,0.0,0.0,0.0,0.0,0.0,0.0,0.0,0.0,0.0,0.0,0.0,0.0,0.0,0.0,0.0,0.0,0.0,0.0,0.0,0.0,0.0,0.0,0.0,0.0,0.0,0.0,0.0,-2.8418,0.0,0.0,0.0,0.0,0.0,0.0,0.0,0.0,0.0,0.0,0.0,0.0,0.0,0.0,0.0,0.0,0.0,0.0,0.0,0.0,0.0,0.0,0.0,0.0,-1.2192,-1.2201,-1.2209,-1.2214,0.0,0.0,0.0,0.0,0.0,0.0,0.0,0.0,0.0,-1.2993,-1.3402,-1.4256,-1.5486,-1.7046,-1.7009,-1.6378,-1.5221,0.0,0.0,0.0,0.0,0.0,0.0,0.0,0.0,0.0,0.0,0.0,0.0,0.0,0.0,0.0,0.0,0.0,0.0,0.0,0.0,0.0,0.0,0.0,0.0,0.0,0.0,0.0,0.0,0.0,0.0,0.0,0.0,0.0,0.0,0.0,0.0,0.0,0.0,0.0,0.0,0.0,0.0,0.0,0.0,0.0,0.0,0.0,0.0,0.0,0.0,0.0,0.0,0.0,0.0,0.0,0.0,0.0,0.0,0.0,0.0,0.0,0.0,0.0,0.0,0.0,0.0,0.0,0.0,0.0,0.0,0.0,-2.8735,0.0,0.0,0.0,0.0,0.0,0.0,0.0,0.0,0.0,0.0,0.0,0.0,0.0,0.0,0.0,0.0,0.0,0.0,0.0,0.0,0.0,-1.2608,-1.2798,-1.2956,-1.3044,-1.3058,-1.3063,-1.2993,-1.2845,-1.2845,0.0,0.0,0.0,0.0,-1.2845,-1.3704,-1.4521,-1.5332,-1.6297,-1.7857,-2.0017,-2.0715,-1.9936,-1.7931,-1.7114,0.0,0.0,0.0,0.0,0.0,0.0,0.0,0.0,0.0,0.0,0.0,0.0,0.0,0.0,0.0,0.0,0.0,0.0,0.0,0.0,0.0,0.0,0.0,0.0,0.0,0.0,0.0,0.0,0.0,0.0,0.0,0.0,0.0,0.0,0.0,0.0,0.0,0.0,0.0,0.0,0.0,0.0,0.0,0.0,0.0,0.0,0.0,0.0,0.0,0.0,0.0,0.0,0.0,0.0,0.0,0.0,0.0,0.0,0.0,0.0,0.0,0.0,0.0,-3.4555,-3.4632,-3.465,-3.5066,-3.5039,-3.465,-3.3019,-3.1311,-2.9667,0.0,0.0,0.0,0.0,0.0,0.0,0.0,0.0,0.0,0.0,0.0,0.0,0.0,0.0,0.0,0.0,0.0,0.0,0.0,0.0,-1.453,-1.5242,-1.5985,-1.6453,-1.6453,-1.6434,-1.6149,-1.5444,-1.5407,0.0,0.0,0.0,0.0,-1.5407,-1.6223,-1.7003,-1.782,-1.9379,-2.0678,-2.168,-2.1792,-2.168,-2.1309,-2.0493,-1.9342,-1.7968,0.0,0.0,0.0,0.0,0.0,0.0,0.0,0.0,0.0,0.0,0.0,0.0,0.0,0.0,0.0,0.0,0.0,0.0,0.0,0.0,0.0,0.0,0.0,0.0,0.0,0.0,0.0,0.0,0.0,0.0,0.0,0.0,0.0,0.0,0.0,0.0,0.0,0.0,0.0,0.0,0.0,-2.3929,-2.4218,0.0,0.0,0.0,0.0,0.0,0.0,0.0,0.0,0.0,0.0,0.0,0.0,0.0,-3.3161,-3.3881,-3.5154,-3.6043,-3.6571,-3.7006,-3.7202,-3.7202,-3.7571,-3.7521,-3.7238,-3.754,0.0,-3.2897,-3.3336,0.0,0.0,0.0,0.0,0.0,0.0,0.0,0.0,0.0,0.0,0.0,0.0,0.0,0.0,0.0,0.0,0.0,0.0,0.0,0.0,0.0,-1.683,-1.709,-1.7102,-1.7108,-1.6966,-1.6594,-1.6557,0.0,0.0,0.0,-1.7263,-1.7263,-1.8525,-1.9564,-2.0381,-2.1569,-2.2312,-2.2683,-2.3182,-2.3405,-2.3405,-2.3041,-2.1956,-2.0344,-1.9899,0.0,0.0,0.0,0.0,0.0,0.0,0.0,0.0,0.0,0.0,0.0,0.0,0.0,0.0,0.0,0.0,0.0,0.0,0.0,0.0,0.0,0.0,0.0,0.0,0.0,0.0,0.0,0.0,0.0,0.0,0.0,0.0,0.0,0.0,0.0,0.0,0.0,0.0,0.0,-2.4086,-2.4851,-2.5394,-2.617,-2.7007,0.0,0.0,0.0,0.0,0.0,0.0,0.0,0.0,0.0,-3.4084,-3.5225,-3.6274,-3.7256,-3.7808,-3.849,-3.9283,-3.9283,-3.9283,-3.9265,-3.9175,-3.9067,-3.8938,-3.9265,-3.8635,-3.7398,-3.6857,-3.6442,-3.608,0.0,0.0,0.0,0.0,-3.5271,-3.4517,0.0,0.0,0.0,0.0,0.0,0.0,0.0,0.0,0.0,0.0,0.0,0.0,-1.7235,-1.7724,-1.8016,-1.8029,-1.8221,-1.8339,-1.8339,-1.8339,-1.8339,-1.8339,-1.8933,-1.9267,-1.9267,-2.0678,-2.1718,-2.2312,-2.3137,-2.3657,-2.3842,-2.4491,-2.4908,-2.5094,-2.5094,-2.4082,-2.2274,-2.168,-2.0938,-2.0084,0.0,0.0,0.0,0.0,0.0,0.0,0.0,0.0,0.0,0.0,0.0,0.0,0.0,0.0,0.0,0.0,0.0,0.0,0.0,0.0,0.0,0.0,0.0,0.0,0.0,0.0,0.0,0.0,0.0,0.0,0.0,0.0,0.0,0.0,0.0,0.0,0.0,-2.5261,-2.6011,-2.7123,-2.7971,-2.8903,0.0,0.0,0.0,0.0,0.0,0.0,-3.3917,-3.5208,-3.6007,-3.6238,-3.7449,-3.867,-3.9824,-3.993,-4.054,-4.1548,-4.1356,-4.1286,-4.1269,-4.0962,-4.0815,-4.0815,-4.0815,-4.0998,-4.1141,-3.9743,-3.9069,-3.8938,-3.8819,-3.8802,-3.8768,-3.8474,-3.7755,-3.6941,0.0,0.0,0.0,0.0,0.0,0.0,0.0,0.0,0.0,0.0,0.0,-1.8084,-1.8128,-1.9575,-2.053,-2.053,-2.1294,-2.1755,-2.1755,-2.1755,-2.1755,-2.1755,-2.1792,-2.1792,-2.1792,-2.2646,-2.3091,-2.3128,-2.4008,-2.4834,-2.5578,-2.5615,-2.6061,-2.6795,-2.6795,-2.5411,-2.3128,-2.3091,-2.2609,-2.1792,-2.0975,0.0,0.0,0.0,0.0,0.0,0.0,0.0,0.0,0.0,0.0,0.0,0.0,0.0,0.0,0.0,0.0,0.0,0.0,0.0,0.0,0.0,0.0,0.0,0.0,0.0,0.0,0.0,0.0,0.0,0.0,0.0,0.0,0.0,0.0,0.0,0.0,0.0,0.0,-3.0112,-3.0461,0.0,0.0,0.0,0.0,-3.5349,-3.5509,-3.6033,-3.7197,-3.7652,-3.8228,-3.9068,-3.9174,-3.9823,-4.099,-4.1394,-4.1996,-4.2811,-4.3176,-4.3333,-4.3333,-4.3316,-4.3316,-4.3316,-4.3316,-4.3316,-4.3206,-4.1231,-4.061,-4.0969,-4.0969,-4.0916,-4.0952,-4.0899,-4.0645,-4.0275,0.0,0.0,0.0,-1.2505,-1.2914,-1.3661,-1.4751,-1.5433,-1.6362,-1.798,-1.8229,-1.8879,-2.047,-2.0723,-2.096,-2.1479,-2.1821,-2.2015,-2.2015,-2.2015,-2.2015,-2.2015,-2.2497,-2.3025,-2.3599,-2.4417,-2.4817,-2.4817,-2.5643,-2.62,-2.6461,-2.6461,-2.6609,-2.6907,-2.6907,-2.6423,-2.556,-2.5039,-2.4028,-2.2757,-2.246,-2.1866,0.0,0.0,0.0,0.0,0.0,0.0,0.0,0.0,0.0,0.0,0.0,0.0,0.0,0.0,0.0,0.0,0.0,0.0,0.0,0.0,0.0,0.0,0.0,0.0,0.0,0.0,0.0,0.0,0.0,0.0,0.0,0.0,0.0,0.0,0.0,0.0,0.0,-3.1201,-3.226,0.0,-3.4657,-3.5431,-3.6139,-3.6804,-3.758,-3.8208,-3.8622,-3.9755,-4.0537,-4.0843,-4.1593,-4.2467,-4.3396,-4.3579,-4.4035,-4.4839,-4.4985,-4.5039,-4.5039,-4.5039,-4.5039,-4.5039,-4.5039,-4.5039,-4.5002,-4.429,-4.3466,-4.2636,-4.2357,-4.205,-4.1787,-4.1459,-4.0775,-3.9997,0.0,0.0,0.0,-1.3356,-1.354,-1.4176,-1.558,-1.6035,-1.6898,-1.8821,-1.9115,-1.9766,-2.1405,-2.1599,-2.1829,-2.2349,-2.2654,-2.2839,-2.2839,-2.2839,-2.2839,-2.2839,-2.3619,-2.4296,-2.4908,-2.5689,-2.6089,-2.6089,-2.6646,-2.7204,-2.7724,-2.7724,-2.8021,-2.8542,-2.8542,-2.8244,-2.7724,-2.7167,-2.5829,-2.4028,-2.4028,-2.3397,-2.2349,0.0,0.0,0.0,0.0,0.0,0.0,0.0,0.0,0.0,0.0,0.0,0.0,0.0,0.0,0.0,0.0,0.0,0.0,0.0,0.0,0.0,0.0,0.0,0.0,0.0,0.0,0.0,0.0,0.0,0.0,0.0,0.0,0.0,0.0,0.0,-3.2014,-3.3522,-3.4356,-3.5275,-3.6422,-3.7357,-3.8061,-3.8456,-3.921,-3.98,-4.0024,-4.1475,-4.2277,-4.2277,-4.3451,-4.4437,-4.5112,-4.5112,-4.5369,-4.5883,-4.5883,-4.5883,-4.5883,-4.5883,-4.6067,-4.6287,-4.603,-4.6067,-4.6287,-4.5993,-4.5259,-4.4287,-4.4035,-4.3736,-4.3428,-4.3089,-4.2498,-4.176,0.0,0.0,-1.4265,-1.3487,-1.3985,-1.4841,-1.571,-1.651,-1.7385,-1.8306,-1.981,-2.0827,-2.0901,-2.2274,-2.3203,-2.324,-2.3999,-2.45,-2.4537,-2.4537,-2.4537,-2.4574,-2.5317,-2.5726,-2.5726,-2.6535,-2.6944,-2.6981,-2.6981,-2.7873,-2.9471,-2.9471,-3.0326,-3.1812,-3.1812,-3.092,-2.9471,-2.9471,-2.8068,-2.5801,-2.5764,-2.4742,-2.3314,0.0,0.0,0.0,0.0,0.0,0.0,0.0,0.0,0.0,0.0,0.0,0.0,0.0,0.0,0.0,0.0,0.0,0.0,0.0,0.0,0.0,0.0,0.0,0.0,0.0,0.0,0.0,0.0,0.0,0.0,0.0,0.0,0.0,-3.2371,-3.2713,-3.409,-3.7054,-3.6791,-3.7143,-3.9049,-3.8916,-3.9197,-4.0367,-4.0502,-4.084,-4.1569,-4.2775,-4.3477,-4.3477,-4.4678,-4.5508,-4.5957,-4.5957,-4.5993,-4.6067,-4.6067,-4.6067,-4.6067,-4.6067,-4.6471,-4.7186,-4.6397,-4.6507,-4.7149,-4.6361,-4.6067,-4.603,-4.592,-4.5883,-4.5865,-4.5865,-4.5847,-4.5773,-1.4211,-1.4358,-1.4431,-1.4222,-1.4895,-1.5729,-1.6608,-1.7441,-1.8677,-2.07,-2.0864,-2.1465,-2.3302,-2.3322,-2.3471,-2.4082,-2.4351,-2.476,-2.5317,-2.5355,-2.5615,-2.62,-2.6461,-2.6572,-2.6572,-2.7352,-2.8096,-2.869,-2.9285,-3.0103,-3.1143,-3.1143,-3.1366,-3.1812,-3.1812,-3.1552,-3.1143,-3.1143,-3.0065,-2.8292,-2.7055,-2.6275,-2.582,0.0,0.0,0.0,0.0,0.0,0.0,0.0,0.0,0.0,0.0,0.0,0.0,0.0,0.0,0.0,0.0,0.0,0.0,0.0,0.0,0.0,0.0,0.0,0.0,0.0,0.0,0.0,0.0,0.0,0.0,0.0,0.0,-3.5079,-3.3786,-3.4619,-3.5883,-3.729,-3.8265,-3.9106,-3.9982,-4.0456,-4.1063,-4.2003,-4.2688,-4.3274,-4.365,-4.4666,-4.5201,-4.5201,-4.557,-4.6359,-4.7645,-4.7645,-4.8269,-4.9444,-4.9444,-4.9444,-4.9444,-4.9444,-4.9591,-4.9774,-4.9554,-4.9591,-4.9774,-4.9554,-4.9444,-4.9224,-4.6838,-4.5717,-4.5469,-4.5469,-4.5034,-4.4361,-1.4505,-1.4505,-1.4505,-1.4511,-1.5184,-1.6054,-1.6922,-1.7748,-1.902,-2.1175,-2.1368,-2.1977,-2.3776,-2.3814,-2.3962,-2.4462,-2.4797,-2.5206,-2.5689,-2.6024,-2.6423,-2.6869,-2.7204,-2.739,-2.739,-2.8542,-2.9396,-2.988,-3.0697,-3.1515,-3.2295,-3.2295,-3.2481,-3.2816,-3.2816,-3.263,-3.2295,-3.2295,-3.1552,-3.0326,-2.9322,-2.8133,-2.6832,-2.6386,-2.62,-2.6015,-2.4705,-2.4259,-2.4102,-2.3331,0.0,0.0,0.0,0.0,0.0,0.0,0.0,0.0,0.0,0.0,0.0,0.0,0.0,0.0,0.0,0.0,0.0,0.0,0.0,0.0,0.0,0.0,0.0,0.0,-3.5912,-3.6836,-3.6754,-3.722,-3.7762,-3.8363,-3.9525,-4.0556,-4.131,-4.1745,-4.2498,-4.3693,-4.4103,-4.4428,-4.4797,-4.613,-4.6836,-4.6647,-4.7496,-4.8416,-4.9334,-4.937,-4.9848,-5.0802,-5.0802,-5.0802,-5.0802,-5.0802,-5.0986,0.0,-5.0949,-5.0986,-5.1279,-5.0949,-5.0802,0.0,0.0,0.0,0.0,0.0,-4.6579,-4.6071,-1.4485,-1.4485,-1.4516,-1.4493,-1.5233,-1.609,-1.6864,-1.7755,-1.8933,-2.0626,-2.1493,-2.2317,-2.3223,-2.4019,-2.4482,-2.4491,-2.5234,-2.5754,-2.594,-2.6646,-2.7092,-2.7167,-2.7873,-2.8282,-2.8393,-2.9842,-3.0697,-3.0883,-3.1589,-3.237,-3.3138,-3.3138,-3.3522,-3.4179,-3.4179,-3.3807,-3.3138,-3.3138,-3.2667,-3.1961,-3.1961,-3.0065,-2.7315,-2.7204,-2.713,-2.6944,-2.6126,-2.5838,-2.5726,-2.502,0.0,0.0,0.0,0.0,0.0,0.0,0.0,0.0,0.0,0.0,0.0,0.0,0.0,0.0,0.0,0.0,0.0,0.0,0.0,0.0,0.0,0.0,0.0,0.0,-3.7491,-3.8104,-4.0179,-4.0102,-3.9905,-3.9961,-4.0757,-4.1695,-4.2763,-4.2943,-4.3663,-4.5305,-4.5111,-4.5141,-4.5691,0.0,0.0,0.0,0.0,-5.0839,-5.0949,-5.0949,-5.0986,-5.1059,-5.1059,-5.1059,-5.1059,-5.1059,-5.1463,-5.2087,-5.1389,-5.1463,-5.2087,-5.1353,-5.1018,-5.09,-5.0322,-5.0075,-4.9928,-4.9424,-4.915,-4.9112,-1.4499,-1.4499,-1.4499,-1.4493,-1.5698,-1.6745,-1.6975,-1.8227,-1.9752,-2.1438,-2.1816,-2.2481,-2.3914,-2.4247,-2.4339,-2.4421,-2.5162,-2.6181,-2.7538,-2.7798,-2.817,-2.8876,-2.9062,-2.9434,-3.0103,-3.0437,-3.1255,-3.2555,-3.2704,-3.3187,-3.3956,-3.3956,-3.403,-3.4179,-3.4179,-3.4104,-3.3956,-3.3956,-3.351,-3.2778,-3.2778,-3.1626,-2.9805,-2.9174,-2.8467,-2.7761,-2.6944,-2.6684,-2.6646,-2.6498,-2.6423,-2.6312,-2.5689,-2.5466,0.0,0.0,0.0,0.0,0.0,0.0,0.0,0.0,0.0,0.0,0.0,0.0,0.0,0.0,0.0,0.0,0.0,0.0,0.0,-3.8706,-3.9368,-4.0031,-4.0862,-4.2239,-4.2801,-4.1831,-4.2135,-4.2782,-4.3764,-4.4437,-4.5183,-4.6121,-4.7037,-4.7733,-4.8082,-4.9517,-5.0285,-5.0224,-5.0578,-5.1096,-5.1756,-5.1756,-5.2087,-5.2726,0.0,0.0,-5.2726,-5.2726,-5.2821,-5.2968,-5.2821,-5.28,-5.2968,-5.2821,-5.2477,-5.1986,-5.103,-5.0356,-4.9928,-4.9412,-4.8919,-4.8502,-1.4493,-1.4493,-1.4493,-1.4493,-1.5845,-1.6915,-1.6942,-1.8309,-1.9942,-2.1611,-2.184,-2.2476,-2.4109,-2.4294,-2.4303,-2.4367,-2.5125,-2.632,-2.7974,-2.8096,-2.8505,-2.9359,-2.9396,-2.9582,-2.9991,-3.0772,-3.1589,-3.2407,-3.3224,-3.3807,-3.4179,-3.4179,-3.4179,-3.4179,-3.4179,-3.4179,-3.4179,-3.4179,-3.3956,-3.3584,-3.3584,-3.289,-3.1663,-3.0474,-2.9731,-2.9174,-2.7947,-2.7501,-2.7427,-2.7055,-2.6907,-2.6832,-2.6423,-2.6312,-2.62,0.0,0.0,0.0,0.0,0.0,0.0,0.0,0.0,0.0,0.0,0.0,0.0,0.0,0.0,-3.6428,-3.7082,0.0,-3.9265,-4.0275,-4.0792,-4.1388,-4.2465,-4.3454,-4.3796,-4.2905,-4.3694,-4.4566,-4.5256,-4.5981,-4.686,-4.7919,-4.8721,-4.9341,-4.9779,-5.0826,-5.1389,-5.1389,-5.1793,-5.2197,-5.2601,-5.2601,-5.2821,-5.3203,-5.3203,-5.3203,-5.3203,-5.3628,-5.3812,-5.3812,-5.3812,-5.3812,-5.3775,-5.335,-5.2872,-5.2358,-5.1821,-5.1099,-5.0385,-5.01,-4.9662,-4.9166,-1.4493,-1.4493,-1.4493,-1.4493,-1.5845,-1.6908,-1.6908,-1.828,-1.9845,-2.134,-2.168,-2.2351,-2.3897,-2.4192,-2.4349,-2.4506,-2.5033,-2.6051,-2.7742,-2.7863,-2.8244,-2.9099,-2.9322,-2.9471,-2.9619,-3.0883,-3.1738,-3.2035,-3.3324,-3.403,-3.4179,-3.4179,-3.4179,-3.4179,-3.4179,-3.4179,-3.4179,-3.4179,-3.4179,-3.4179,-3.4179,-3.3807,-3.3076,-3.1626,-3.0883,-3.0437,-2.9062,-2.8505,-2.8244,-2.7613,-2.739,-2.7352,-2.7204,-2.713,-2.713,-2.713,-2.7241,0.0,0.0,0.0,0.0,0.0,0.0,0.0,0.0,-3.3149,-3.433,-3.5396,-3.7234,-3.882,-3.9218,-4.0084,-4.0999,-4.1851,-4.2087,-4.2648,-4.4011,-4.4483,-4.4532,-4.4155,-4.5232,-4.6247,-4.6815,-4.7538,-4.8498,-4.9718,-5.0164,-5.0596,-5.1002,-5.1793,-5.2234,-5.2234,-5.2858,-5.3203,-5.3203,-5.3371,-5.3424,-5.3445,-5.3592,-5.3665,-5.3702,-5.4326,-5.462,-5.462,-5.462,-5.462,-5.4583,-5.3814,-5.3257,-5.2855,-5.2701,-5.1983,-5.0986,-5.0873,-5.0453,-5.0011,-1.4493,-1.4493,-1.4493,-1.4493,-1.5845,-1.6908,-1.6908,-1.828,-1.9609,-2.0519,-2.1335,-2.2152,-2.3061,-2.3759,-2.4522,-2.5306,-2.4875,-2.5218,-2.6857,-2.6989,-2.739,-2.8207,-2.8988,-2.9731,-3.0437,-3.0623,-3.144,-3.289,-3.3027,-3.351,-3.4179,-3.4179,-3.4179,-3.4179,-3.4179,-3.4179,-3.4179,-3.4179,-3.4179,-3.4179,-3.4179,-3.4141,-3.3956,-3.3076,-3.1849,-3.0586,-3.04,-2.9842,-2.9248,-2.9136,-2.9099,-2.8988,-2.8207,-2.7984,-2.7984,-2.7984,-2.8505,-2.9285,-2.9991,-3.0728,-3.1487,-3.2231,-3.2416,-3.2832,0.0,-3.4747,-3.5396,-3.7346,-3.825,-3.9255,-4.105,-4.1434,-4.1851,-4.31,-4.3597,-4.403,-4.4547,-4.5847,-4.6744,-4.6706,-4.653,-4.6855,-4.799,-4.8871,-4.9735,-5.0618,-5.1348,-5.1789,-5.1867,-5.2637,-5.3078,-5.3078,-5.313,-5.3203,-5.3203,-5.3922,-5.4289,-5.4289,-5.4987,-5.5317,-5.5317,-5.5427,-5.5464,-5.5464,-5.5464,-5.5464,-5.5405,-5.4782,-5.4496,-5.44,-5.3841,-5.2901,-5.1688,-5.1021,-5.0453,-5.0011,-1.5307,-1.5594,-1.5735,-1.527,-1.6145,-1.7055,-1.7539,-1.8574,-1.9601,-2.0401,-2.0804,-2.1538,-2.2859,-2.3712,-2.4356,-2.4698,-2.4506,-2.4857,-2.6032,-2.6163,-2.6758,-2.8059,-2.8467,-2.9025,-2.988,-3.0363,-3.092,-3.1589,-3.2555,-3.3175,-3.351,-3.3993,-3.4179,-3.4179,-3.4179,-3.4179,-3.4179,-3.4179,-3.4179,-3.4179,-3.4179,-3.3918,-3.3447,-3.315,-3.1998,-3.066,-3.1143,-3.0772,0.0,-3.0623,-3.0809,-3.0734,-3.0363,-3.0251,-3.0251,-3.0251,-3.0511,-3.1069,-3.237,-3.3276,-3.4031,-3.482,-3.495,-3.5262,-3.6838,-3.7162,-3.7689,-3.9451,-4.0354,-4.1062,-4.1879,-4.2392,-4.2883,-4.3407,-4.4034,-4.4675,-4.5315,-4.6379,-4.7443,-4.8453,-4.839,-4.8517,-4.9003,-5.0235,-5.1153,-5.1463,-5.2234,-5.2711,-5.2711,-5.3041,-5.3203,-5.3203,-5.3665,-5.3922,-5.3922,-5.4693,-5.5097,-5.5097,-5.5427,-5.5596,-5.5611,-5.6088,-5.6308,-5.6308,-5.6308,-5.6014,-5.5552,-5.4953,-5.453,-5.4143,-5.3566,-5.2818,-5.201,-5.1584,-5.0837,-5.0011,-1.6151,-1.6511,-1.6798,-1.6408,-1.6842,-1.7429,-1.8016,-1.8794,-1.9499,-2.0071,-2.0364,-2.1135,-2.2822,-2.3529,-2.3952,-2.4183,-2.4266,-2.457,-2.5199,-2.5532,-2.62,-2.736,-2.7863,-2.8393,-2.9025,-2.9842,-3.0363,-3.0586,-3.1775,-3.2444,-3.2667,-3.3262,-3.3547,-3.3547,-3.3547,-3.3547,-3.3547,-3.3547,-3.3547,-3.3547,-3.3547,-3.3187,-3.2667,-3.2667,-3.1812,-3.0697,-3.1515,-3.1292,-3.0734,-3.1515,-3.1812,-3.1812,-3.1812,-3.1812,-3.1886,-3.2332,-3.2778,-3.3398,-3.4563,-3.5279,-3.588,-3.668,-3.6952,-3.7404,-3.8802,-3.9234,-3.9753,-4.1132,-4.1882,-4.2359,-4.258,-4.3094,-4.3588,-4.3791,-4.4525,-4.5333,-4.614,-4.6929,-4.7976,-4.9427,-4.9794,-5.0014,-5.0235,-5.1336,-5.2087,-5.2307,-5.2858,-5.3203,-5.3203,-5.3408,-5.3555,-5.3555,-5.4326,-5.473,-5.473,-5.5537,-5.5941,-5.5941,-5.6161,-5.6235,-5.6271,-5.6859,-5.7152,-5.7152,-5.7152,-5.6785,-5.619,-5.5462,-5.5004,-5.4694,-5.3767,-5.3147,-5.2726,-5.2434,-5.1599,-5.0597,-1.6872,-1.6872,-1.7128,-1.7906,-1.8052,-1.8052,-1.8096,-1.8794,-1.9315,-1.9315,-2.0042,-2.1135,-2.2822,-2.3006,-2.3355,-2.4146,-2.4266,-2.4294,-2.4331,-2.518,-2.569,-2.5671,-2.7249,-2.8096,-2.8133,-2.8988,-2.9805,-3.0586,-3.066,-3.1069,-3.1849,-3.1849,-3.1886,-3.1886,-3.1886,-3.1886,-3.1886,-3.1886,-3.1886,-3.1886,-3.1886,-3.1849,-3.1849,-3.1849,-3.1329,-3.0697,-3.1515,-3.1292,-3.0734,-3.1515,-3.1812,-3.1812,-3.1812,-3.1812,-3.2109,-3.3658,-3.5268,-3.6543,-3.6539,-3.6495,-3.6648,-3.7366,-3.8088,-3.8836,-3.968,-4.0487,-4.1242,-4.2103,-4.2286,-4.2543,-4.3331,-4.3478,-4.3754,-4.4562,-4.5333,-4.614,-4.6966,-4.7736,-4.86,-4.95,-5.0288,-5.1059,0.0,-5.1977,-5.2307,-5.3093,-5.3188,-5.3203,-5.3203,-5.3959,-5.4363,-5.4363,-5.5133,-5.5537,-5.5537,-5.6345,-5.6748,-5.6785,-5.7556,-5.7923,-5.7923,-5.796,-5.796,-5.796,-5.796,-5.796,-5.7854,-5.6711,-5.6554,-5.6804,-5.5124,-5.4344,-5.4087,-5.3532,-5.2839,-5.2015,-1.7796,-1.8133,-1.8427,-1.817,-1.8537,-1.8911,-1.8911,-1.9132,-1.9315,-1.9315,-1.9997,0.0,0.0,0.0,0.0,0.0,-2.3953,-2.4275,-2.4247,-2.4598,-2.5042,-2.5504,-2.6078,-2.6662,-2.721,-2.8073,-2.865,-2.8951,-3.0065,-3.0734,-3.1032,-3.1552,-3.1812,-3.1812,-3.1812,-3.1812,-3.1812,-3.1812,-3.1812,-3.1812,-3.1812,-3.1478,-3.0995,-3.0995,-3.0511,-2.9917,0.0,-3.0846,-3.0809,-3.2147,-3.2593,-3.2704,-3.3224,-3.3782,-3.4562,-3.6185,-3.7,-3.7566,-3.8113,-3.8586,-3.8966,-3.9195,-3.982,-4.0551,-4.1311,-4.1699,-4.2139,-4.291,-4.3094,-4.3167,-4.3441,-4.3515,-4.3754,-4.4544,-4.5369,-4.6177,-4.7003,-4.7773,-4.882,-5.0215,-5.0655,0.0,0.0,0.0,0.0,-5.3167,-5.3203,-5.3424,-5.3959,-5.4252,-5.462,-5.517,-5.5978,-5.6418,-5.6418,-5.7189,-5.7593,-5.7593,-5.7886,-5.7997,-5.7997,-5.7997,-5.7997,-5.7997,-5.7997,-5.7997,-5.795,-5.7141,-5.6731,-5.6492,-5.5455,-5.4813,-5.4391,-5.4178,-5.3977,-5.3563,-1.8647,-1.8948,-1.9132,-1.861,-1.8948,0.0,0.0,0.0,0.0,0.0,0.0,0.0,0.0,0.0,0.0,0.0,0.0,-2.3952,-2.4211,-2.4358,-2.4598,-2.5032,-2.5383,-2.5809,-2.6299,-2.72,-2.7675,-2.7657,-2.8755,-2.9285,-2.9285,-3.0103,-3.0474,-3.0474,-3.0809,-3.092,-3.092,-3.092,-3.144,-3.2147,-3.0957,-3.0697,-3.0883,-2.9731,-2.9136,0.0,-2.9508,-2.9917,-3.0474,-3.237,-3.3001,-3.3138,-3.3956,-3.5008,-3.6197,-3.7522,-3.8062,-3.8414,-3.9249,-3.9808,-4.0184,-4.0449,-4.1051,-4.174,-4.2193,-4.2506,-4.2873,-4.3404,-4.3515,-4.3515,-4.3515,-4.3515,-4.3864,-4.4966,-4.5553,-4.6287,-4.7369,-4.8233,-4.926,-5.0655,-5.1059,-5.1756,0.0,0.0,0.0,-5.3203,-5.3482,-5.3849,-5.4363,-5.495,-5.55,-5.6014,-5.6822,-5.7226,-5.7226,-5.774,-5.7997,-5.7997,-5.7997,-5.7997,-5.7997,-5.7997,-5.7997,-5.7997,-5.7997,-5.7997,-5.795,-5.7376,-5.6912,-5.6519,-5.5716,-5.5164,-5.4772,-5.4589,-5.4494,-5.4322,-1.9315,-1.9315,-1.9315,0.0,0.0,0.0,0.0,0.0,0.0,0.0,0.0,0.0,0.0,0.0,0.0,0.0,0.0,0.0,-2.4257,-2.4367,-2.4376,-2.4294,-2.5088,-2.5504,-2.5457,-2.6358,-2.6832,-2.6765,-2.686,-2.6925,-2.6925,-2.7687,-2.8059,-2.8059,-2.8913,-2.9248,-2.9248,-2.9248,-3.0586,-3.2407,-2.9285,-2.9434,-3.1218,-2.8096,-2.7352,-2.8059,-2.8059,-2.8616,-2.9694,-3.2072,-3.2915,-3.315,-3.403,-3.5404,-3.6853,-3.7745,-3.8507,-3.9252,-4.003,-4.0244,-4.0391,-4.1088,-4.1866,-4.2439,-4.2376,-4.2947,-4.3515,-4.3515,-4.3515,-4.3515,-4.3515,-4.3515,-4.4029,-4.559,-4.5883,-4.6434,-4.8012,-4.8967,-4.9867,-5.0692,-5.1463,-5.227,-5.3093,-5.3203,0.0,-5.324,0.0,-5.4436,-5.4509,-5.5978,-5.6822,-5.6859,-5.7593,-5.7997,-5.7997,-5.7997,-5.7997,-5.7997,-5.7997,-5.7997,-5.7997,-5.7997,-5.7997,-5.7997,-5.7997,-5.7997,-5.795,-5.7376,-5.7091,-5.6964,-5.583,-5.5402,-5.5284,-5.4714,-5.4494,-5.4425,0.0,0.0,0.0,0.0,0.0,0.0,0.0,0.0,0.0,0.0,0.0,0.0,0.0,0.0,0.0,0.0,0.0,0.0,-2.4164,-2.4284,-2.4303,-2.4294,-2.4594,-2.4791,-2.4816,-2.5751,-2.6244,-2.629,-2.6814,-2.7053,-2.7053,-2.7149,-2.7204,-2.7204,-2.7427,-2.7538,-2.7538,-2.7538,-2.7873,-2.8393,-2.7538,-2.7575,-2.8059,-2.7204,-2.7018,-2.7204,-2.7204,-2.7724,-2.8728,-3.0586,-3.1998,-3.3361,-3.5404,-3.6383,-3.7089,-3.9171,-3.9806,-4.0081,-4.1007,-4.1646,-4.2051,-4.2163,-4.2795,-4.3406,-4.3255,-4.3368,-4.3515,-4.3515,-4.3515,-4.3515,-4.3515,-4.3515,-4.3828,-4.4856,-4.5516,-4.625,-4.7259,-4.8122,-4.9187,-5.0618,-5.0986,-5.1646,-5.3057,-5.3203,-5.3445,0.0,-5.4289,-5.4913,-5.6124,-5.6602,-5.7079,-5.7666,-5.7886,-5.7997,-5.7997,-5.7997,-5.7997,-5.7997,-5.7997,-5.7997,-5.7997,-5.7997,-5.7997,-5.7997,-5.7997,-5.7997,-5.795,-5.7376,-5.6887,-5.6438,-5.5687,-5.5104,-5.4714,-5.4557,-5.4494,-5.4494,0.0,0.0,0.0,0.0,0.0,0.0,0.0,0.0,0.0,0.0,0.0,0.0,0.0,0.0,0.0,0.0,0.0,0.0,0.0,-2.3407,-2.3434,-2.3803,-2.3871,-2.412,-2.4538,-2.5114,-2.528,-2.5005,-2.5771,-2.5919,-2.5493,-2.6158,-2.6422,-2.6386,-2.6721,-2.6907,-2.6907,-2.6907,-2.7538,0.0,0.0,-2.7018,-2.7836,-2.6396,-2.6061,-2.6349,-2.6349,-2.713,-2.8393,-3.0437,-3.1961,-3.3447,-3.5925,-3.6718,-3.7113,-3.9189,-3.9999,-4.0415,-4.1327,-4.2128,-4.2749,-4.3008,-4.3418,-4.3754,-4.3549,-4.3515,-4.3515,-4.3515,-4.3515,-4.3515,-4.3515,-4.3515,-4.3754,-4.4544,-4.5369,-4.6177,-4.7003,-4.8122,-4.9334,-5.0655,-5.1096,-5.183,-5.3078,-5.3203,-5.3702,0.0,-5.4913,-5.5464,-5.6748,-5.7152,-5.7519,-5.7997,-5.7997,-5.7997,-5.7997,-5.7997,-5.7997,-5.7997,-5.7997,-5.7997,-5.7997,-5.7997,-5.7997,-5.7997,0.0,-5.7844,-5.757,-5.7241,-5.6652,-5.5858,-5.5513,-5.5048,-5.4494,-5.4494,-5.4494,-5.4494,0.0,0.0,0.0,0.0,0.0,0.0,0.0,0.0,0.0,-2.2115,-2.1931,-2.1821,-2.1784,-2.1782,0.0,0.0,0.0,0.0,0.0,0.0,-2.228,-2.3029,-2.3116,-2.3532,-2.439,-2.4565,-2.4351,-2.3834,-2.458,-2.4475,-2.3678,-2.5075,-2.5668,-2.5604,-2.6293,-2.6572,-2.6572,-2.6572,-2.7836,-2.9545,-2.6693,-2.6842,-2.844,0.0,-2.4946,-2.5578,-2.5801,-2.6758,-2.8356,-3.092,-3.2258,-3.3299,-3.5887,-3.6705,-3.6976,-3.854,-3.9659,-4.0548,-4.1304,-4.2171,-4.3008,-4.3636,-4.3788,-4.3738,-4.3549,-4.3515,-4.3515,-4.3515,-4.3515,-4.3515,-4.3515,-4.3515,-4.3718,-4.4452,-4.5223,-4.603,-4.6819,-4.8269,-4.9647,-5.0692,-5.1426,-5.2197,-5.3115,-5.3203,-5.3885,-5.5464,-5.5596,-5.5978,-5.6932,-5.7629,-5.7997,-5.7997,-5.7997,-5.7997,-5.7997,-5.7997,-5.7997,-5.7997,-5.7997,-5.7997,-5.7997,-5.7997,-5.7997,-5.7997,0.0,0.0,-5.7091,-5.704,-5.6349,-5.5402,-5.5313,-5.4957,-5.4494,-5.4494,-5.4494,-5.4494,0.0,0.0,0.0,0.0,0.0,0.0,0.0,0.0,0.0,0.0,-2.2638,-2.1793,0.0,0.0,0.0,0.0,0.0,0.0,0.0,0.0,0.0,-2.2368,-2.2609,-2.308,-2.3902,-2.4099,-2.4469,-2.5011,-2.5044,-2.4985,-2.4803,-2.4865,-2.4909,-2.4877,-2.4895,-2.4908,-2.4908,-2.4908,-2.5169,-2.5503,-2.4946,-2.4983,-2.528,-2.4723,0.0,0.0,-2.62,-2.6869,-2.7575,-3.0734,-3.1886,-3.2555,-3.5714,-3.6666,-3.6933,-3.8511,-4.0067,-4.1304,-4.1452,-4.2563,-4.3696,-4.3783,-4.3738,-4.3617,-4.3532,-4.3515,-4.3515,-4.3515,-4.3515,-4.3515,-4.3515,-4.3515,-4.3551,-4.3681,-4.4378,-4.5186,-4.5993,-4.6948,-4.8323,-5.0545,-5.0912,-5.161,-5.3057,-5.3203,-5.3885,0.0,0.0,-5.6235,-5.7703,-5.7923,-5.7997,-5.7997,-5.7997,-5.7997,-5.7997,-5.7997,-5.7997,-5.7997,-5.7997,-5.7997,-5.7997,-5.7997,-5.7997,-5.7997,-5.7997,0.0,-5.7065,-5.6625,-5.6027,-5.5343,-5.4834,-5.4589,-5.4494,-5.4494,-5.4494,-5.4494,0.0,0.0,0.0,0.0,0.0,0.0,0.0,-2.3943,-2.4229,-2.4257,-2.3584,-2.3105,-2.3086,-2.3149,-2.3305,0.0,0.0,0.0,0.0,0.0,0.0,-2.1564,-2.172,-2.2233,-2.3176,-2.3278,-2.3525,-2.4005,0.0,-2.4381,-2.4303,-2.4586,-2.466,-2.458,-2.4534,-2.45,-2.45,-2.45,-2.45,-2.45,-2.45,-2.45,-2.45,-2.45,0.0,0.0,-2.6312,-2.6907,-2.739,-3.0697,-3.1812,-3.237,-3.5677,-3.6679,-3.6973,-3.8526,-3.9925,-4.1015,-4.1295,-4.231,-4.3347,-4.3644,-4.3651,-4.349,-4.3001,-4.2873,-4.2763,-4.2323,-4.2249,-4.2396,-4.28,-4.2873,-4.302,-4.3441,-4.4195,-4.5002,-4.5773,-4.6599,-4.803,-5.0508,-5.0802,-5.1426,-5.302,-5.3203,-5.3885,-5.5464,0.0,-5.6308,-5.7923,-5.7997,-5.7997,-5.7997,-5.7997,-5.7997,-5.7997,-5.7997,-5.7997,-5.7997,-5.7997,-5.7997,-5.7997,-5.7997,-5.7997,-5.7997,-5.7997,0.0,-5.7065,-5.6519,-5.5943,-5.5343,-5.4745,-5.4494,-5.4494,-5.4494,-5.4494,-5.4494,0.0,0.0,0.0,0.0,0.0,0.0,0.0,-2.4247,-2.4266,-2.4303,-2.4321,-2.433,-2.433,-2.4385,-2.4394,0.0,0.0,0.0,0.0,0.0,0.0,0.0,0.0,0.0,-2.2329,0.0,0.0,-2.3086,-2.3743,0.0,0.0,0.0,0.0,0.0,-2.4517,-2.45,-2.45,-2.45,-2.45,0.0,0.0,-2.45,-2.45,0.0,0.0,0.0,0.0,-2.6907,-2.739,-3.0697,-3.1812,-3.237,-3.5677,-3.6692,-3.6986,-3.8526,-3.9629,-4.0422,-4.0932,-4.1709,-4.2501,-4.2967,-4.3085,-4.2868,-4.2193,-4.2029,-4.1882,-4.1242,-4.1095,-4.1279,-4.1919,-4.2176,-4.2506,-4.313,-4.3901,-4.4782,-4.5773,-4.6434,-4.781,-5.0472,-5.0802,-5.1426,-5.302,-5.3203,0.0,-5.5464,0.0,0.0,-5.7923,-5.7997,-5.7997,-5.7997,-5.7997,-5.7997,-5.7997,-5.7997,-5.7997,-5.7997,-5.7997,-5.7997,-5.7997,-5.7997,-5.7997,-5.7997,-5.7997,0.0,0.0,-5.6519,-5.5943,-5.5343,-5.4745,-5.4494,-5.4494,-5.4494,-5.4494,-5.4494,0.0,0.0,0.0,0.0,0.0,0.0,0.0,-2.4321,-2.4385,-2.4394,-2.4447,-2.4482,-2.4482,-2.4438,-2.4421,0.0,0.0,0.0,0.0,0.0,0.0,0.0,0.0,0.0,0.0,0.0,0.0,-2.3975,-2.4629,0.0,0.0,0.0,0.0,0.0,0.0,-2.45,-2.45,-2.45,0.0,0.0,0.0,0.0,0.0,0.0,0.0,0.0,0.0,-2.6907,-2.739,-3.0697,-3.1812,-3.237,-3.5677,-3.6613,-3.6851,-3.8497,-3.9542,-4.0126,-4.0184,-4.0828,-4.144,-4.1404,-4.136,-4.1295,-4.1242,-4.1205,-4.1168,-4.1132,-4.1095,-4.1132,-4.1205,-4.1809,-4.2323,-4.2396,-4.3094,-4.4158,-4.5663,-4.5957,-4.7205,-5.0435,-5.0802,-5.1426,-5.302,-5.3203,-5.3885,0.0,0.0,0.0,-5.7997,-5.7997,-5.7997,-5.7997,-5.7997,-5.7997,-5.7997,-5.7997,-5.7997,-5.7997,-5.7997,-5.7997,-5.7997,-5.7997,-5.7997,-5.7997,-5.7997,0.0,0.0,-5.6519,-5.5943,-5.5343,-5.4745,-5.4494,-5.4494,-5.4494,-5.4494,-5.4494,0.0,0.0,0.0,0.0,0.0,0.0,-2.4451,-2.4485,-2.4543,-2.4678,-2.4716,-2.4723,-2.4723,-2.4708,-2.47,-2.4621,0.0,0.0,0.0,0.0,0.0,0.0,0.0,0.0,0.0,0.0,-2.2556,-2.3912,-2.4043,0.0,0.0,0.0,0.0,0.0,0.0,-2.45,-2.45,-2.45,0.0,0.0,0.0,0.0,0.0,0.0,0.0,0.0,0.0,0.0,-2.7241,-2.9582,-3.0995,-3.2184,-3.4488,-3.581,-3.6892,-3.8568,-3.9272,-3.96,-3.9993,-4.0332,-4.0671,-4.1045,-4.1128,-4.0838,-3.9884,-3.9664,-3.9371,-3.8395,-3.8212,-3.8505,-3.9496,-3.9937,-4.0598,-4.2066,-4.258,-4.3497,-4.559,-4.5883,-4.7131,-5.0398,-5.0802,-5.1426,-5.302,0.0,-5.3885,0.0,0.0,0.0,-5.7997,-5.7997,-5.7997,-5.7997,-5.7997,-5.7997,-5.7997,-5.7997,-5.7997,-5.7997,-5.7997,-5.7997,-5.7997,-5.7997,-5.7997,-5.7997,-5.7997,0.0,0.0,-5.6678,-5.6166,-5.583,-5.4865,-5.4494,-5.4494,-5.4494,-5.4494,-5.4494,0.0,0.0,0.0,0.0,0.0,-2.4425,-2.4647,-2.4647,-2.4693,-2.4881,-2.4867,-2.4854,-2.4902,-2.4902,-2.4881,-2.4818,-2.3479,0.0,0.0,0.0,0.0,0.0,0.0,0.0,0.0,0.0,-2.2673,-2.3793,-2.3825,-2.4129,0.0,0.0,-2.45,-2.45,0.0,0.0,0.0,0.0,0.0,0.0,0.0,0.0,0.0,0.0,0.0,0.0,0.0,0.0,0.0,0.0,0.0,-3.2072,-3.3696,-3.5144,-3.6602,-3.8251,-3.8906,-3.9147,-3.9623,-3.9726,-3.9829,-4.0299,-4.023,-3.9753,-3.8615,-3.8175,-3.7661,-3.6523,-3.6303,-3.6707,-3.8102,-3.8542,-3.9423,-4.1589,-4.2139,-4.313,-4.5553,-4.5883,-4.7131,-5.0398,-5.0802,-5.1426,-5.302,-5.3628,0.0,0.0,0.0,0.0,0.0,-5.7997,-5.7997,-5.7997,-5.7997,-5.7997,-5.7997,-5.7997,-5.7997,-5.7997,-5.7997,-5.7997,-5.7997,-5.7997,-5.7997,-5.7997,0.0,0.0,0.0,-5.6757,-5.6303,-5.6193,-5.4987,-5.4494,-5.4494,-5.4494,-5.4494,-5.4494,0.0,0.0,0.0,0.0,0.0,0.0,-2.4863,-2.4783,-2.4761,-2.4881,-2.4768,-2.4768,-2.4888,-2.4902,-2.4961,-2.5097,-2.4239,0.0,0.0,0.0,0.0,0.0,0.0,0.0,0.0,0.0,-2.3995,-2.3793,-2.455,-2.4825,-2.47,-2.4576,-2.45,-2.45,0.0,0.0,0.0,0.0,0.0,0.0,0.0,0.0,-2.45,0.0,0.0,0.0,0.0,0.0,0.0,0.0,0.0,0.0,0.0,-3.481,-3.5826,-3.7448,-3.8377,-3.8892,-3.8929,-3.887,-3.8795,-3.8741,-3.8138,-3.7529,-3.7529,-3.6905,-3.6303,-3.6303,-3.6303,-3.6574,-3.7345,-3.8175,-3.9239,-4.0838,-4.1772,-4.313,-4.5553,-4.5883,-4.7131,-5.0398,-5.0802,-5.1426,-5.302,-5.462,0.0,0.0,0.0,0.0,0.0,-5.7997,-5.7997,-5.7997,-5.7997,-5.7997,-5.7997,-5.7997,-5.7997,-5.7997,-5.7997,-5.7997,-5.7997,-5.7997,-5.7997,0.0,0.0,0.0,0.0,-5.6757,-5.6303,-5.6193,-5.4987,-5.4494,-5.4494,-5.4494,-5.4494,-5.4494,0.0,0.0,0.0,0.0,0.0,0.0,0.0,-2.5006,-2.5031,-2.5149,-2.5132,-2.5121,-2.516,-2.5165,-2.5182,-2.5219,-2.4356,0.0,0.0,0.0,0.0,0.0,0.0,0.0,0.0,-2.3536,-2.3961,-2.4433,-2.4549,-2.4596,-2.4576,-2.4525,-2.45,-2.45,-2.45,-2.45,0.0,0.0,0.0,0.0,0.0,-2.45,-2.45,0.0,0.0,0.0,0.0,0.0,0.0,0.0,0.0,0.0,0.0,0.0,0.0,-3.5937,-3.7198,-3.8331,-3.883,-3.8906,-3.8722,-3.8096,-3.7706,-3.7199,-3.6046,-3.567,-3.5368,-3.4738,-3.4619,-3.5073,-3.6427,-3.689,-3.7955,-4.0655,-4.1315,-4.2506,-4.548,-4.5883,-4.7131,-5.0398,-5.1793,-5.2637,0.0,0.0,0.0,0.0,0.0,0.0,0.0,-5.7997,-5.7997,-5.7997,-5.7997,-5.7997,-5.7997,-5.7997,-5.7997,-5.7997,-5.7997,-5.7997,-5.7997,-5.7997,0.0,0.0,0.0,0.0,0.0,-5.6757,-5.6303,-5.6193,-5.4987,-5.4494,-5.4494,-5.4494,-5.4494,-5.4494,0.0,0.0,0.0,0.0,0.0,0.0,0.0,-2.5132,-2.5149,-2.5293,-2.5273,-2.5224,-2.5303,-2.5308,-2.5308,-2.5308,-2.4748,0.0,0.0,0.0,0.0,0.0,0.0,0.0,-2.3686,-2.3942,-2.4433,-2.515,-2.5091,-2.5198,-2.5505,-2.5505,-2.5356,-2.502,-2.502,-2.4828,0.0,0.0,0.0,0.0,-2.4156,-2.4194,-2.45,0.0,0.0,0.0,0.0,0.0,0.0,0.0,0.0,0.0,0.0,0.0,0.0,0.0,-3.5962,-3.7175,-3.791,-3.8048,-3.788,-3.7321,-3.6918,-3.6346,-3.5303,-3.4876,-3.4522,-3.393,-3.4054,-3.4729,-3.606,-3.6817,-3.8065,-4.0691,-4.1352,-4.258,-4.548,-4.5883,-4.7131,-5.0398,-5.2234,0.0,0.0,0.0,0.0,0.0,0.0,0.0,0.0,-5.7997,-5.7997,-5.7997,-5.7997,-5.7997,-5.7997,-5.7997,-5.7997,-5.7997,-5.7997,-5.7997,-5.7997,-5.7997,0.0,0.0,0.0,0.0,0.0,-5.6757,-5.6303,-5.6193,-5.4987,-5.4494,-5.4494,-5.4494,-5.4494,-5.4494,0.0,0.0,0.0,0.0,0.0,0.0,0.0,-2.5171,-2.516,-2.5293,-2.5187,-2.516,-2.5298,-2.5308,-2.5308,-2.5308,0.0,0.0,0.0,0.0,0.0,0.0,0.0,0.0,-2.3763,-2.4571,-2.5302,-2.6005,-2.6005,-2.6397,-2.7211,-2.7211,-2.676,-2.5963,-2.5925,-2.5377,0.0,0.0,0.0,0.0,-2.3619,-2.3776,0.0,0.0,0.0,0.0,0.0,0.0,0.0,0.0,0.0,0.0,0.0,0.0,0.0,0.0,0.0,0.0,0.0,-3.6472,-3.6491,-3.644,-3.5795,-3.5188,-3.5114,-3.4485,0.0,-3.3894,-3.4541,-3.5385,-3.6229,-3.7661,-3.9239,-4.0838,-4.1772,-4.313,-4.5553,-4.6104,-4.7388,-5.0435,-5.2234,0.0,0.0,0.0,0.0,0.0,0.0,0.0,0.0,-5.7997,-5.7997,-5.7997,-5.7997,-5.7997,-5.7997,-5.7997,-5.7997,-5.7997,-5.7997,-5.7997,-5.7997,-5.7997,0.0,0.0,0.0,0.0,0.0,-5.6757,-5.6303,-5.6193,-5.4987,-5.4494,-5.4494,-5.4494,-5.4494,-5.4494,0.0,0.0,0.0,0.0,0.0,0.0,0.0,0.0,0.0,0.0,-2.5288,-2.5239,-2.5303,-2.5308,-2.5308,0.0,0.0,0.0,0.0,0.0,0.0,0.0,0.0,0.0,-2.5347,-2.5573,-2.6054,-2.6902,-2.6902,-2.7015,-2.7211,-2.7211,-2.7022,-2.6646,-2.6021,-2.5287,0.0,0.0,0.0,0.0,-2.4268,-2.4314,0.0,0.0,0.0,0.0,-2.45,-2.502,0.0,0.0,0.0,0.0,0.0,0.0,0.0,0.0,-3.3447,-3.377,-3.4563,0.0,-3.6398,-3.5742,-3.5403,-3.5041,0.0,-3.4579,-3.4924,-3.4894,-3.5547,-3.6357,-3.7103,-3.8028,-3.9239,-4.0838,-4.1772,-4.313,-4.5553,-4.8049,-4.9921,-5.0729,-5.2234,-5.3203,0.0,0.0,0.0,0.0,0.0,0.0,0.0,-5.7997,-5.7997,-5.7997,-5.7997,-5.7997,-5.7997,-5.7997,-5.7997,-5.7997,-5.7997,-5.7997,-5.7997,-5.7997,0.0,0.0,0.0,0.0,-5.7927,-5.6757,-5.6303,-5.6193,-5.4987,-5.4494,-5.4494,-5.4494,-5.4494,-5.4494,0.0,0.0,0.0,0.0,0.0,0.0,0.0,0.0,0.0,0.0,0.0,-2.5308,-2.5308,-2.5308,0.0,0.0,0.0,0.0,0.0,0.0,0.0,0.0,0.0,-2.5232,-2.6035,-2.6718,-2.7516,-2.8436,-2.8822,-2.9238,-2.959,-2.959,-2.9079,-2.8082,-2.6432,-2.5466,0.0,0.0,0.0,-2.4462,-2.4045,0.0,0.0,0.0,0.0,0.0,-2.45,-2.4797,0.0,-2.6098,-2.6869,-2.7761,0.0,0.0,0.0,0.0,-3.2407,-3.3113,-3.351,-3.4563,-3.5366,-3.487,-3.4744,-3.4668,-3.4568,-3.4927,-3.537,-3.5694,-3.6408,-3.7219,-3.7911,-3.9019,-4.023,-4.1442,-4.2653,-4.4232,-4.6654,-4.9187,-5.0949,-5.1316,-5.2454,0.0,0.0,0.0,0.0,0.0,0.0,0.0,0.0,-5.7997,-5.7997,-5.7997,-5.7997,-5.7997,-5.7997,-5.7997,-5.7997,-5.7997,-5.7997,-5.7997,-5.7997,-5.7997,-5.7997,0.0,0.0,0.0,-5.795,-5.704,-5.6519,-5.6221,-5.5284,-5.471,-5.4494,-5.4494,-5.4494,-5.4494,0.0,0.0,0.0,0.0,0.0,0.0,0.0,0.0,0.0,0.0,0.0,0.0,0.0,0.0,0.0,0.0,0.0,0.0,0.0,0.0,0.0,0.0,-2.5837,-2.6325,-2.675,-2.7991,-2.9179,-3.0318,-3.1056,-3.1746,-3.2397,-3.2397,-3.1382,-2.9458,-2.7103,-2.5949,-2.5615,0.0,-2.3814,-2.4425,-2.3702,0.0,0.0,0.0,0.0,0.0,0.0,0.0,0.0,-2.5429,-2.6238,-2.7055,-2.7836,0.0,0.0,0.0,0.0,0.0,-3.3113,-3.377,-3.4352,-3.413,-3.4191,-3.4475,-3.5151,-3.547,-3.5887,-3.6629,-3.7425,-3.8191,-3.8924,-4.0288,-4.1499,-4.2176,-4.3754,-4.57,-4.7976,-4.9738,-5.1096,-5.1903,-5.2711,0.0,0.0,0.0,0.0,0.0,0.0,0.0,0.0,-5.7997,-5.7997,-5.7997,-5.7997,-5.7997,-5.7997,-5.7997,-5.7997,-5.7997,-5.7997,-5.7997,-5.7997,-5.7997,-5.7997,0.0,0.0,0.0,-5.795,-5.7376,-5.6783,-5.6248,-5.5629,-5.5048,-5.4494,-5.4494,-5.4494,-5.4494,0.0,0.0,0.0,0.0,0.0,0.0,0.0,0.0,0.0,0.0,0.0,0.0,0.0,0.0,0.0,0.0,0.0,0.0,0.0,0.0,0.0,-2.6326,-2.6362,-2.7272,-2.93,-2.9542,-3.0516,-3.2264,-3.2378,-3.2453,-3.2397,-3.2397,-3.1356,-2.9373,-2.8227,-2.6981,-2.5652,-2.4714,-2.4388,-2.45,-2.4351,0.0,0.0,0.0,0.0,0.0,0.0,0.0,0.0,-2.5429,-2.6238,-2.7055,-2.7836,0.0,0.0,0.0,0.0,0.0,-3.3658,-3.4637,-3.5082,-3.4215,-3.4598,-3.5229,-3.5275,-3.6343,-3.7562,-3.836,-3.9113,-3.9847,-4.0598,-4.1479,-4.2176,-4.2286,-4.4232,-4.6324,-4.8049,-4.9738,-5.1096,-5.1903,0.0,0.0,0.0,0.0,0.0,0.0,0.0,0.0,0.0,0.0,-5.7997,-5.7997,-5.7997,-5.7997,-5.7997,-5.7997,-5.7997,-5.7997,-5.7997,-5.7997,-5.7997,-5.7997,-5.7997,0.0,0.0,-5.7997,-5.795,-5.7376,-5.6783,-5.6248,-5.5629,-5.5048,-5.4494,-5.4494,-5.4494,-5.4494,0.0,0.0,0.0,0.0,0.0,0.0,0.0,0.0,0.0,0.0,0.0,0.0,0.0,0.0,0.0,0.0,0.0,0.0,0.0,0.0,-2.5838,-2.7236,-2.7648,-2.8593,-3.0136,-3.1867,-3.3242,-3.4218,-3.5108,-3.539,-3.5012,-3.3915,-3.242,-3.0623,-2.9359,-2.7922,-2.641,-2.5502,-2.4923,-2.4588,0.0,0.0,0.0,0.0,0.0,0.0,0.0,0.0,0.0,0.0,-2.5875,-2.6944,-2.7315,0.0,0.0,0.0,0.0,0.0,-3.3213,-3.4525,-3.5379,-3.4831,-3.5399,-3.6239,-3.7017,-3.7792,-3.8693,-3.9902,-4.0409,-4.0877,-4.1589,-4.2066,-4.2727,-4.4048,-4.5553,-4.7278,-4.937,-5.0325,-5.1279,0.0,0.0,0.0,0.0,0.0,0.0,0.0,0.0,0.0,0.0,0.0,-5.7997,-5.7997,-5.7997,-5.7997,-5.7997,-5.7997,-5.7997,-5.7997,-5.7997,-5.7997,-5.7997,-5.7997,-5.7997,-5.7997,0.0,-5.7997,-5.7973,-5.7703,-5.7241,-5.6678,-5.6111,-5.5549,-5.4957,-5.462,-5.4494,-5.4494,0.0,0.0,0.0,0.0,0.0,0.0,0.0,0.0,0.0,0.0,0.0,0.0,0.0,0.0,0.0,0.0,0.0,0.0,0.0,-2.5475,-2.6243,-2.7813,-2.905,-3.0121,-3.0962,-3.3789,-3.5438,-3.5769,-3.7194,-3.7577,-3.6911,-3.5261,-3.3559,-3.1738,-3.0341,-2.8754,-2.703,-2.614,-2.5344,-2.4692,0.0,0.0,0.0,0.0,0.0,0.0,0.0,0.0,0.0,0.0,0.0,0.0,0.0,0.0,0.0,-3.0586,-3.1329,-3.2072,-3.3262,-3.4674,-3.5825,-3.6102,-3.6545,-3.7211,-3.8523,-3.8966,-3.9622,-4.1167,-4.1482,-4.1744,-4.2707,-4.302,-4.3828,-4.5847,-4.6856,-4.8177,-5.0472,-5.0949,-5.161,0.0,0.0,0.0,0.0,0.0,0.0,0.0,0.0,0.0,0.0,0.0,-5.7997,-5.7997,-5.7997,-5.7997,-5.7997,-5.7997,-5.7997,-5.7997,-5.7997,-5.7997,-5.7997,-5.7997,-5.7997,-5.7997,-5.7997,-5.7997,-5.7997,-5.7997,-5.7618,-5.7065,-5.6652,-5.6055,-5.5343,-5.4745,-5.4494,-5.4494,0.0,0.0,0.0,0.0,0.0,0.0,0.0,0.0,0.0,0.0,0.0,0.0,0.0,0.0,0.0,0.0,0.0,0.0,0.0,-2.5943,-2.678,-2.7852,-3.0237,-3.1891,-3.2699,-3.4532,-3.5839,-3.6615,-3.7299,-3.7024,-3.5908,-3.5577,-3.4116,-3.1786,-3.1046,-2.9364,-2.7039,-2.6247,-2.5429,-2.4692,-2.4568,0.0,0.0,0.0,0.0,0.0,0.0,0.0,0.0,0.0,0.0,0.0,0.0,0.0,-2.9694,-3.1255,-3.1738,-3.2332,-3.4674,-3.5937,-3.6952,-3.8377,-3.8215,-3.7877,-3.8634,-3.9363,-4.0394,-4.1997,-4.2263,-4.269,-4.4232,-4.5149,-4.5957,-4.6856,-4.7663,-4.882,-5.0545,0.0,0.0,0.0,0.0,0.0,0.0,0.0,0.0,0.0,0.0,0.0,0.0,0.0,0.0,-5.7997,-5.7997,-5.7997,-5.7997,-5.7997,-5.7997,-5.7997,-5.7997,-5.7997,-5.7997,-5.7997,-5.7997,-5.7997,-5.7997,-5.7997,-5.7997,-5.7997,-5.7618,-5.7091,-5.7065,-5.6349,-5.5343,-5.4745,-5.4494,-5.4494,0.0,0.0,0.0,0.0,0.0,0.0,0.0,0.0,0.0,0.0,0.0,0.0,0.0,0.0,0.0,0.0,0.0,0.0,0.0,-2.6079,-2.6924,-2.7852,-3.0352,-3.2083,-3.2891,-3.5115,-3.6654,-3.7507,-3.8478,-3.8209,-3.6776,-3.6409,-3.4697,-3.196,-3.1582,-3.016,-2.7959,-2.6929,-2.6109,-2.5397,-2.4754,-2.45,0.0,0.0,0.0,0.0,0.0,0.0,0.0,0.0,-2.5243,-2.6238,-2.6721,-2.7687,-2.9025,-3.118,-3.2147,-3.3001,-3.4971,-3.6419,-3.7627,-3.8748,-3.9112,-3.9586,-4.0871,-4.1325,-4.1846,-4.3037,-4.3159,-4.3387,-4.4525,-4.5755,-4.6892,-4.77,-4.8563,-4.9664,0.0,0.0,0.0,0.0,0.0,0.0,0.0,0.0,0.0,0.0,0.0,0.0,0.0,0.0,0.0,-5.7997,-5.7997,-5.7997,-5.7997,-5.7997,-5.7997,-5.7997,-5.7997,-5.7997,-5.7997,-5.7997,-5.7997,-5.7997,-5.7997,-5.7997,-5.7997,-5.7997,-5.7881,-5.757,-5.6887,-5.6111,-5.5343,-5.4745,-5.4494,-5.4494,0.0,0.0,0.0,0.0,0.0,0.0,0.0,0.0,0.0,0.0,0.0,0.0,0.0,0.0,0.0,0.0,0.0,0.0,-2.5308,-2.6385,-2.7274,-2.7857,-3.0583,-3.2352,-3.2891,-3.5074,-3.6773,-3.7924,-3.9105,-3.8833,-3.7155,-3.6943,-3.5114,-3.2112,-3.2013,-3.0744,-2.8547,-2.7443,-2.6586,-2.5801,-2.4866,-2.45,0.0,0.0,0.0,0.0,0.0,0.0,0.0,0.0,-2.502,-2.5838,-2.6646,-2.7464,-2.8579,-3.1069,-3.2184,-3.3101,-3.5268,-3.6838,-3.8132,-3.9452,-4.0385,-4.1311,-4.2717,-4.2717,-4.2656,-4.3553,-4.4226,-4.4819,-4.5351,-4.7003,-4.836,-4.8673,-4.9627,0.0,0.0,0.0,0.0,0.0,0.0,0.0,0.0,0.0,0.0,0.0,0.0,0.0,0.0,0.0,0.0,0.0,-5.7997,-5.7997,-5.7997,-5.7997,-5.7997,-5.7997,-5.7997,-5.7997,-5.7997,-5.7997,-5.7997,-5.7997,-5.7997,-5.7997,-5.7997,-5.7997,-5.7997,-5.7904,-5.6731,-5.6055,-5.5572,-5.4772,-5.4494,-5.4494,0.0,0.0,0.0,0.0,0.0,0.0,0.0,0.0,0.0,0.0,0.0,0.0,0.0,0.0,0.0,0.0,0.0,0.0,-2.5308,-2.6928,-2.7895,-2.7895,-3.1083,-3.2891,-3.2891,-3.4427,-3.6023,-3.7695,-3.8908,-3.8552,-3.6731,-3.6893,-3.5237,-3.2132,-3.2307,-3.0995,-2.8555,-2.7616,-2.6706,-2.5839,-2.4866,-2.45,-2.45,0.0,0.0,0.0,0.0,0.0,0.0,0.0,-2.502,-2.5838,-2.6646,-2.7464,-2.8579,-3.1069,-3.1812,-3.2532,-3.5723,-3.7246,-3.8511,-4.0911,-4.2143,-4.302,-4.3838,-4.3167,-4.264,-4.347,-4.5497,-4.7113,-4.7113,-4.915,-5.0545,-4.9757,-5.0969,0.0,0.0,0.0,0.0,0.0,0.0,0.0,0.0,0.0,0.0,0.0,0.0,0.0,0.0,0.0,0.0,0.0,-5.7997,-5.7997,-5.7997,-5.7997,-5.7997,-5.7997,-5.7997,-5.7997,-5.7997,-5.7997,-5.7997,-5.7997,-5.7997,-5.7997,-5.7997,-5.7997,-5.7997,-5.7904,-5.6731,-5.6303,-5.6166,-5.4957,-5.4494,-5.4494,0.0,0.0,0.0,0.0,0.0,0.0,0.0,0.0,0.0,0.0,0.0,0.0,0.0,0.0,0.0,0.0,0.0,0.0,-2.5308,-2.6928,-2.7895,-2.7895,-3.0583,-3.2314,-3.2891,-3.4986,-3.6479,-3.7423,-3.8391,-3.8595,-3.7996,-3.6896,-3.5286,-3.3346,-3.3129,-3.1713,-2.9434,-2.8296,-2.7364,-2.6506,-2.5165,-2.4564,-2.4517,0.0,0.0,0.0,0.0,0.0,0.0,0.0,0.0,0.0,-2.6461,-2.7055,-2.7836,-3.092,-3.2593,-3.3956,-3.6085,-3.8062,-3.9851,-4.123,-4.2158,-4.2959,-4.3822,-4.4124,-4.4422,-4.5073,-4.6323,-4.739,-4.7865,-4.904,0.0,-5.1153,0.0,0.0,0.0,0.0,0.0,0.0,0.0,0.0,0.0,0.0,0.0,0.0,0.0,0.0,0.0,0.0,0.0,0.0,-5.7997,-5.7997,-5.7997,-5.7997,-5.7997,-5.7997,-5.7997,-5.7997,-5.7997,-5.7997,-5.7997,-5.7997,-5.7997,-5.7997,-5.7997,-5.7997,-5.7997,-5.7904,-5.6731,-5.6303,-5.6166,-5.4957,-5.4494,-5.4494,0.0,0.0,0.0,0.0,0.0,0.0,0.0,0.0,0.0,0.0,-2.5308,-2.5308,0.0,0.0,0.0,-2.5308,-2.5308,-2.5308,-2.5308,-2.6621,-2.7544,-2.7895,-3.0006,-3.1667,-3.2767,-3.4832,-3.6024,-3.6328,-3.7843,-3.8422,-3.8074,-3.6796,-3.5215,-3.3379,-3.3052,-3.1996,-3.0267,-2.8792,-2.7857,-2.7223,-2.5423,-2.4613,-2.4508,0.0,0.0,0.0,0.0,0.0,0.0,0.0,0.0,0.0,-2.6386,-2.6907,-2.7538,-3.0846,-3.2704,-3.4141,-3.6109,-3.8433,-4.0496,-4.1341,-4.2418,-4.3515,-4.4644,-4.4975,-4.5267,-4.6177,-4.7352,-4.829,-4.8729,-5.0031,0.0,0.0,0.0,0.0,0.0,0.0,0.0,0.0,0.0,0.0,0.0,0.0,0.0,0.0,0.0,0.0,0.0,0.0,0.0,0.0,-5.7997,-5.7997,-5.7997,-5.7997,-5.7997,-5.7997,-5.7997,-5.7997,-5.7997,-5.7997,-5.7997,-5.7997,-5.7997,-5.7997,-5.7997,-5.7997,-5.7844,-5.7546,-5.6652,-5.6166,-5.583,-5.4865,-5.4494,-5.4494,0.0,0.0,0.0,0.0,0.0,0.0,0.0,0.0,0.0,-2.5308,-2.5308,-2.5308,0.0,0.0,0.0,-2.5308,-2.5308,-2.5308,-2.5308,-2.6115,-2.6967,-2.7741,-2.9462,-3.1015,-3.237,-3.4044,-3.4869,-3.4879,-3.723,-3.8026,-3.7326,-3.6555,-3.4953,-3.273,-3.2484,-3.1867,-3.0865,-2.923,-2.8334,-2.7847,-2.5785,-2.4778,-2.45,-2.4517,0.0,0.0,0.0,0.0,0.0,0.0,0.0,0.0,-2.6312,-2.6832,-2.7538,-3.0734,-3.2295,-3.3535,-3.5946,-3.847,-4.0591,-4.1334,-4.2736,-4.44,-4.5934,-4.5682,-4.5525,-4.6948,-4.8453,-4.9554,-4.9684,-5.1573,0.0,0.0,0.0,0.0,0.0,0.0,0.0,0.0,0.0,0.0,0.0,0.0,0.0,0.0,0.0,0.0,0.0,0.0,0.0,0.0,-5.796,-5.7997,-5.7997,-5.7997,-5.7997,0.0,-5.7997,-5.7997,-5.7997,-5.7997,-5.7997,-5.7997,-5.7997,-5.7973,-5.7927,-5.7927,-5.7546,-5.6989,-5.6438,-5.5887,-5.5343,-5.4745,-5.4494,-5.4494,0.0,0.0,0.0,0.0,0.0,0.0,0.0,0.0,-2.5308,-2.5308,-2.5308,-2.5308,-2.5308,-2.5308,0.0,-2.5308,-2.5308,-2.5308,-2.5308,-2.6115,-2.6697,-2.689,-2.9154,-3.0559,-3.0874,-3.2532,-3.4009,-3.5354,-3.6358,-3.7089,-3.7488,-3.5561,-3.428,-3.3593,-3.2759,-3.1572,-3.017,-3.0291,-2.9213,-2.7348,-2.6971,-2.5882,-2.4517,-2.4604,-2.4572,0.0,0.0,0.0,0.0,0.0,0.0,0.0,-2.5652,-2.6386,-2.7427,-3.0065,-3.1886,-3.3547,-3.6023,-3.8488,-4.0606,-4.1371,-4.2782,-4.4385,-4.5887,-4.6109,-4.6441,-4.7905,-4.8914,-4.9794,-5.0398,0.0,0.0,0.0,0.0,0.0,0.0,0.0,0.0,0.0,0.0,0.0,0.0,0.0,0.0,0.0,0.0,0.0,0.0,0.0,0.0,-5.7079,-5.7666,-5.7997,-5.7997,-5.7997,-5.7997,0.0,-5.7997,-5.7997,-5.7997,-5.7997,-5.7997,-5.7997,-5.7997,-5.7726,-5.729,-5.729,-5.6964,-5.6412,-5.583,-5.5484,-5.5343,-5.4745,-5.4494,-5.4494,0.0,0.0,0.0,0.0,0.0,0.0,0.0,0.0,-2.5308,-2.5308,-2.5308,-2.5308,-2.5308,-2.5308,0.0,0.0,-2.5308,-2.5308,-2.5308,-2.5731,-2.6154,-2.6582,-2.8275,-2.939,-2.9775,-3.1044,-3.2538,-3.4269,-3.4992,-3.5983,-3.714,-3.5119,-3.3901,-3.3288,-3.2346,-3.1374,-3.0465,-3.0409,-2.9604,-2.8292,-2.7557,-2.6389,-2.5066,-2.5152,-2.4912,-2.45,-2.45,0.0,0.0,0.0,0.0,0.0,0.0,0.0,-2.7315,-2.9396,-3.144,-3.3447,-3.5566,-3.7894,-4.016,-4.1757,-4.3095,-4.4385,-4.5921,-4.6254,-4.6735,-4.8218,-4.9433,-5.0478,0.0,0.0,0.0,0.0,0.0,0.0,0.0,0.0,0.0,0.0,0.0,0.0,0.0,0.0,0.0,0.0,0.0,0.0,0.0,-5.5794,-5.6418,-5.6785,-5.7226,-5.7593,-5.7997,-5.7997,-5.7997,-5.7997,-5.7997,-5.7997,-5.7997,-5.7997,-5.7997,-5.7997,-5.7997,-5.7679,-5.7116,-5.7116,-5.6589,-5.583,-5.5513,-5.5224,-5.4926,-5.462,-5.4494,-5.4494,0.0,0.0,0.0,0.0,0.0,0.0,0.0,0.0,0.0,-2.5308,-2.5308,-2.5308,-2.5308,-2.5308,-2.5308,0.0,0.0,0.0,-2.5308,-2.5308,-2.5615,-2.6346,-2.7198,-2.8011,-2.8665,-2.966,-3.0923,-3.2468,-3.3353,-3.4622,-3.6238,-3.4699,-3.3517,-3.2676,-3.1622,-3.1241,-3.1311,-3.0427,-2.9956,-2.9719,-2.8162,-2.6885,-2.5912,-2.5912,-2.5503,-2.4908,-2.4908,-2.4834,-2.4723,-2.4723,0.0,0.0,0.0,0.0,-2.7204,-2.8728,-3.0883,-3.3187,-3.5008,-3.7461,-4.0048,-4.224,-4.3392,-4.4363,-4.5766,-4.621,-4.6786,-4.8327,-4.9879,0.0,0.0,0.0,0.0,0.0,0.0,0.0,0.0,0.0,0.0,0.0,0.0,0.0,0.0,0.0,0.0,0.0,0.0,0.0,-5.4179,-5.495,-5.5684,-5.6381,-5.6528,-5.6969,-5.7776,-5.7776,-5.785,-5.7997,-5.7997,-5.7997,-5.7997,-5.7997,-5.7997,-5.7997,-5.7997,-5.7679,-5.7091,-5.7015,-5.6322,-5.5402,-5.5284,-5.4957,-5.4494,-5.4494,-5.4494,-5.4494,0.0,0.0,0.0,0.0,0.0,0.0,0.0,0.0,0.0,0.0,-2.5308,-2.5308,-2.5308,-2.5308,-2.5308,-2.5308,-2.5308,-2.5308,-2.5308,0.0,0.0,-2.5462,-2.6308,-2.6813,-2.6928,-2.8467,-2.9737,-3.0731,-3.1621,-3.2891,-3.4513,-3.3545,-3.2934,-3.2638,-3.0987,-3.1087,-3.2409,-3.1382,-3.0936,-3.0899,-2.9782,-2.8306,-2.6721,-2.6721,-2.6684,-2.6572,-2.6572,-2.6126,-2.554,-2.554,-2.5094,0.0,0.0,0.0,-2.7092,-2.7984,-3.0028,-3.2481,-3.486,-3.8302,-4.1497,-4.2537,-4.3392,-4.4215,-4.5062,-4.589,-4.6925,0.0,0.0,0.0,0.0,0.0,0.0,0.0,0.0,0.0,0.0,0.0,0.0,0.0,0.0,0.0,0.0,0.0,0.0,0.0,0.0,0.0,-5.3371,-5.4106,-5.462,-5.473,-5.539,-5.6161,-5.6969,-5.6969,-5.7299,-5.7997,-5.7997,-5.7997,-5.7997,-5.7997,-5.7997,-5.7997,-5.7997,-5.7679,-5.7065,-5.6599,-5.5999,-5.5343,-5.4803,-5.4557,-5.4494,-5.4494,-5.4494,-5.4494,0.0,0.0,0.0,0.0,0.0,0.0,0.0,0.0,0.0,0.0,0.0,-2.5308,-2.5308,-2.5308,-2.5308,-2.5308,-2.5308,-2.5308,-2.5308,-2.5308,-2.5308,-2.5308,-2.5654,-2.6115,-2.6582,-2.7313,-2.8352,-2.966,-3.0538,-3.1621,-3.2776,-3.2429,-3.2627,-3.3303,-3.1691,-3.1875,-3.3288,-3.1732,-3.14,-3.1788,-3.064,-2.9163,-2.7575,-2.7575,-2.7278,-2.6907,-2.6907,-2.6684,-2.6349,-2.6349,-2.5838,-2.5169,-2.5169,0.0,0.0,0.0,-2.9174,-3.1775,-3.4711,-3.7782,-4.0494,-4.1794,-4.2723,-4.3621,-4.4839,-4.5815,-4.683,-4.7895,0.0,0.0,0.0,0.0,0.0,0.0,0.0,0.0,0.0,0.0,0.0,0.0,0.0,0.0,0.0,0.0,0.0,0.0,0.0,-5.3203,-5.3203,-5.3555,-5.3922,-5.4399,-5.473,-5.5317,-5.6124,-5.6565,-5.7189,-5.7997,-5.7997,-5.7997,-5.7997,-5.7997,-5.7997,-5.7997,-5.7997,-5.7679,-5.7065,-5.6519,-5.5943,-5.5343,-5.4745,-5.4494,-5.4494,-5.4494,-5.4494,-5.4494,0.0,0.0,0.0,0.0,0.0,0.0,0.0,0.0,0.0,0.0,0.0,-2.5308,-2.5308,0.0,0.0,0.0,-2.5308,-2.5308,-2.5308,-2.5308,-2.5308,-2.5308,-2.5308,-2.5615,-2.6269,-2.6505,-2.7198,-2.8472,-2.9352,-3.0198,-3.1044,-3.1044,-3.1725,-3.2972,-3.1847,-3.2428,-3.4082,-3.199,-3.1846,-3.2946,-3.1719,-3.048,-2.9441,-2.9603,-2.9136,-2.8467,-2.869,-2.8244,-2.7575,-2.7761,-2.7018,-2.5977,-2.5977,-2.6572,0.0,0.0,0.0,-3.1515,-3.4376,-3.6928,-3.9194,-4.0866,-4.2054,-4.3154,-4.4501,-4.5535,-4.6422,0.0,0.0,0.0,0.0,0.0,0.0,0.0,0.0,0.0,0.0,0.0,0.0,0.0,0.0,0.0,0.0,0.0,0.0,0.0,0.0,0.0,-5.3203,-5.3203,-5.3482,-5.4069,-5.4106,-5.4473,-5.528,-5.6088,-5.6895,-5.7703,-5.7703,-5.7813,-5.7997,-5.7997,-5.7997,-5.7997,-5.7997,-5.775,-5.7302,-5.6599,-5.6027,-5.5543,-5.4772,-5.4494,-5.4494,-5.4494,-5.4494,-5.4494,0.0,0.0,0.0,0.0,0.0,0.0,0.0,0.0,0.0,0.0,0.0,-2.5308,-2.5308,-2.5308,-2.5308,-2.5308,-2.5308,-2.5308,-2.5308,-2.5308,-2.5308,-2.5308,-2.5308,0.0,-2.5385,-2.6192,-2.6659,-2.6736,-2.7582,-2.8434,-2.9242,-2.9242,-2.9737,-3.0565,-3.0494,-3.2185,-3.4945,-3.2256,-3.2529,-3.4652,-3.3392,-3.2952,-3.3087,-3.3641,-3.3361,-3.2778,-3.3559,-3.1849,-2.9396,-3.014,-2.8802,-2.6832,-2.6832,-2.739,-2.8059,0.0,0.0,0.0,-3.3807,-3.6073,-3.8339,-4.0048,-4.1646,-4.302,-4.3875,-4.4729,-4.5584,0.0,0.0,0.0,0.0,0.0,0.0,0.0,0.0,0.0,0.0,0.0,0.0,0.0,0.0,0.0,0.0,0.0,0.0,0.0,0.0,0.0,-5.3188,-5.3203,-5.3203,-5.324,-5.324,-5.3665,-5.4436,-5.5244,-5.6051,-5.6859,-5.6859,-5.7262,-5.7997,-5.7997,-5.7997,-5.7997,-5.7997,-5.7973,-5.7881,-5.6757,-5.6276,-5.6138,-5.4957,-5.4494,-5.4494,-5.4494,-5.4494,-5.4494,0.0,0.0,0.0,0.0,0.0,0.0,0.0,0.0,0.0,0.0,0.0,0.0,0.0,-2.5308,-2.5308,-2.5308,-2.5308,-2.5308,-2.5308,-2.5308,-2.5308,-2.5308,-2.5308,-2.5308,-2.5308,-2.5615,-2.5769,-2.5769,-2.6659,-2.7198,-2.7505,-2.8088,-2.878,-2.9621,-3.0737,-3.2115,-3.354,-3.2969,-3.3562,-3.4832,-3.4076,-3.3908,-3.4143,-3.4174,-3.403,-3.3807,-3.4104,-3.3447,-3.2444,-3.2221,-3.0846,-2.9174,-2.8653,-2.8319,-2.8207,-2.8765,-2.9917,-3.1366,-3.299,-3.486,-3.6904,-3.9008,-4.0791,-4.224,-4.3058,-4.4283,-4.5361,0.0,0.0,0.0,0.0,0.0,0.0,0.0,0.0,0.0,0.0,0.0,0.0,0.0,0.0,0.0,0.0,0.0,0.0,0.0,0.0,0.0,-5.3256,-5.3209,-5.3203,-5.3203,-5.3203,-5.3592,-5.4399,-5.4693,-5.5244,-5.6051,-5.6565,-5.6969,-5.7262,-5.7776,-5.7997,-5.7997,-5.7997,-5.7997,-5.795,-5.7141,-5.6625,-5.6221,-5.5402,-5.4834,-5.4494,-5.4494,-5.4494,-5.4494,0.0,0.0,0.0,0.0,0.0,0.0,0.0,0.0,-2.5731,-2.5731,0.0,0.0,0.0,0.0,-2.5615,-2.5346,-2.5308,-2.5308,-2.5308,-2.5308,-2.5308,-2.5308,-2.5308,-2.5308,-2.5308,-2.5038,-2.5038,-2.5308,-2.562,-2.589,-2.6192,-2.6774,-2.7313,-2.7928,-3.0237,-3.1596,-3.224,-3.3574,-3.4225,-3.4434,-3.5318,-3.5552,-3.5458,-3.5848,-3.5901,-3.585,-3.585,-3.5479,-3.4959,-3.4414,-3.315,-3.1663,-3.0846,-2.9842,-2.8988,-2.9322,-2.9768,-3.0549,-3.2147,-3.3596,-3.5306,-3.8005,-3.9751,-4.1126,-4.25,-4.3652,-4.4618,0.0,0.0,0.0,0.0,0.0,0.0,0.0,0.0,0.0,0.0,0.0,0.0,0.0,0.0,0.0,0.0,0.0,0.0,0.0,0.0,0.0,-5.3318,-5.323,-5.3203,-5.3203,-5.3203,-5.3482,-5.3995,-5.3995,-5.4399,-5.5207,-5.5757,-5.6271,-5.6822,-5.7336,-5.774,-5.7997,-5.7997,-5.7997,-5.795,-5.7376,-5.6912,-5.6492,-5.5716,-5.5134,-5.4772,-5.4557,-5.4494,-5.4494,0.0,0.0,0.0,0.0,0.0,0.0,0.0,0.0,-2.6621,-2.6621,0.0,0.0,0.0,0.0,0.0,-2.5423,-2.5346,-2.5346,-2.5308,-2.5308,-2.5308,-2.5308,-2.5308,-2.5308,-2.5308,-2.4548,-2.4509,-2.5308,-2.4509,-2.4548,-2.5308,-2.5346,-2.5308,-2.5462,-2.8885,-3.0654,-3.124,-3.4009,-3.4489,-3.3686,-3.7158,-3.7964,-3.7263,-3.8851,-3.9337,-3.912,-3.912,-3.8116,-3.6829,-3.6779,-3.5665,-3.4104,-3.3262,-3.1924,-3.0511,-2.9694,-2.9444,-2.9768,0.0,0.0,0.0,-3.7002,-3.8451,-3.9714,-4.2129,0.0,0.0,0.0,0.0,0.0,0.0,0.0,0.0,0.0,0.0,0.0,0.0,0.0,0.0,0.0,0.0,0.0,0.0,0.0,0.0,0.0,0.0,-5.344,-5.3318,-5.3251,-5.3203,-5.3203,-5.3203,-5.3203,-5.3203,-5.3203,-5.3592,-5.4363,-5.4399,-5.5207,-5.6748,-5.6785,-5.7226,-5.796,-5.7997,-5.7997,-5.795,-5.7376,-5.7116,-5.6989,-5.5858,-5.5432,-5.5343,-5.4745,-5.4494,-5.4494,0.0,0.0,0.0,0.0,0.0,-2.55,-2.6154,-2.6467,-2.6813,0.0,0.0,0.0,-2.7582,-2.7544,-2.7198,-2.6308,-2.6231,-2.5962,-2.5346,-2.5308,-2.5308,-2.5308,-2.5308,-2.5308,-2.5308,-2.5077,-2.5077,-2.5308,-2.5077,-2.5077,-2.5308,-2.5962,-2.5885,-2.5462,-2.8885,-3.0407,-3.0578,-3.3829,-3.5254,-3.5446,-3.6869,-3.7983,-3.8839,-3.9098,-3.9574,-4.0048,-4.0048,-3.9765,-3.9268,-3.8637,-3.7336,-3.5677,-3.3633,-3.2704,-3.2072,-3.066,-3.0251,-3.0363,-3.0809,0.0,0.0,0.0,0.0,0.0,0.0,0.0,0.0,0.0,0.0,0.0,0.0,0.0,0.0,0.0,0.0,0.0,0.0,0.0,0.0,0.0,0.0,0.0,0.0,0.0,0.0,0.0,-5.3498,-5.338,-5.344,-5.3293,-5.3203,-5.3203,-5.3203,-5.3203,-5.3203,-5.3203,-5.3314,-5.3555,-5.4106,-5.462,-5.5097,-5.6271,-5.6932,-5.7152,-5.774,-5.7997,-5.7997,-5.7821,-5.7498,-5.704,-5.633,-5.5773,-5.5343,-5.4745,-5.4494,-5.4494,0.0,0.0,-2.5308,-2.5308,-2.5615,-2.6,-2.6505,-2.7198,-2.7813,0.0,0.0,0.0,-2.8967,-2.8621,-2.8049,-2.7236,-2.7121,-2.6774,-2.5885,-2.5846,-2.5692,-2.5308,-2.5308,-2.5308,-2.5308,-2.4962,-2.4962,-2.5308,-2.4962,-2.4962,-2.5308,-2.5808,-2.5808,-2.5423,-2.85,-3.0195,-3.0969,-3.4028,-3.5573,-3.6096,-3.7299,-3.8418,-3.9375,-3.9658,-4.0458,-4.1349,-4.1014,-4.1126,-4.1274,-4.042,-3.9045,-3.7373,-3.559,-3.4327,-3.3262,-3.1961,-3.1143,-3.066,-3.0995,-3.1775,-3.2778,-3.3968,0.0,0.0,-3.8859,-4.0234,0.0,0.0,0.0,0.0,0.0,0.0,0.0,0.0,0.0,0.0,0.0,0.0,0.0,0.0,0.0,0.0,0.0,0.0,0.0,0.0,-5.2961,-5.295,-5.3339,-5.3251,-5.3203,-5.3203,-5.3203,-5.3203,-5.3203,-5.3203,-5.3203,-5.3203,-5.3702,-5.4069,-5.4436,-5.539,-5.6161,-5.6822,-5.7299,-5.7703,-5.7997,-5.7997,-5.7797,-5.7401,-5.6625,-5.6083,-5.5658,-5.4803,-5.4494,-5.4494,0.0,0.0,-2.5308,-2.5308,-2.6,-2.6621,-2.6736,-2.8159,-2.928,0.0,-3.0891,-3.1737,-3.1038,-3.0198,-2.9357,-2.8549,-2.8275,-2.7852,-2.7082,-2.6774,-2.6308,-2.5615,-2.5385,-2.5308,-2.5308,-2.4582,-2.4582,-2.5308,-2.4582,-2.4582,-2.5308,-2.5385,-2.5385,-2.5423,-2.7967,-3.0127,-3.2006,-3.4346,-3.5692,-3.6432,-3.827,-3.9093,-3.9374,-4.0424,-4.1614,-4.2723,-4.198,-4.2203,-4.2686,-4.1869,-4.0606,-3.9231,-3.8302,-3.6519,-3.4513,-3.3436,-3.2109,-3.1106,-3.1663,-3.1886,-3.2295,-3.3782,-3.4822,0.0,-3.8191,-3.8897,0.0,0.0,0.0,0.0,0.0,0.0,0.0,0.0,0.0,0.0,0.0,0.0,0.0,0.0,0.0,0.0,0.0,0.0,-5.1491,-5.2194,-5.2149,-5.243,-5.3151,-5.3203,-5.3203,-5.3203,-5.3203,-5.3203,-5.3203,-5.3203,-5.3203,-5.3203,-5.3203,-5.3592,-5.4289,-5.4363,-5.5244,-5.6675,-5.6748,-5.7262,-5.7997,-5.7997,-5.7997,-5.7904,-5.6731,-5.6303,-5.6166,-5.4957,-5.4494,-5.4494,-2.5308,-2.5308,-2.5308,-2.5308,-2.6,-2.6851,-2.7544,-2.9083,-3.0385,-3.1083,-3.266,-3.3891,-3.4462,-3.3737,-3.2859,-3.2006,-3.0698,-2.9846,-2.9654,-2.7731,-2.6851,-2.7351,-2.6038,-2.5308,-2.5308,-2.5154,-2.5154,-2.5308,-2.5154,-2.5154,-2.5308,-2.6,-2.5962,-2.5423,-2.7967,-3.0435,-3.2737,-3.393,-3.6209,-3.9034,-3.9467,-3.9943,-4.045,-4.1171,-4.2002,-4.276,-4.2612,-4.2686,-4.2686,-4.1869,-4.1386,-4.0828,-3.9342,-3.8525,-3.7596,-3.4773,-3.3733,-3.3262,-3.2109,-3.2258,-3.2853,-3.3187,-3.4376,0.0,-3.6086,-3.7708,-3.9194,0.0,0.0,0.0,0.0,0.0,0.0,0.0,0.0,0.0,0.0,0.0,0.0,0.0,0.0,0.0,0.0,0.0,-5.1231,-5.134,-5.1814,-5.243,-5.3151,-5.3203,-5.3203,-5.3203,-5.3203,-5.3203,-5.3203,-5.3203,-5.3203,-5.3203,-5.3203,-5.3277,-5.3482,-5.4106,-5.4913,-5.5868,-5.6528,-5.7262,-5.7997,-5.7997,-5.7997,-5.7904,-5.6731,-5.6303,-5.6166,-5.4957,-5.4494,-5.4494,-2.5308,-2.5308,-2.5423,-2.5885,-2.6659,-2.7544,-2.8357,-3.0275,-3.1814,-3.2237,-3.4122,-3.5622,-3.6038,-3.5353,-3.4507,-3.3622,-3.2776,-3.1929,-3.1115,-2.9852,-2.8775,-2.7934,-2.6659,-2.5731,-2.5308,-2.5308,-2.5308,-2.5308,-2.5308,-2.5308,-2.5308,-2.5731,-2.5962,-2.6,-2.7736,-3.0121,-3.3006,-3.4276,-3.6911,-4.0148,-3.9899,0.0,-4.1264,-4.2374,-4.3318,-4.4098,-4.4506,-4.4655,-4.4506,-4.3726,-4.3169,-4.2575,-4.1349,-4.0383,-3.9342,-3.7262,-3.6073,-3.5083,-3.3447,-3.3287,-3.351,-3.3113,-3.393,0.0,0.0,-3.6458,-3.7411,0.0,0.0,0.0,0.0,0.0,0.0,0.0,0.0,0.0,0.0,0.0,0.0,0.0,0.0,0.0,0.0,0.0,-4.9677,-5.0358,-5.142,-5.2222,-5.2564,-5.3004,-5.3203,-5.3203,-5.3203,-5.3203,-5.3203,-5.3203,-5.3203,-5.3203,-5.3203,-5.3203,-5.3203,-5.3628,-5.4252,-5.506,-5.5831,-5.6675,-5.7446,-5.7813,-5.7997,-5.7904,-5.6731,-5.6303,-5.6166,-5.4957,-5.4494,-5.4494,-2.5308,-2.5308,-2.5577,-2.6467,-2.7313,-2.828,-2.9434,-3.1621,-3.3391,-3.4045,-3.593,-3.7276,-3.743,-3.6692,-3.5968,-3.5244,-3.4898,-3.4122,-3.2737,-3.2352,-3.1198,-2.8967,-2.7736,-2.6697,-2.5808,-2.5462,-2.5308,-2.5308,-2.5308,-2.5308,-2.5308,-2.5308,-2.5769,-2.6659,-2.7659,-2.989,-3.3006,-3.4923,-3.7502,-4.0377,-4.0484,-4.1105,-4.2141,-4.3847,-4.4851,-4.5472,-4.6275,-4.6541,-4.6401,-4.5918,-4.5175,-4.4358,-4.3726,-4.2389,-4.0903,-3.9863,-3.8414,-3.6816,-3.533,-3.481,-3.4513,-3.3881,-3.4067,-3.4637,0.0,0.0,0.0,0.0,0.0,0.0,0.0,0.0,0.0,0.0,0.0,0.0,0.0,0.0,0.0,0.0,0.0,0.0,0.0,0.0,-4.8123,-4.9379,-5.0792,-5.1667,-5.1977,-5.2637,-5.3041,-5.3203,-5.3203,-5.3203,-5.3203,-5.3203,-5.3203,-5.3203,-5.3203,-5.3203,-5.3203,-5.3203,-5.3665,-5.4436,-5.5244,-5.6051,-5.6859,-5.7666,-5.7997,-5.7904,-5.6731,-5.6303,-5.6166,-5.4957,-5.4494,-5.4494,-2.5308,-2.5308,-2.5577,-2.6467,-2.7313,-2.8698,-3.1044,-3.2891,-3.5129,-3.8169,-3.8823,-3.9284,-3.9977,-3.9361,-3.8823,-3.8746,-3.7315,-3.6346,-3.6154,-3.4737,-3.343,-3.2391,-3.0088,-2.8434,-2.7621,-2.6077,-2.5308,-2.5308,-2.5308,-2.5308,-2.5308,-2.5308,-2.5769,-2.6659,-2.828,-3.0435,-3.3045,-3.55,-3.7849,-4.0057,-4.2226,-4.3163,0.0,-4.5453,-4.596,-4.5744,-4.6555,-4.671,-4.6587,0.0,-4.6884,-4.6178,-4.6104,-4.4915,-4.328,-4.1757,-4.0123,-3.8637,-3.7708,-3.6965,-3.6383,-3.6309,-3.5826,-3.538,-3.5491,0.0,-3.5529,-3.564,0.0,0.0,0.0,0.0,0.0,0.0,0.0,0.0,0.0,0.0,0.0,0.0,0.0,0.0,0.0,0.0,0.0,-4.8661,-4.949,-5.0571,-5.1924,-5.2087,-5.2454,-5.3167,-5.3203,-5.3203,-5.3203,-5.3203,-5.3203,-5.3203,-5.3203,-5.3203,-5.3203,-5.3203,-5.3665,-5.4436,-5.5244,-5.6051,-5.6859,-5.7666,-5.7997,-5.7904,-5.6731,-5.6303,-5.6166,-5.4957,-5.4494,-5.4494,-2.5385,-2.5692,-2.6346,-2.7198,-2.8467,-3.0044,-3.2083,-3.4661,-3.743,-4.0354,-4.0739,-4.1085,-4.1931,-4.1277,-4.0739,-4.0739,-3.9623,-3.87,0.0,-3.7084,-3.5584,-3.3737,-3.1698,-3.0198,-2.939,-2.7192,-2.6308,-2.6813,-2.5808,-2.5308,-2.5308,-2.5308,-2.6038,-2.739,-2.8588,-3.082,-3.3814,-3.6353,-3.9106,0.0,0.0,0.0,0.0,-4.7041,-4.7903,-4.8664,-4.9505,-4.9583,-4.9336,0.0,-4.889,0.0,0.0,-4.6698,-4.5732,-4.3615,-4.25,-4.1571,-3.9825,-3.9096,-3.8613,-3.7634,-3.7151,-3.6792,-3.6309,-3.6197,-3.6049,-3.5603,0.0,0.0,0.0,0.0,0.0,0.0,-3.5826,0.0,0.0,0.0,0.0,0.0,0.0,0.0,0.0,0.0,0.0,0.0,0.0,-4.9247,-4.9811,-5.1206,-5.216,-5.2491,-5.2968,-5.3203,-5.3203,-5.3203,-5.3203,-5.3203,-5.3203,-5.3203,-5.3203,-5.3203,-5.3408,-5.3775,-5.506,-5.5794,-5.6198,-5.7483,-5.7997,-5.7904,-5.6731,-5.6303,-5.6166,-5.4957,-5.4494,-5.4494,-2.6077,-2.6346,-2.6928,-2.8049,-2.9429,-3.1192,-3.3583,-3.6622,-3.9431,-4.1538,-4.22,-4.2739,-4.3355,-4.2854,-4.2508,-4.2508,-4.17,-4.0862,0.0,-3.9623,-3.8277,-3.5706,-3.3968,-3.2462,-3.1115,-2.8582,-2.7582,-2.8242,-2.6505,-2.5769,-2.6,-2.6,-2.6697,-2.7972,-2.9473,-3.1666,-3.4398,-3.7161,-4.0015,-4.2837,-4.5128,-4.7024,-4.8415,-4.8602,-4.9642,-5.1029,-5.1742,-5.1761,-5.1342,-5.0971,-5.0673,0.0,-4.9336,-4.8593,-4.7664,-4.5881,-4.4729,-4.3615,-4.1869,-4.1051,-4.042,-3.9231,-3.8748,-3.8377,-3.7559,-3.7201,-3.6755,-3.5714,-3.5491,0.0,0.0,0.0,-3.4599,-3.393,0.0,-3.4191,0.0,0.0,0.0,0.0,0.0,0.0,0.0,0.0,0.0,0.0,0.0,0.0,-4.8306,-5.0215,-5.1536,-5.1997,-5.2564,-5.3004,-5.3203,-5.3203,-5.3203,-5.3203,-5.3203,-5.3203,-5.3203,-5.3203,-5.3314,-5.3628,-5.4987,-5.5721,-5.6051,-5.7409,-5.7997,-5.7904,-5.6731,-5.6303,-5.6166,-5.4957,-5.4494,-5.4494,-2.7659,-2.7159,-2.7121,-2.878,-2.9813,-3.1808,-3.5962,-3.8777,-4.0746,-4.1692,-4.3201,-4.4239,-4.4239,-4.4239,-4.4201,-4.4201,-4.347,-4.2662,-4.1769,0.0,-4.1816,-3.9246,-3.7469,-3.5391,-3.2852,-3.0319,-2.905,-2.905,-2.739,-2.7005,-2.7818,-2.7818,-2.7857,-2.8049,-3.1314,-3.3314,-3.4436,-3.7822,-4.0096,-4.1676,-4.4215,-4.7204,-5.013,0.0,-5.0909,-5.1882,-5.2189,0.0,0.0,-5.2271,-5.2011,0.0,0.0,0.0,0.0,0.0,0.0,0.0,0.0,0.0,0.0,-4.1497,0.0,0.0,-3.9231,-3.8414,-3.7411,-3.5826,-3.5491,-3.5008,-3.3373,-3.3064,-3.2332,-2.9991,-3.0883,0.0,0.0,0.0,0.0,0.0,0.0,0.0,0.0,0.0,0.0,0.0,0.0,0.0,-4.8269,-4.9187,-5.0381,-5.194,-5.2013,-5.2417,-5.3167,-5.3203,-5.3203,-5.3203,-5.3203,-5.3203,-5.3203,-5.3203,-5.3628,-5.4399,-5.5244,-5.6051,-5.6822,-5.7666,-5.7997,-5.7904,-5.6731,-5.6303,-5.6166,-5.4957,-5.4494,-5.4494,-2.8626,-2.8472,-2.8434,-2.9011,-3.1204,-3.4353,-3.8584,-4.0431,-4.1854,-4.3278,-4.3932,0.0,0.0,-4.6009,-4.624,0.0,0.0,-4.524,-4.4355,-4.4047,0.0,-4.0208,-3.9008,-3.7469,-3.5468,-3.2391,-3.0814,-3.0814,-2.8544,-2.7621,-2.7895,-2.7895,-2.8506,-2.9615,-3.1352,-3.3814,-3.6853,-3.913,-4.2014,0.0,0.0,-5.0668,-5.2209,0.0,0.0,-5.3036,-5.3456,-5.3334,0.0,-5.3311,-5.32,-5.294,-5.2679,-5.2011,-5.1045,-4.9373,-4.811,0.0,0.0,0.0,-4.3912,-4.3318,0.0,0.0,0.0,0.0,0.0,-3.8116,-3.7448,-3.6593,-3.4971,-3.4637,-3.3856,-3.1403,-3.144,-3.1329,0.0,0.0,0.0,0.0,0.0,0.0,0.0,0.0,0.0,0.0,0.0,0.0,0.0,-4.8012,-4.9481,-5.1169,-5.172,-5.238,-5.3167,-5.3203,-5.3203,-5.3203,-5.3203,-5.3203,-5.3203,-5.3203,-5.3665,-5.4436,-5.5244,-5.6051,-5.6859,-5.7666,-5.7997,-5.7904,-5.6731,-5.6303,-5.6166,-5.4957,-5.4494,-5.4494,-2.9506,-2.9544,-2.966,-2.9967,-3.2583,-3.5968,-3.99,-4.1239,0.0,0.0,-4.5278,0.0,-4.7201,0.0,-4.7778,0.0,-4.7192,-4.6778,-4.6509,-4.5701,0.0,-4.2854,-4.17,-3.9969,0.0,-3.4891,-3.3199,-3.2583,-3.0044,-2.8775,-2.8775,-2.8775,-2.939,-3.0462,-3.2269,-3.4891,-3.8123,-4.0123,-4.2893,0.0,0.0,-5.2164,0.0,0.0,-5.4182,-5.4164,0.0,-5.4245,-5.3944,-5.3832,-5.3794,-5.372,-5.32,-5.2828,-5.2308,-5.0673,-4.9782,-4.9039,-4.7701,-4.6773,0.0,-4.5101,-4.4283,0.0,-4.2649,0.0,-4.094,0.0,0.0,0.0,-3.6235,-3.5677,-3.4785,-3.2593,-3.1998,-3.1255,0.0,-2.9842,0.0,0.0,0.0,0.0,0.0,0.0,0.0,0.0,0.0,0.0,0.0,0.0,-4.8526,-4.9884,-5.0986,-5.1977,-5.2784,-5.3078,-5.3203,-5.3203,-5.3203,-5.3203,-5.3203,-5.3203,-5.3812,-5.484,-5.5354,-5.6198,-5.7262,-5.7776,-5.7997,-5.7904,-5.6731,-5.6303,-5.6166,-5.4957,-5.4494,-5.4494,-3.0423,-3.0654,-3.1,-3.1852,-3.4038,0.0,0.0,0.0,-4.2854,0.0,-4.7048,-4.8125,-4.8163,-4.8933,-4.8856,-4.7346,-4.7192,-4.75,-4.824,-4.7509,0.0,0.0,-4.524,-4.2777,-3.9554,0.0,-3.6007,-3.4321,-3.1852,-3.0615,-3.0538,-3.0577,-3.0577,-3.0731,-3.4038,-3.6462,-3.8277,-4.0816,-4.2931,-4.497,-4.9173,-5.1779,-5.3402,-5.4839,-5.539,-5.5301,-5.4971,-5.4635,-5.436,-5.4038,-5.3943,-5.3943,-5.3868,-5.3348,-5.2717,-5.2605,-5.1491,-5.0042,-4.9262,-4.8444,-4.7627,-4.681,0.0,0.0,0.0,0.0,-4.2426,0.0,0.0,0.0,0.0,0.0,-3.512,-3.341,-3.2407,-3.1292,0.0,0.0,0.0,0.0,0.0,0.0,0.0,0.0,0.0,0.0,0.0,0.0,0.0,0.0,-4.7425,-4.8269,-4.9921,-5.1206,-5.1977,-5.2821,-5.3203,-5.3203,-5.3203,-5.3203,-5.3203,-5.3203,-5.4069,-5.5596,-5.5596,-5.6492,-5.7997,-5.7997,-5.7997,-5.7904,-5.6731,-5.6276,-5.6083,-5.4926,-5.4494,-5.4494,-3.316,-3.4237,-3.5346,-3.6238,-3.7469,-3.9238,0.0,0.0,0.0,0.0,-4.7048,-4.8355,-4.9009,-4.9817,-5.0702,-5.151,-5.1587,0.0,0.0,0.0,0.0,-4.7817,-4.5547,-4.3624,-4.2162,-3.9815,-3.7777,-3.6045,-3.4808,-3.3538,-3.2275,-3.2929,-3.3199,-3.3276,-3.4808,-3.7123,-3.9977,-4.1931,-4.5201,-4.925,-5.1625,-5.3203,0.0,0.0,-5.6419,-5.6126,-5.5529,-5.5524,-5.5788,-5.5691,-5.5652,-5.554,-5.4909,-5.4574,-5.4166,-5.294,-5.2308,-5.1788,-5.0971,-5.0153,-4.9336,-4.8519,-4.7664,-4.6884,0.0,0.0,0.0,0.0,0.0,0.0,0.0,0.0,0.0,0.0,0.0,0.0,0.0,0.0,0.0,-2.8876,0.0,0.0,0.0,0.0,0.0,0.0,0.0,0.0,0.0,0.0,0.0,-4.8269,-4.9921,-5.1206,-5.1977,-5.2821,-5.3203,-5.3203,-5.3203,-5.3203,-5.3203,-5.3203,-5.4069,-5.5596,-5.5596,-5.6492,-5.7997,-5.7997,-5.7997,-5.7904,-5.6731,-5.5744,-5.4926,-5.462,-5.4494,-5.4494,-3.4699,-3.643,-3.8084,-3.8931,0.0,0.0,-4.347,0.0,0.0,-4.7634,-4.8663,0.0,-4.9894,-5.1048,-5.1702,-5.1548,-5.1895,0.0,-5.2462,0.0,0.0,-4.924,-4.7855,-4.6009,-4.3662,-4.22,0.0,-3.7853,0.0,-3.5161,-3.3468,-3.3975,-3.4391,-3.4853,-3.6469,-3.8623,-4.1239,-4.4085,-4.7586,-5.1356,-5.2664,0.0,0.0,-5.6522,-5.7004,-5.7017,-5.7028,-5.6784,-5.648,-5.6343,-5.632,-5.6209,-5.5726,-5.5577,-5.5317,-5.4017,-5.3645,-5.3423,-5.2234,-5.1602,-5.1045,-5.019,-4.9373,-4.8556,-4.7738,-4.655,-4.5509,0.0,0.0,0.0,0.0,0.0,0.0,0.0,0.0,0.0,0.0,0.0,0.0,0.0,0.0,0.0,0.0,0.0,0.0,0.0,0.0,0.0,0.0,0.0,0.0,-4.7205,-4.9554,-5.1022,-5.1463,-5.2637,-5.3203,-5.3203,-5.3203,-5.3203,-5.3203,-5.3555,-5.4399,-5.5611,-5.5978,-5.6822,-5.7997,-5.7997,-5.7997,-5.7904,-5.6731,-5.5543,-5.4494,-5.4494,-5.4494,-5.4494,-3.6192,-3.82,-4.0054,-4.0862,0.0,0.0,0.0,-4.571,0.0,-5.0019,0.0,-5.102,-5.102,-5.2433,-5.251,-5.0394,0.0,-5.1972,-5.3433,-5.1972,-5.1097,-5.1212,-5.0789,-4.8826,-4.5201,-4.4816,-4.3085,0.0,-3.8315,-3.6622,-3.486,-3.486,-3.5276,-3.6115,-3.843,-4.0623,-4.2885,-4.6663,-4.9817,-5.2308,-5.2933,-5.428,-5.5972,-5.683,-5.7465,-5.7974,-5.8866,-5.8227,-5.6985,-5.6777,-5.6657,-5.6617,-5.6506,-5.6469,-5.6283,-5.5429,-5.5169,-5.4834,-5.3348,-5.2902,-5.2717,-5.1788,-5.1045,-5.0302,-4.941,-4.8593,-4.7776,-4.6995,-4.5584,-4.4395,0.0,0.0,0.0,0.0,0.0,0.0,0.0,0.0,0.0,0.0,0.0,0.0,0.0,0.0,0.0,0.0,0.0,0.0,0.0,0.0,0.0,-4.5883,-4.8967,0.0,-5.0802,0.0,-5.3093,-5.3203,-5.3203,-5.3203,-5.3203,-5.4032,-5.484,-5.5647,-5.6455,-5.7262,-5.7997,-5.7997,-5.795,-5.7774,-5.6783,-5.5716,-5.4745,-5.4652,-5.462,-5.462,-4.0654,-4.1623,-4.2701,-4.347,-4.4124,-4.5432,-4.8086,-4.925,-4.9519,-4.8663,-5.101,-5.2779,-5.2779,-5.3664,-5.4357,-5.4587,-5.4741,0.0,0.0,0.0,0.0,-5.378,-5.1125,-4.9625,-4.9596,-4.7509,-4.547,0.0,0.0,-4.0739,-3.8399,-3.8399,-3.8476,-3.8661,-3.9785,-4.2777,-4.7086,-4.8548,0.0,-5.401,-5.3433,-5.4626,-5.6868,-5.7742,-5.8347,-5.8904,-5.9759,-5.9495,-5.8746,-5.8709,-5.8497,-5.8178,-5.7509,-5.7286,-5.7138,-5.632,-5.606,-5.5837,-5.4871,-5.4574,-5.424,-5.2754,-5.2271,-5.1974,-5.1156,-5.0302,-4.9447,-4.8667,-4.7738,-4.6438,-4.4395,0.0,0.0,0.0,0.0,0.0,0.0,0.0,0.0,0.0,0.0,0.0,0.0,0.0,0.0,0.0,0.0,0.0,0.0,0.0,0.0,0.0,-4.8435,0.0,0.0,0.0,0.0,-5.3203,-5.3203,-5.3203,-5.3203,-5.4032,-5.484,-5.5647,-5.6455,-5.7262,-5.7997,-5.7997,-5.7726,-5.7241,-5.704,-5.6572,-5.5915,-5.5432,-5.5254,-5.5164,-4.247,-4.3508,-4.4662,-4.5509,-4.674,0.0,0.0,-5.0971,0.0,-5.1548,-5.2472,-5.3356,-5.3818,-5.4626,-5.5126,-5.5088,-5.5088,-5.5241,-5.5665,-5.4549,-5.3857,-5.3818,-5.2664,0.0,-5.0712,-4.9048,-4.7548,-4.6278,0.0,-4.247,-4.1239,-4.0816,-4.0585,-4.07,-4.2854,-4.5932,0.0,0.0,0.0,-5.4549,-5.4972,-5.5895,-5.7137,-5.8434,-5.9045,-5.9358,-6.0252,-6.0199,-5.9701,-5.9343,-5.8967,-5.8624,-5.8252,-5.8141,-5.7955,-5.7175,-5.6915,-5.6729,-5.5912,-5.5689,-5.5391,-5.4166,-5.3831,-5.3534,-5.2308,-5.1714,-5.1156,-5.0376,-4.9187,-4.7701,-4.5658,-4.4321,0.0,0.0,0.0,0.0,0.0,0.0,-3.7721,0.0,0.0,0.0,0.0,0.0,0.0,0.0,0.0,0.0,0.0,0.0,0.0,0.0,0.0,0.0,0.0,0.0,0.0,-5.3203,-5.3203,-5.3203,-5.3261,-5.4473,-5.5207,-5.5647,-5.6895,-5.7629,-5.7997,-5.7997,-5.7618,-5.7116,-5.7116,-5.6783,-5.6221,-5.5601,-5.5402,-5.5313,-4.4393,-4.5509,-4.674,-4.7778,-4.9471,0.0,-4.9586,-5.201,-5.3933,-5.3933,-5.3818,-5.3972,-5.4664,-5.5472,-5.5703,-5.5088,-5.5203,-5.5511,-5.5934,-5.5395,-5.4626,-5.378,-5.4241,-5.3549,-5.1558,-5.0664,-4.9779,0.0,0.0,0.0,-4.2547,-4.2585,-4.2816,0.0,0.0,0.0,0.0,0.0,-5.3895,-5.5126,-5.6291,-5.706,-5.7665,-5.9011,-5.9627,-5.9858,-6.055,-6.0585,-6.0223,-5.9618,-5.914,-5.8784,-5.8784,-5.876,-5.8586,-5.7955,-5.7769,-5.7583,-5.6766,-5.658,-5.6357,-5.5503,-5.528,-5.4909,-5.346,-5.3125,-5.2828,-5.1862,-5.0339,-4.8704,-4.7293,-4.6364,0.0,0.0,0.0,0.0,0.0,0.0,0.0,0.0,0.0,0.0,0.0,0.0,0.0,0.0,0.0,0.0,0.0,0.0,0.0,0.0,0.0,-4.9667,-5.0785,0.0,-5.2234,0.0,-5.3203,-5.3277,-5.3518,-5.495,-5.5684,-5.5941,-5.7373,-5.7997,-5.7997,-5.7997,-5.7726,-5.729,-5.729,-5.704,-5.6572,-5.5858,-5.5572,-5.549,-4.8663,-4.8933,-4.9548,0.0,0.0,0.0,-5.3587,-5.2895,-5.2154,-5.2154,-5.4087,-5.5511,-5.5588,-5.6368,-5.6868,-5.6791,-5.7473,-5.7627,-5.6945,-5.683,-5.6368,-5.5511,-5.4857,-5.4395,-5.4164,-5.328,-5.2433,0.0,0.0,0.0,0.0,-4.3825,-4.6047,0.0,0.0,0.0,0.0,-5.3126,-5.4587,-5.6714,-5.6088,-5.7203,-5.9281,-5.9435,-5.9973,-6.0704,-6.0781,-6.0585,-6.0293,-6.0237,-5.9717,-5.9159,-5.9159,-5.8927,-5.8698,-5.8624,-5.8586,-5.8401,-5.7621,-5.7398,-5.7212,-5.6395,-5.6172,-5.5949,-5.4983,-5.4797,-5.4351,-5.2791,-5.1156,-4.9707,-4.8853,-4.8036,-4.7218,0.0,0.0,0.0,0.0,0.0,-4.146,-4.1386,0.0,0.0,0.0,0.0,0.0,0.0,0.0,0.0,0.0,0.0,0.0,-4.6027,0.0,-4.8604,-5.0885,-5.0916,0.0,-5.3203,-5.3203,-5.3592,-5.4326,-5.5207,-5.5978,-5.6748,-5.7629,-5.7997,-5.7997,-5.7997,-5.7973,-5.7927,-5.7927,-5.7904,-5.7703,-5.6625,-5.6221,-5.6055,0.0,0.0,0.0,0.0,0.0,0.0,0.0,-5.3972,-5.4164,-5.4164,-5.5049,-5.5895,-5.6406,-5.7242,-5.778,-5.778,-5.8088,-5.8165,-5.778,-5.778,-5.7396,-5.6522,-5.6175,-5.5742,-5.5241,-5.3895,-5.328,0.0,0.0,0.0,0.0,0.0,0.0,0.0,0.0,-5.2856,-5.401,-5.4511,-5.5588,-5.7022,-5.7203,-5.8165,-5.955,-6.0089,-6.0512,-6.0781,-6.0781,-6.0722,-6.0585,-6.0585,-6.0127,-5.9554,-5.9554,-5.9289,-5.9006,-5.9006,-5.8865,-5.8624,-5.8326,-5.8215,-5.8029,-5.7212,-5.7026,-5.6803,-5.5986,-5.58,-5.5466,-5.4277,-5.2754,-5.1342,-5.0562,-5.0153,-4.9485,0.0,0.0,0.0,0.0,0.0,0.0,-4.3801,0.0,-4.2092,0.0,0.0,0.0,0.0,0.0,0.0,0.0,0.0,0.0,-4.6152,0.0,-4.9433,-5.0905,-5.132,-5.2087,-5.3203,-5.3203,-5.3628,-5.4436,-5.5207,-5.6308,-5.7556,-5.785,-5.7997,-5.7997,-5.7997,-5.7997,-5.7997,-5.7997,-5.7997,-5.7844,-5.6704,-5.6303,-5.6138,-5.251,0.0,-5.2933,0.0,-5.4434,-5.4741,-5.4357,-5.5318,-5.6165,-5.6434,-5.6665,-5.6973,-5.7319,-5.8127,-5.8665,-5.8665,-5.8896,-5.8934,-5.8665,-5.8665,-5.828,-5.7434,-5.7357,0.0,-5.6088,-5.4934,-5.4472,-5.4857,-5.2818,0.0,0.0,-4.9327,0.0,0.0,-5.3318,-5.4203,-5.528,-5.5818,-5.6703,-5.778,-5.8396,-5.9165,-5.9935,-6.055,-6.0781,-6.0781,-6.0781,-6.0781,-6.0781,-6.0781,-6.0494,-6.0091,-6.0,-5.9689,-5.9361,-5.9234,-5.9045,-5.8825,-5.8719,-5.8698,-5.8549,-5.7992,-5.7843,-5.7658,-5.684,-5.6655,-5.6357,-5.5243,-5.4091,-5.2977,-5.1936,-5.1751,-5.1305,-4.9856,0.0,0.0,0.0,-4.629,0.0,-4.5658,-4.4915,-4.4246,-4.3912,0.0,0.0,0.0,0.0,0.0,0.0,0.0,0.0,0.0,0.0,0.0,0.0,-5.1674,-5.2422,-5.3203,-5.3445,-5.3959,-5.4803,-5.5831,-5.6932,-5.7997,-5.7997,-5.7997,-5.7997,-5.7997,-5.7997,-5.7997,-5.7997,-5.7997,-5.7844,-5.6704,-5.6303,-5.6138,-5.428,-5.4472,-5.4703,-5.5511,-5.5665,-5.5972,-5.683,-5.6983,-5.728,-5.8165,-5.8973,-5.9165,-5.8357,-5.9011,-5.9473,-5.9473,-6.0281,-6.0396,-5.955,-5.9473,-5.9127,0.0,0.0,-5.7896,-5.6983,-5.6945,-5.656,-5.5703,0.0,0.0,-4.6923,-4.6047,-4.8826,-5.4472,-5.4472,-5.5395,-5.6983,-5.6983,-5.7934,-5.9473,-5.9473,-6.0012,-6.0781,-6.0781,-6.0781,-6.0781,-6.0781,-6.0781,-6.0781,-6.0781,-6.0781,-6.0734,-6.039,-6.0076,-5.9689,-5.9325,-5.9215,-5.9122,-5.8764,-5.8698,-5.8698,-5.8698,-5.8698,-5.8475,-5.7695,-5.7509,-5.7026,-5.5354,-5.4983,-5.45,-5.2865,-5.2605,-5.2308,-5.1491,0.0,0.0,0.0,-4.7478,0.0,-4.6475,-4.5769,-4.5584,-4.6364,0.0,0.0,0.0,0.0,0.0,0.0,0.0,0.0,-4.7545,-4.8379,0.0,-5.108,-5.1758,-5.2467,-5.3203,-5.3995,-5.4803,-5.5647,-5.7226,-5.796,-5.7997,-5.7997,-5.7997,-5.7997,-5.7997,-5.7997,-5.7997,-5.7997,-5.7997,-5.7844,-5.6704,-5.6303,-5.6138,-5.5241,-5.5318,-5.5588,-5.6445,-5.6599,-5.6868,-5.7742,-5.7896,-5.8165,-5.9011,-5.9358,-5.9627,-5.9973,-6.0242,-6.0396,0.0,-6.0627,-6.0666,0.0,-6.0396,-6.0012,-5.9165,-5.9127,-5.8742,-5.7896,-5.7896,-5.7473,-5.6599,0.0,0.0,0.0,-5.2049,-5.2972,-5.5318,-5.5945,-5.6522,-5.706,-5.7627,-5.8511,-5.9511,-5.9511,-6.0012,-6.0781,-6.0781,-6.0781,-6.0781,-6.0781,-6.0781,-6.0781,-6.0781,-6.0781,-6.0769,-6.0685,-6.039,-6.0135,-5.9992,-5.9788,-5.952,-5.9122,-5.9045,-5.8986,-5.876,-5.8698,-5.8624,-5.8401,-5.7881,-5.736,-5.6803,-5.6283,-5.554,-5.4463,-5.424,-5.3794,-5.2457,-5.1788,0.0,0.0,0.0,-4.8147,-4.8147,-4.6921,-4.6215,0.0,-4.6252,0.0,0.0,0.0,0.0,0.0,0.0,0.0,0.0,-4.9731,0.0,-5.1989,-5.2589,-5.304,-5.3293,-5.4038,-5.5097,-5.6455,-5.7519,-5.7997,-5.7997,-5.7997,-5.7997,-5.7997,-5.7997,-5.7997,-5.7997,-5.7997,-5.7997,-5.7844,-5.6704,-5.6303,-5.6138,-5.6665,-5.6665,-5.6857,-5.7396,-5.7473,-5.778,-5.8627,-5.8742,-5.905,-5.9896,-5.9973,-6.0204,-6.0742,-6.0781,0.0,-6.0781,-6.0781,-6.0781,-6.0781,-6.0781,-6.055,-6.0012,-5.9973,-5.9588,-5.8781,0.0,0.0,-5.7473,-5.7473,-5.7203,-5.6665,-5.6165,-5.6203,-5.6703,-5.7242,-5.7665,-5.7973,-5.8511,-5.9242,-5.9973,-5.9973,-6.0319,-6.0781,-6.0781,-6.0781,-6.0781,-6.0781,-6.0781,-6.0781,-6.0781,-6.0781,-6.0781,-6.0781,-6.0673,-6.0481,-6.0335,-6.0165,-5.9868,-5.9361,-5.9215,-5.9103,-5.8764,-5.8698,-5.8698,-5.8698,-5.8326,-5.7881,-5.7583,-5.71,-5.6506,-5.5652,-5.5243,-5.4686,-5.3683,-5.2977,-5.2419,-5.1936,0.0,-4.9856,0.0,0.0,0.0,0.0,-4.8036,0.0,0.0,0.0,0.0,0.0,0.0,0.0,-4.9336,-5.0898,0.0,-5.2398,-5.3055,-5.3506,-5.376,-5.481,-5.5978,-5.7262,-5.7776,-5.7997,-5.7997,-5.7997,-5.7997,-5.7997,-5.7997,-5.7997,-5.7997,-5.7997,-5.7997,-5.7904,-5.6938,-5.6599,-5.6465,-5.8319,-5.8319,0.0,0.0,-5.8396,0.0,-5.9473,-5.9588,-5.9896,-6.0704,-6.0781,-6.0781,-6.0781,-6.0781,-6.0781,-6.0781,0.0,0.0,0.0,-6.0781,-6.0781,-6.0781,-6.0781,-6.0435,-5.9627,-5.9588,-5.9204,-5.8396,-5.8319,-5.8319,-5.8319,-5.8319,-5.8319,-5.8319,-5.8357,-5.8819,-5.9511,-5.955,-6.005,-6.0781,-6.0781,-6.0781,-6.0781,-6.0781,-6.0781,-6.0781,-6.0781,-6.0781,-6.0781,-6.0781,-6.0781,-6.0781,-6.0781,-6.0781,-6.0734,-6.0441,-6.0335,-6.0194,-5.9447,-5.927,-5.9159,-5.8805,-5.8719,-5.8698,-5.8698,-5.8698,-5.8512,-5.7732,-5.7583,-5.736,-5.6543,-5.5726,-5.5169,-5.5094,-5.3794,-5.2791,-5.2791,0.0,-5.1491,0.0,0.0,0.0,0.0,-5.0673,-5.019,0.0,0.0,0.0,0.0,0.0,-4.9522,-5.0265,-5.1788,-5.2549,-5.2491,-5.3171,-5.3883,-5.4607,-5.6095,-5.7226,-5.7997,-5.7997,-5.7997,-5.7997,-5.7997,-5.7997,-5.7997,-5.7997,-5.7997,-5.7997,-5.7997,-5.7997,-5.795,-5.7315,-5.7116,-5.704,0.0,0.0,-5.8511,-5.9127,-5.9204,-5.9511,-6.0358,-6.0473,-6.055,-6.0781,-6.0781,-6.0781,-6.0781,-6.0781,-6.0781,-6.0781,-6.0781,-6.0781,-6.0781,-6.0781,-6.0781,-6.0781,-6.0781,-6.0704,-6.0512,-6.0473,-6.0089,-5.9204,-5.8588,-5.8319,-5.8319,-5.8319,-5.8319,-5.8319,-5.8934,-5.9319,-5.955,-6.0204,-6.0589,-6.0781,-6.0781,-6.0781,-6.0781,-6.0781,-6.0781,-6.0781,-6.0781,-6.0781,-6.0781,-6.0781,-6.0781,-6.0781,-6.0781,-6.0781,-6.0769,-6.071,-6.0697,-6.0585,-6.0141,-5.9852,-5.9554,-5.9159,-5.8905,-5.8698,-5.8698,-5.8698,-5.8661,-5.8475,-5.8438,-5.8178,-5.736,-5.7063,-5.6729,-5.6097,-5.5131,-5.4426,-5.4426,-5.32,0.0,0.0,-5.1788,-5.1416,-5.1416,-5.1193,-5.1082,0.0,0.0,0.0,0.0,-5.1491,-5.1825,-5.2011,-5.2382,-5.2884,-5.3459,-5.3565,-5.4277,-5.5506,-5.6389,-5.7226,-5.7997,-5.7997,-5.7997,-5.7997,-5.7997,-5.7997,-5.7997,-5.7997,-5.7997,-5.7997,-5.7997,-5.7997,-5.795,-5.7315,-5.7116,-5.704,-5.9435,-5.9435,-5.9588,-6.0012,-6.0089,-6.0242,-6.0742,-6.0781,-6.0781,-6.0781,-6.0781,-6.0781,-6.0781,-6.0781,-6.0781,-6.0781,-6.0781,-6.0781,-6.0781,-6.0781,-6.0781,-6.0781,-6.0781,-6.0781,-6.0781,-6.0781,-6.055,-6.0089,-5.9665,-5.9435,-5.9435,-5.9435,-5.9435,-5.9473,-5.9896,-6.0089,-6.0127,-6.0589,-6.0781,-6.0781,-6.0781,-6.0781,-6.0781,-6.0781,-6.0781,-6.0781,-6.0781,-6.0781,-6.0781,-6.0781,-6.0781,-6.0781,-6.0781,-6.0781,-6.0781,-6.0781,-6.0781,-6.0734,-6.0376,-6.0179,-5.9884,-5.9361,-5.8927,-5.8698,-5.8698,-5.8698,-5.8698,-5.8698,-5.8698,-5.8586,-5.8141,-5.7769,-5.736,-5.6915,-5.6134,-5.5466,-5.5057,-5.424,0.0,-5.32,-5.2754,-5.2494,-5.2494,-5.2159,-5.1936,-5.1936,0.0,0.0,-5.1936,-5.2717,-5.2977,-5.2605,-5.2977,-5.3348,-5.3794,-5.4417,-5.5254,-5.6374,-5.7014,-5.7593,-5.7997,-5.7997,-5.7997,-5.7997,-5.7997,-5.7997,-5.7997,-5.7997,-5.7997,-5.7997,-5.7997,-5.7997,-5.7973,-5.7618,-5.7498,-5.7474,-6.0781,-6.0781,-6.0781,-6.0781,-6.0781,-6.0781,-6.0781,-6.0781,-6.0781,-6.0781,-6.0781,-6.0781,-6.0781,-6.0781,-6.0781,-6.0781,-6.0781,-6.0781,-6.0781,-6.0781,-6.0781,-6.0781,-6.0781,-6.0781,-6.0781,-6.0781,-6.0781,-6.0781,-6.0781,-6.0781,-6.0781,-6.0781,-6.0781,-6.0781,-6.0781,-6.0781,-6.0781,-6.0781,-6.0781,-6.0781,-6.0781,-6.0781,-6.0781,-6.0781,-6.0781,-6.0781,-6.0781,-6.0781,-6.0781,-6.0781,-6.0781,-6.0781,-6.0781,-6.0781,-6.0781,-6.0781,-6.0781,-6.0734,-6.0468,-6.0293,-6.0053,-5.9359,-5.8927,-5.8698,-5.8698,-5.8698,-5.8698,-5.8698,-5.8698,-5.8698,-5.8698,-5.8141,-5.7695,-5.7695,-5.7026,-5.6209,-5.5503,0.0,-5.4946,-5.4277,-5.4054,-5.398,-5.398,-5.3237,-5.2791,-5.2791,-5.2791,-5.2791,0.0,-5.3534,-5.3683,-5.2977,-5.3608,-5.4054,-5.4203,-5.5431,-5.6409,-5.7022,-5.7698,-5.7997,-5.7997,-5.7997,-5.7997,-5.7997,-5.7997,-5.7997,-5.7997,-5.7997,-5.7997,-5.7997,-5.7997,-5.7997,-5.7997,-5.7997,-5.7997,-5.7997,-6.0781,-6.0781,-6.0781,-6.0781,-6.0781,-6.0781,-6.0781,-6.0781,-6.0781,-6.0781,-6.0781,-6.0781,-6.0781,-6.0781,-6.0781,-6.0781,-6.0781,-6.0781,-6.0781,-6.0781,-6.0781,-6.0781,-6.0781,-6.0781,-6.0781,-6.0781,-6.0781,-6.0781,-6.0781,-6.0781,-6.0781,-6.0781,-6.0781,-6.0781,-6.0781,-6.0781,-6.0781,-6.0781,-6.0781,-6.0781,-6.0781,-6.0781,-6.0781,-6.0781,-6.0781,-6.0781,-6.0781,-6.0781,-6.0781,-6.0781,-6.0781,-6.0781,-6.0781,-6.0781,-6.0781,-6.0781,-6.0781,-6.0781,-6.0734,-6.0307,-5.9755,-5.9325,-5.8927,-5.8698,-5.8698,-5.8698,-5.8698,-5.8698,-5.8698,-5.8698,-5.8698,-5.8624,-5.8512,-5.8512,-5.7843,-5.7286,-5.7138,0.0,-5.606,-5.5949,-5.528,-5.4834,-5.4834,-5.4091,-5.3608,-5.3608,-5.3608,-5.3608,-5.3608,-5.4388,-5.476,-5.4648,-5.476,-5.5169,-5.5912,-5.6578,-5.6968,-5.7094,-5.7706,-5.7997,-5.7997,-5.7997,-5.7997,-5.7997,-5.7997,-5.7997,-5.7997,-5.7997,-5.7997,-5.7997,-5.7997,-5.7997,-5.7997,-5.7997,-5.7997,-5.7997,-6.0781,-6.0781,-6.0781,-6.0781,-6.0781,-6.0781,-6.0781,-6.0781,-6.0781,-6.0781,-6.0781,-6.0781,-6.0781,-6.0781,-6.0973,-6.1447,-6.1512,-6.1666,-6.2127,-6.1281,-6.0781,-6.0781,-6.0781,-6.0781,-6.0781,-6.0781,-6.0781,-6.0781,-6.0781,-6.0781,-6.0781,-6.0781,-6.0781,-6.0781,-6.0781,-6.0781,-6.0781,-6.0781,-6.0781,-6.0781,-6.0781,-6.0781,-6.0781,-6.0781,-6.0781,-6.0781,-6.0781,-6.0781,-6.0781,-6.0781,-6.0781,-6.0781,-6.0781,-6.0781,-6.0781,-6.0781,-6.0781,-6.0781,-6.0781,-6.0416,-5.9962,-5.9622,-5.9234,-5.8908,-5.8739,-5.8698,-5.8698,-5.8698,-5.8698,-5.8698,-5.8698,-5.8698,-5.8698,-5.8698,-5.8401,0.0,0.0,-5.7175,-5.6803,-5.6357,-5.5949,-5.5689,-5.5689,-5.5354,-5.5169,-5.5169,-5.5169,-5.5169,-5.5169,-5.5503,-5.5689,-5.5689,-5.5689,-5.6097,-5.6952,-5.7059,-5.7359,-5.7802,-5.7927,-5.7997,-5.7997,-5.7997,-5.7997,-5.7997,-5.7997,-5.7997,-5.7997,-5.7997,-5.7997,-5.7997,-5.7997,-5.7997,-5.7997,-5.7997,-5.7997,-5.7997,-6.0781,-6.0781,-6.0781,-6.0781,-6.0781,-6.0781,-6.0781,-6.0781,-6.0781,-6.0781,-6.0973,-6.1089,-6.1089,-6.1281,-6.1666,-6.232,-6.2358,-6.2627,-6.3281,-6.2089,-6.1396,-6.1396,-6.1396,-6.1396,-6.1396,-6.1396,-6.1281,-6.1089,-6.1089,-6.1012,-6.0781,-6.0781,-6.0781,-6.0781,-6.0781,-6.0781,-6.0781,-6.0781,-6.0781,-6.0781,-6.0781,-6.0781,-6.0781,-6.0781,-6.0781,-6.0781,-6.0781,-6.0781,-6.0781,-6.0781,-6.0781,-6.0781,-6.0781,-6.0781,-6.0781,-6.0781,-6.0781,-6.0781,-6.0781,-6.0507,-6.0135,-5.9874,-5.9432,-5.9025,-5.876,-5.8698,-5.8698,-5.8698,-5.8698,-5.8698,-5.8698,-5.8698,-5.8698,-5.8698,0.0,-5.8475,0.0,-5.7769,-5.7546,-5.6952,-5.6692,-5.658,-5.658,-5.6432,-5.632,-5.632,-5.632,-5.632,-5.632,-5.6469,-5.6655,-5.684,-5.6692,-5.6932,-5.7728,-5.7518,-5.7728,-5.8393,-5.8111,-5.802,-5.8042,-5.802,-5.7997,-5.7997,-5.7997,-5.7997,-5.7997,-5.7997,-5.7997,-5.7997,-5.7997,-5.7997,-5.7997,-5.7997,-5.7997,-5.7997,-6.0781,-6.0781,-6.0781,-6.0781,-6.0781,-6.0781,-6.0781,-6.0781,-6.0781,-6.0781,-6.1512,-6.1985,-6.1985,-6.2666,-6.3115,-6.3205,-6.3205,-6.3243,-6.3308,-6.3192,-6.3128,-6.3128,-6.3128,-6.3128,-6.3128,-6.3128,-6.2743,-6.1985,-6.1985,-6.1601,-6.0781,-6.0781,-6.0781,-6.0781,-6.0781,-6.0781,-6.0781,-6.0781,-6.0781,-6.0781,-6.0781,-6.0781,-6.0781,-6.0781,-6.0781,-6.0781,-6.0781,-6.0781,-6.0781,-6.0781,-6.0781,-6.0781,-6.0781,-6.0781,-6.0781,-6.0781,-6.0781,-6.0781,-6.0781,-6.0321,-5.9842,-5.9826,-5.9271,-5.8739,-5.8698,-5.8698,-5.8698,-5.8698,-5.8698,-5.8698,-5.8698,-5.8698,-5.8698,-5.8698,0.0,0.0,-5.8624,-5.8624,-5.8586,-5.8549,-5.7881,-5.7398,-5.7398,-5.6729,-5.632,-5.632,-5.632,-5.632,-5.632,-5.7026,-5.7769,-5.8512,-5.7806,-5.7744,-5.8418,-5.8348,-5.8319,-5.8393,-5.8111,-5.8065,-5.8156,-5.8042,-5.7997,-5.7997,-5.7997,-5.7997,-5.7997,-5.7997,-5.7997,-5.7997,-5.7997,-5.7997,-5.7997,-5.7997,-5.7997,-5.7997,-6.0781,-6.0781,-6.0781,-6.0781,-6.0781,-6.0781,-6.0781,-6.1243,-6.1601,-6.1601,-6.232,-6.2858,-6.2858,-6.3128,-6.3512,-6.4051,-6.4128,-6.4359,-6.4897,-6.4897,-6.4436,-6.3346,-6.3308,-6.3308,-6.3308,-6.3308,-6.3166,-6.2858,-6.2858,-6.2666,-6.2358,-6.2358,-6.2358,-6.232,-6.182,-6.1601,-6.1562,-6.1012,-6.0781,-6.0781,-6.0781,-6.0781,-6.0781,-6.0781,-6.0781,-6.0781,-6.0781,-6.0781,-6.0781,-6.0781,-6.0781,-6.0781,-6.0781,-6.0781,-6.0781,-6.0781,-6.0781,-6.0781,-6.0781,-6.0481,-6.0076,-5.9858,-5.9397,-5.8947,-5.876,-5.8698,-5.8698,-5.8698,-5.8698,-5.8698,-5.8698,-5.8698,-5.8698,-5.8698,0.0,-5.8698,-5.8698,-5.8698,-5.8698,-5.8698,-5.8438,-5.8252,-5.8252,-5.7992,-5.7806,-5.7806,-5.7806,-5.7806,-5.7806,-5.8103,-5.8401,-5.8698,-5.8401,-5.838,-5.8635,-5.8508,-5.8465,-5.8465,-5.8223,-5.8133,-5.8215,-5.8065,-5.7997,-5.7997,-5.7997,-5.7997,-5.7997,-5.7997,-5.7997,-5.7997,-5.7997,-5.7997,-5.7997,-5.7997,-5.7997,-5.7997,-6.0781,-6.0781,-6.0896,-6.1166,-6.1204,-6.1281,-6.155,-6.2089,-6.2474,-6.2474,-6.3205,-6.3705,-6.3705,-6.3935,-6.4359,-6.4974,-6.5013,-6.5243,-6.5859,-6.5897,-6.5359,-6.4166,-6.4128,-6.4128,-6.4128,-6.4128,-6.3974,-6.3705,-6.3705,-6.3589,-6.3308,-6.3308,-6.3308,-6.3281,-6.2704,-6.232,-6.2062,-6.1447,-6.105,-6.0781,-6.0781,-6.0781,-6.0781,-6.0781,-6.0781,-6.0781,-6.0781,-6.0781,-6.0781,-6.0781,-6.0781,-6.0781,-6.0781,-6.0781,-6.0781,-6.0781,-6.0781,-6.0781,-6.0781,-6.0559,-6.0223,-5.989,-5.9415,-5.8986,-5.876,-5.8698,-5.8698,-5.8698,-5.8698,-5.8698,-5.8698,-5.8698,-5.8698,-5.8698,-5.8698,-5.8698,-5.8698,-5.8698,-5.8698,-5.8698,-5.8698,-5.8698,-5.8698,-5.8698,-5.8698,-5.8698,-5.8698,-5.8698,-5.8698,-5.8698,-5.8698,-5.8698,-5.8698,-5.8698,-5.8698,-5.8551,-5.8486,-5.8508,-5.8246,-5.8156,-5.826,-5.8065,-5.7997,-5.7997,-5.7997,-5.7997,-5.7997,-5.7997,-5.7997,-5.7997,-5.7997,-5.7997,-5.7997,-5.7997,-5.7997,-5.7997,-6.0819,-6.0819,-6.1089,-6.1947,-6.2101,-6.2358,-6.3166,-6.3308,-6.3308,-6.3308,-6.4089,-6.4628,-6.4628,-6.5397,-6.5897,-6.5897,-6.5897,-6.5897,-6.5897,-6.5897,-6.5897,-6.5897,-6.5897,-6.5897,-6.5897,-6.5897,-6.5474,-6.4628,-6.4628,-6.4166,-6.332,-6.332,-6.332,-6.332,-6.3308,-6.2858,-6.2101,-6.2101,-6.1601,-6.0781,-6.0781,-6.0781,-6.0781,-6.0781,-6.0781,-6.0781,-6.0781,-6.0781,-6.0781,-6.0781,-6.0781,-6.0781,-6.0781,-6.0781,-6.0781,-6.0781,-6.0781,-6.0781,-6.0781,-6.0559,-6.0223,-5.989,-5.9253,-5.8698,-5.8698,-5.8698,-5.8698,-5.8698,-5.8698,-5.8698,-5.8698,-5.8698,-5.8698,-5.8698,-5.8698,-5.8698,-5.8698,-5.8698,-5.8698,-5.8698,-5.8698,-5.8698,-5.8698,-5.8698,-5.8698,-5.8698,-5.8698,-5.8698,-5.8698,-5.8698,-5.8698,-5.8698,-5.8698,-5.8698,-5.8698,-5.8502,-5.8422,-5.8508,-5.8179,-5.8133,-5.8393,-5.8111,-5.7997,-5.7997,-5.7997,-5.7997,-5.7997,-5.7997,-5.7997,-5.7997,-5.7997,-5.7997,-5.7997,-5.7997,-5.7997,-5.7997,-6.2551,-6.2551,-6.2627,-6.2897,-6.2935,-6.3012,-6.3281,-6.382,-6.4205,-6.4205,-6.4974,-6.5513,-6.5513,-6.5743,-6.5897,-6.5897,-6.5897,-6.5897,-6.5897,-6.5897,-6.5897,-6.5897,-6.5897,-6.5897,-6.5897,-6.5897,-6.5782,-6.5513,-6.5513,-6.5397,-6.5128,-6.5128,-6.5128,-6.5089,-6.4474,-6.3743,-6.2897,-6.232,-6.1601,-6.0781,-6.0781,-6.0781,-6.0781,-6.0781,-6.0781,-6.0781,-6.0781,-6.0781,-6.0781,-6.0781,-6.0781,-6.0781,-6.0781,-6.0781,-6.0781,-6.0781,-6.0781,-6.0781,-6.0781,-6.0559,-6.0223,-5.989,-5.9415,-5.8986,-5.876,-5.8698,-5.8698,-5.8698,-5.8698,-5.8698,-5.8698,-5.8698,-5.8698,-5.8698,-5.8698,-5.8698,-5.8698,-5.8698,-5.8698,-5.8698,-5.8698,-5.8698,-5.8698,-5.8698,-5.8698,-5.8698,-5.8698,-5.8698,-5.8698,-5.8698,-5.8698,-5.8698,-5.8698,-5.8698,-5.8698,-5.8551,-5.8486,-5.8508,-5.8334,-5.8282,-5.826,-5.8193,-5.8088,-5.7997,-5.7997,-5.7997,-5.7997,-5.7997,-5.7997,-5.7997,-5.7997,-5.7997,-5.7997,-5.7997,-5.7997,-5.7997,-6.3308,-6.3308,-6.3423,-6.3743,-6.382,-6.3935,-6.4282,-6.4782,-6.5128,-6.5128,-6.5551,-6.5897,-6.5897,-6.5897,-6.5897,-6.5897,-6.5897,-6.5897,-6.5897,-6.5897,-6.5897,-6.5897,-6.5897,-6.5897,-6.5897,-6.5897,-6.5897,-6.5897,-6.5897,-6.5897,-6.5897,-6.5897,-6.5897,-6.5859,-6.5359,-6.4436,-6.3281,-6.2781,-6.1897,-6.0781,-6.0781,-6.0781,-6.0781,-6.0781,-6.0781,-6.0781,-6.0781,-6.0781,-6.0781,-6.0781,-6.0781,-6.0781,-6.0781,-6.0781,-6.0781,-6.0781,-6.0781,-6.0781,-6.0781,-6.0634,-6.0376,-5.9937,-5.9502,-5.9103,-5.8801,-5.8698,-5.8698,-5.8698,-5.8698,-5.8698,-5.8698,-5.8698,-5.8698,-5.8698,-5.8698,-5.8698,-5.8698,-5.8698,-5.8698,-5.8698,-5.8698,-5.8698,-5.8698,-5.8698,-5.8698,-5.8698,-5.8698,-5.8698,-5.8698,-5.8698,-5.8698,-5.8698,-5.8698,-5.8698,-5.8698,-5.8572,-5.8492,-5.8492,-5.8459,-5.8349,-5.8282,-5.8201,-5.8133,-5.8065,-5.802,-5.7997,-5.7997,-5.7997,-5.7997,-5.7997,-5.7997,-5.7997,-5.7997,-5.7997,-5.7997,-5.7997,-6.3538,-6.3538,-6.3782,-6.4589,-6.4705,-6.4974,-6.5782,-6.5897,-6.5897,-6.5897,-6.5897,-6.5897,-6.5897,-6.5897,-6.5897,-6.5897,-6.5897,-6.5897,-6.5897,-6.5897,-6.5897,-6.5897,-6.5897,-6.5897,-6.5897,-6.5897,-6.5897,-6.5897,-6.5897,-6.5897,-6.5897,-6.5897,-6.5897,-6.5897,-6.5897,-6.4936,-6.3308,-6.3308,-6.232,-6.0781,-6.0781,-6.0781,-6.0781,-6.0781,-6.0781,-6.0781,-6.0781,-6.0781,-6.0781,-6.0781,-6.0781,-6.0781,-6.0781,-6.0781,-6.0781,-6.0781,-6.0781,-6.0781,-6.0781,-6.0781,-6.0622,-5.9984,-5.952,-5.914,-5.8764,-5.8698,-5.8698,-5.8698,-5.8698,-5.8698,-5.8698,-5.8698,-5.8698,-5.8698,-5.8698,-5.8698,-5.8698,-5.8698,-5.8698,-5.8698,-5.8698,-5.8698,-5.8698,-5.8698,-5.8698,-5.8698,-5.8698,-5.8698,-5.8698,-5.8698,-5.8698,-5.8698,-5.8698,-5.8698,-5.8698,-5.8593,-5.8492,-5.8492,-5.8459,-5.8393,-5.8393,-5.8282,-5.8179,-5.8179,-5.8065,-5.7997,-5.7997,-5.7997,-5.7997,-5.7997,-5.7997,-5.7997,-5.7997,-5.7997,-5.7997,-5.7997,-6.532,-6.532,-6.5397,-6.559,-6.5628,-6.5667,-6.5859,-6.5897,-6.5897,-6.5897,-6.5897,-6.5897,-6.5897,-6.5897,-6.5897,-6.5897,-6.5897,-6.5897,-6.5897,-6.5897,-6.5897,-6.5897,-6.5897,-6.5897,-6.5897,-6.5897,-6.5897,-6.5897,-6.5897,-6.5897,-6.5897,-6.5897,-6.5897,-6.5897,-6.5897,-6.4936,-6.3308,-6.3308,-6.232,-6.0781,-6.0781,-6.0781,-6.0781,-6.0781,-6.0781,-6.0781,-6.0781,-6.0781,-6.0781,-6.0781,-6.0781,-6.0781,-6.0781,-6.0781,-6.0781,-6.0781,-6.0781,-6.0781,-6.0781,-6.0781,-6.0622,-5.9984,-5.9723,-5.9485,-5.8825,-5.8698,-5.8698,-5.8698,-5.8698,-5.8698,-5.8698,-5.8698,-5.8698,-5.8698,-5.8698,-5.8698,-5.8698,-5.8698,-5.8698,-5.8698,-5.8698,-5.8698,-5.8698,-5.8698,-5.8698,-5.8698,-5.8698,-5.8698,-5.8698,-5.8698,-5.8698,-5.8698,-5.8698,-5.8698,-5.8698,-5.8656,-5.8614,-5.8492,-5.8459,-5.8393,-5.8393,-5.8282,-5.8179,-5.8179,-5.8065,-5.7997,-5.7997,-5.7997,-5.7997,-5.7997,-5.7997,-5.7997,-5.7997,-5.7997,-5.7997,-5.7997,-6.5897,-6.5897,-6.5897,-6.5897,-6.5897,-6.5897,-6.5897,-6.5897,-6.5897,-6.5897,-6.5897,-6.5897,-6.5897,-6.5897,-6.5897,-6.5897,-6.5897,-6.5897,-6.5897,-6.5897,-6.5897,-6.5897,-6.5897,-6.5897,-6.5897,-6.5897,-6.5897,-6.5897,-6.5897,-6.5897,-6.5897,-6.5897,-6.5897,-6.5897,-6.5897,-6.4936,-6.3308,-6.3308,-6.232,-6.0781,-6.0781,-6.0781,-6.0781,-6.0781,-6.0781,-6.0781,-6.0781,-6.0781,-6.0781,-6.0781,-6.0781,-6.0781,-6.0781,-6.0781,-6.0781,-6.0781,-6.0781,-6.0781,-6.0781,-6.0781,-6.0697,-6.0179,-5.9937,-5.9626,-5.8845,-5.8698,-5.8698,-5.8698,-5.8698,-5.8698,-5.8698,-5.8698,-5.8698,-5.8698,-5.8698,-5.8698,-5.8698,-5.8698,-5.8698,-5.8698,-5.8698,-5.8698,-5.8698,-5.8698,-5.8698,-5.8698,-5.8698,-5.8698,-5.8698,-5.8698,-5.8698,-5.8698,-5.8698,-5.8698,-5.8698,-5.8698,-5.8656,-5.8593,-5.8551,-5.8523,-5.8443,-5.8378,-5.8312,-5.8305,-5.8133,-5.8065,-5.7997,-5.7997,-5.7997,-5.7997,-5.7997,-5.7997,-5.7997,-5.7997,-5.7997,-5.7997,-6.5897,-6.5897,-6.5897,-6.5897,-6.5897,-6.5897,-6.5897,-6.5897,-6.5897,-6.5897,-6.5897,-6.5897,-6.5897,-6.5897,-6.5897,-6.5897,-6.5897,-6.5897,-6.5897,-6.5897,-6.5897,-6.5897,-6.5897,-6.5897,-6.5897,-6.5897,-6.5897,-6.5897,-6.5897,-6.5897,-6.5897,-6.5897,-6.5897,-6.5897,-6.5897,-6.4936,-6.3308,-6.3308,-6.232,-6.0781,-6.0781,-6.0781,-6.0781,-6.0781,-6.0781,-6.0781,-6.0781,-6.0781,-6.0781,-6.0781,-6.0781,-6.0781,-6.0781,-6.0781,-6.0781,-6.0781,-6.0781,-6.0781,-6.0781,-6.0781,-6.071,-6.0307,-6.0015,-5.9626,-5.8845,-5.8698,-5.8698,-5.8698,-5.8698,-5.8698,-5.8698,-5.8698,-5.8698,-5.8698,-5.8698,-5.8698,-5.8698,-5.8698,-5.8698,-5.8698,-5.8698,-5.8698,-5.8698,-5.8698,-5.8698,-5.8698,-5.8698,-5.8698,-5.8698,-5.8698,-5.8698,-5.8698,-5.8698,-5.8698,-5.8698,-5.8698,-5.8698,-5.8698,-5.8698,-5.8635,-5.8513,-5.8508,-5.8443,-5.8415,-5.8246,-5.8133,-5.802,-5.7997,-5.7997,-5.7997,-5.7997,-5.7997,-5.7997,-5.7997,-5.7997,-5.7997,-6.5897,-6.5897,-6.5897,-6.5897,-6.5897,-6.5897,-6.5897,-6.5897,-6.5897,-6.5897,-6.5897,-6.5897,-6.5897,-6.5897,-6.5897,-6.5897,-6.5897,-6.5897,-6.5897,-6.5897,-6.5897,-6.5897,-6.5897,-6.5897,-6.5897,-6.5897,-6.5897,-6.5897,-6.5897,-6.5897,-6.5897,-6.5897,-6.5897,-6.5897,-6.5897,-6.4936,-6.3308,-6.3308,-6.232,-6.0781,-6.0781,-6.0781,-6.0781,-6.0781,-6.0781,-6.0781,-6.0781,-6.0781,-6.0781,-6.0781,-6.0781,-6.0781,-6.0781,-6.0781,-6.0781,-6.0781,-6.0781,-6.0781,-6.0781,-6.0781,-6.0634,-6.0045,-5.9842,-5.9626,-5.8845,-5.8698,-5.8698,-5.8698,-5.8698,-5.8698,-5.8698,-5.8698,-5.8698,-5.8698,-5.8698,-5.8698,-5.8698,-5.8698,-5.8698,-5.8698,-5.8698,-5.8698,-5.8698,-5.8698,-5.8698,-5.8698,-5.8698,-5.8698,-5.8698,-5.8698,-5.8698,-5.8698,-5.8698,-5.8698,-5.8698,-5.8698,-5.8698,-5.8698,-5.8698,-5.8677,-5.8656,-5.8502,-5.8422,-5.8486,-5.8268,-5.8215,-5.8156,-5.8042,-5.7997,-5.7997,-5.7997,-5.7997,-5.7997,-5.7997,-5.7997,-5.7997,-6.5897,-6.5897,-6.5897,-6.5897,-6.5897,-6.5897,-6.5897,-6.5897,-6.5897,-6.5897,-6.5897,-6.5897,-6.5897,-6.5897,-6.5897,-6.5897,-6.5897,-6.5897,-6.5897,-6.5897,-6.5897,-6.5897,-6.5897,-6.5897,-6.5897,-6.5897,-6.5897,-6.5897,-6.5897,-6.5897,-6.5897,-6.5897,-6.5897,-6.5897,-6.5897,-6.4936,-6.3308,-6.3308,-6.232,-6.0781,-6.0781,-6.0781,-6.0781,-6.0781,-6.0781,-6.0781,-6.0781,-6.0781,-6.0781,-6.0781,-6.0781,-6.0781,-6.0781,-6.0781,-6.0781,-6.0781,-6.0781,-6.0781,-6.0781,-6.0781,-6.0734,-6.0416,-6.0091,-5.9727,-5.9399,-5.9004,-5.8698,-5.8698,-5.8698,-5.8698,-5.8698,-5.8698,-5.8698,-5.8698,-5.8698,-5.8698,-5.8698,-5.8698,-5.8698,-5.8698,-5.8698,-5.8698,-5.8698,-5.8698,-5.8698,-5.8698,-5.8698,-5.8698,-5.8698,-5.8698,-5.8698,-5.8698,-5.8698,-5.8698,-5.8698,-5.8698,-5.8698,-5.8698,-5.8698,-5.8698,-5.8677,-5.863,-5.8529,-5.8508,-5.8422,-5.8334,-5.8305,-5.8156,-5.8111,-5.8088,-5.802,-5.7997,-5.7997,-5.7997,-5.7997,-5.7997]},{"header":{"parameterUnit":"m.s-1","parameterCategory":1,"la1":30.6,"la2":28.766,"lo1":-90.7593,"lo2":-88.6598,"dx":0.0162,"dy":0.0183,"nx":116,"ny":114,"refTime":"2022-12-01T06:00:00:Z","depth":0,"parameterNumber":3,"parameterNumberName":"V-component_of_WINDS"},"data":[0.0,0.0,0.0,0.0,0.0,0.0,0.0,0.0,0.0,0.0,0.0,0.0,0.0,0.0,0.0,0.0,0.0,0.0,0.0,0.0,0.0,0.0,0.0,0.0,0.0,0.0,0.0,0.0,0.0,0.0,0.0,0.0,0.0,0.0,0.0,0.0,0.0,0.0,0.0,0.0,0.0,0.0,0.0,0.0,0.0,0.0,0.0,0.0,0.0,0.0,0.0,0.0,0.0,0.0,0.0,0.0,0.0,0.0,0.0,0.0,0.0,0.0,0.0,0.0,0.0,0.0,0.0,0.0,0.0,0.0,0.0,0.0,0.0,0.0,0.0,0.0,0.0,0.0,0.0,0.0,0.0,0.0,0.0,0.0,0.0,0.0,0.0,0.0,0.0,0.0,0.0,0.0,0.0,0.0,0.0,0.0,0.0,0.0,0.0,0.0,0.0,0.0,0.0,0.0,0.0,0.0,0.0,0.0,0.0,0.0,0.0,0.0,0.0,0.0,0.0,0.0,0.0,0.0,0.0,0.0,0.0,0.0,0.0,0.0,0.0,0.0,0.0,0.0,0.0,0.0,0.0,0.0,0.0,0.0,0.0,0.0,0.0,0.0,0.0,0.0,0.0,0.0,0.0,0.0,0.0,0.0,0.0,0.0,0.0,0.0,0.0,0.0,0.0,0.0,0.0,0.0,0.0,0.0,0.0,0.0,0.0,0.0,0.0,0.0,0.0,0.0,0.0,0.0,0.0,0.0,0.0,0.0,0.0,0.0,0.0,0.0,0.0,0.0,0.0,0.0,0.0,0.0,0.0,0.0,0.0,0.0,0.0,0.0,0.0,0.0,0.0,0.0,0.0,0.0,0.0,0.0,0.0,0.0,0.0,0.0,0.0,0.0,0.0,0.0,0.0,0.0,0.0,0.0,0.0,0.0,0.0,0.0,0.0,0.0,0.0,0.0,0.0,0.0,0.0,0.0,0.0,0.0,0.0,0.0,0.0,0.0,0.0,0.0,0.0,0.0,0.0,0.0,0.0,0.0,0.0,0.0,0.0,0.0,0.0,0.0,0.0,0.0,0.0,0.0,0.0,0.0,0.0,0.0,0.0,0.0,0.0,0.0,0.0,0.0,0.0,0.0,0.0,0.0,0.0,0.0,0.0,0.0,0.0,0.0,0.0,0.0,0.0,0.0,0.0,0.0,0.0,0.0,0.0,0.0,0.0,0.0,0.0,0.0,0.0,0.0,0.0,0.0,0.0,0.0,0.0,0.0,0.0,0.0,0.0,0.0,0.0,0.0,0.0,0.0,0.0,0.0,0.0,0.0,0.0,0.0,0.0,0.0,0.0,0.0,0.0,0.0,0.0,0.0,0.0,0.0,0.0,0.0,0.0,0.0,0.0,0.0,0.0,0.0,0.0,0.0,0.0,0.0,0.0,0.0,0.0,0.0,0.0,0.0,0.0,0.0,0.0,0.0,0.0,0.0,0.0,0.0,0.0,0.0,0.0,0.0,0.0,0.0,0.0,0.0,0.0,0.0,0.0,0.0,0.0,0.0,0.0,0.0,0.0,0.0,0.0,0.0,0.0,0.0,0.0,0.0,0.0,0.0,0.0,0.0,0.0,0.0,0.0,0.0,0.0,0.0,0.0,0.0,0.0,0.0,0.0,0.0,0.0,0.0,0.0,0.0,0.0,0.0,0.0,0.0,0.0,0.0,0.0,0.0,0.0,0.0,0.0,0.0,0.0,0.0,0.0,0.0,0.0,0.0,0.0,0.0,0.0,0.0,0.0,0.0,0.0,0.0,0.0,0.0,0.0,0.0,0.0,0.0,0.0,0.0,0.0,0.0,0.0,0.0,0.0,0.0,0.0,0.0,0.0,0.0,0.0,0.0,0.0,0.0,0.0,0.0,0.0,0.0,0.0,0.0,0.0,0.0,0.0,0.0,0.0,0.0,0.0,0.0,0.0,0.0,0.0,0.0,0.0,0.0,0.0,0.0,0.0,0.0,0.0,0.0,0.0,0.0,0.0,0.0,0.0,0.0,0.0,0.0,0.0,0.0,0.0,0.0,0.0,0.0,0.0,0.0,0.0,0.0,0.0,0.0,0.0,0.0,0.0,0.0,0.0,0.0,0.0,0.0,0.0,0.0,0.0,0.0,0.0,0.0,0.0,0.0,0.0,0.0,0.0,0.0,0.0,0.0,0.0,0.0,0.0,0.0,0.0,0.0,0.0,0.0,0.0,0.0,0.0,0.0,0.0,0.0,0.0,0.0,0.0,0.0,0.0,0.0,0.0,0.0,0.0,0.0,0.0,0.0,0.0,0.0,0.0,0.0,0.0,0.0,0.0,0.0,0.0,0.0,0.0,0.0,0.0,0.0,0.0,0.0,0.0,0.0,0.0,0.0,0.0,0.0,0.0,0.0,0.0,0.0,0.0,0.0,0.0,0.0,0.0,0.0,0.0,0.0,0.0,0.0,0.0,0.0,0.0,0.0,0.0,0.0,0.0,0.0,0.0,0.0,0.0,0.0,0.0,0.0,0.0,0.0,0.0,0.0,0.0,0.0,0.0,0.0,0.0,0.0,0.0,0.0,0.0,0.0,0.0,0.0,0.0,0.0,0.0,0.0,0.0,0.0,0.0,0.0,0.0,0.0,0.0,0.0,0.0,0.0,0.0,0.0,0.0,0.0,0.0,0.0,0.0,0.0,0.0,0.0,0.0,0.0,0.0,0.0,0.0,0.0,0.0,0.0,0.0,0.0,0.0,0.0,0.0,0.0,0.0,0.0,0.0,0.0,0.0,0.0,0.0,0.0,0.0,0.0,0.0,0.0,0.0,0.0,0.0,0.0,0.0,0.0,0.0,0.0,0.0,0.0,0.0,0.0,0.0,0.0,0.0,0.0,0.0,0.0,0.0,0.0,0.0,0.0,0.0,0.0,0.0,0.0,0.0,0.0,0.0,0.0,0.0,0.0,0.0,0.0,0.0,0.0,0.0,0.0,0.0,0.0,0.0,0.0,0.0,0.0,0.0,0.0,0.0,0.0,0.0,0.0,0.0,0.0,0.0,0.0,0.0,0.0,0.0,0.0,0.0,0.0,0.0,0.0,0.0,0.0,0.0,0.0,0.0,0.0,0.0,0.0,0.0,0.0,0.0,0.0,0.0,0.0,0.0,0.0,0.0,0.0,0.0,0.0,0.0,0.0,0.0,0.0,0.0,0.0,0.0,0.0,0.0,0.0,0.0,0.0,0.0,0.0,0.0,0.0,0.0,0.0,0.0,0.0,0.0,0.0,0.0,0.0,0.0,0.0,0.0,0.0,0.0,0.0,0.0,0.0,0.0,0.0,0.0,0.0,0.0,0.0,0.0,0.0,0.0,0.0,0.0,0.0,0.0,0.0,0.0,0.0,0.0,0.0,0.0,0.0,0.0,0.0,0.0,0.0,0.0,0.0,0.0,0.0,0.0,0.0,0.0,0.0,0.0,0.0,0.0,0.0,0.0,0.0,0.0,0.0,0.0,0.0,0.0,0.0,0.0,0.0,0.0,0.0,0.0,0.0,0.0,0.0,0.0,0.0,0.0,0.0,0.0,0.0,0.0,0.0,0.0,0.0,0.0,0.0,0.0,0.0,0.0,0.0,0.0,0.0,0.0,0.0,0.0,0.0,0.0,0.0,0.0,0.0,0.0,0.0,0.0,0.0,0.0,0.0,0.0,0.0,0.0,0.0,0.0,0.0,0.0,0.0,0.0,0.0,0.0,0.0,0.0,0.0,0.0,0.0,0.0,0.0,0.0,0.0,0.0,0.0,0.0,0.0,0.0,0.0,0.0,0.0,0.0,0.0,0.0,0.0,0.0,0.0,0.0,0.0,0.0,0.0,0.0,0.0,0.0,0.0,0.0,0.0,0.0,0.0,0.0,0.0,0.0,0.0,0.0,0.0,0.0,0.0,0.0,0.0,0.0,0.0,0.0,0.0,0.0,0.0,0.0,0.0,0.0,0.0,0.0,0.0,0.0,0.0,0.0,0.0,0.0,0.0,0.0,0.0,0.0,0.0,0.0,0.0,0.0,0.0,0.0,0.0,0.0,0.0,0.0,0.0,0.0,0.0,0.0,0.0,0.0,0.0,0.0,0.0,0.0,0.0,0.0,0.0,0.0,0.0,0.0,0.0,0.0,0.0,0.0,0.0,0.0,0.0,0.0,0.0,0.0,0.0,0.0,0.0,0.0,0.0,0.0,0.0,0.0,0.0,0.0,0.0,0.0,0.0,0.0,0.0,0.0,0.0,0.0,0.0,0.0,0.0,0.0,0.0,0.0,0.0,0.0,0.0,0.0,0.0,0.0,0.0,0.0,0.0,0.0,0.0,0.0,0.0,0.0,0.0,0.0,0.0,0.0,0.0,0.0,0.0,0.0,0.0,0.0,0.0,0.0,0.0,0.0,0.0,0.0,0.0,0.0,0.0,0.0,0.0,0.0,0.0,0.0,0.0,0.0,0.0,0.0,0.0,0.0,0.0,0.0,0.0,0.0,0.0,0.0,0.0,0.0,0.0,0.0,0.0,0.0,0.0,0.0,0.0,0.0,0.0,0.0,0.0,0.0,0.0,0.0,0.0,0.0,0.0,0.0,0.0,0.0,0.0,0.0,0.0,0.0,0.0,0.0,0.0,0.0,0.0,0.0,0.0,0.0,0.0,0.0,0.0,0.0,0.0,0.0,0.0,0.0,0.0,0.0,0.0,0.0,0.0,0.0,0.0,0.0,0.0,0.0,0.0,0.0,0.0,0.0,0.0,0.0,0.0,0.0,0.0,0.0,0.0,0.0,0.0,0.0,0.0,0.0,0.0,0.0,0.0,0.0,0.0,0.0,0.0,0.0,0.0,0.0,0.0,0.0,0.0,0.0,0.0,0.0,0.0,0.0,0.0,0.0,0.0,0.0,0.0,0.0,0.0,0.0,0.0,0.0,0.0,0.0,0.0,0.0,0.0,0.0,0.0,0.0,0.0,0.0,0.0,0.0,0.0,0.0,0.0,0.0,0.0,0.0,0.0,0.0,0.0,0.0,0.0,0.0,0.0,0.0,0.0,0.0,0.0,0.0,0.0,0.0,0.0,0.0,0.0,0.0,0.0,0.0,0.0,0.0,0.0,0.0,0.0,0.0,0.0,0.0,0.0,0.0,0.0,0.0,0.0,0.0,0.0,0.0,0.0,0.0,0.0,0.0,0.0,0.0,0.0,0.0,0.0,0.0,0.0,0.0,0.0,0.0,0.0,0.0,0.0,0.0,0.0,0.0,0.0,0.0,0.0,0.0,0.0,0.0,0.0,0.0,0.0,0.0,0.0,0.0,0.0,0.0,0.0,0.0,0.0,0.0,0.0,0.0,0.0,0.0,0.0,0.0,0.0,0.0,0.0,0.0,0.0,0.0,0.0,0.0,0.0,0.0,0.0,0.0,0.0,0.0,0.0,0.0,0.0,0.0,0.0,0.0,0.0,0.0,0.0,0.0,0.0,0.0,0.0,0.0,0.0,0.0,0.0,0.0,0.0,0.0,0.0,0.0,0.0,0.0,0.0,0.0,0.0,0.0,0.0,0.0,0.0,0.0,0.0,0.0,0.0,0.0,0.0,0.0,0.0,0.0,0.0,0.0,0.0,0.0,0.0,0.0,0.0,0.0,0.0,0.0,0.0,0.0,0.0,0.0,0.0,0.0,0.0,0.0,0.0,0.0,0.0,0.0,0.0,0.0,0.0,0.0,0.0,0.0,0.0,0.0,0.0,0.0,0.0,0.0,0.0,0.0,0.0,0.0,0.0,0.0,0.0,0.0,0.0,0.0,0.0,0.0,0.0,0.0,0.0,0.0,0.0,0.0,0.0,0.0,0.0,0.0,0.0,0.0,0.0,0.0,0.0,0.0,0.0,0.0,0.0,0.0,0.0,0.0,0.0,0.0,0.0,0.0,0.0,0.0,0.0,0.0,0.0,0.0,0.0,0.0,0.0,0.0,0.0,0.0,0.0,0.0,0.0,0.0,0.0,0.0,0.0,0.0,0.0,0.0,0.0,0.0,0.0,0.0,0.0,0.0,0.0,0.0,0.0,0.0,0.0,0.0,0.0,0.0,0.0,-1.3822,0.0,0.0,0.0,0.0,0.0,0.0,0.0,0.0,0.0,0.0,0.0,0.0,0.0,0.0,0.0,0.0,0.0,0.0,0.0,0.0,0.0,0.0,0.0,0.0,-0.4065,-0.4038,-0.4011,-0.3998,0.0,0.0,0.0,0.0,0.0,0.0,0.0,0.0,0.0,-0.4253,-0.4387,-0.4666,-0.505,-0.5559,-0.5547,-0.5341,-0.4982,0.0,0.0,0.0,0.0,0.0,0.0,0.0,0.0,0.0,0.0,0.0,0.0,0.0,0.0,0.0,0.0,0.0,0.0,0.0,0.0,0.0,0.0,0.0,0.0,0.0,0.0,0.0,0.0,0.0,0.0,0.0,0.0,0.0,0.0,0.0,0.0,0.0,0.0,0.0,0.0,0.0,0.0,0.0,0.0,0.0,0.0,0.0,0.0,0.0,0.0,0.0,0.0,0.0,0.0,0.0,0.0,0.0,0.0,0.0,0.0,0.0,0.0,0.0,0.0,0.0,0.0,0.0,0.0,0.0,0.0,0.0,-1.3057,0.0,0.0,0.0,0.0,0.0,0.0,0.0,0.0,0.0,0.0,0.0,0.0,0.0,0.0,0.0,0.0,0.0,0.0,0.0,0.0,0.0,-0.4418,-0.4344,-0.4366,-0.4349,-0.4306,-0.4292,-0.4253,-0.4205,-0.4205,0.0,0.0,0.0,0.0,-0.4205,-0.4469,-0.4736,-0.5019,-0.5335,-0.5845,-0.6528,-0.6781,-0.6526,-0.5869,-0.5602,0.0,0.0,0.0,0.0,0.0,0.0,0.0,0.0,0.0,0.0,0.0,0.0,0.0,0.0,0.0,0.0,0.0,0.0,0.0,0.0,0.0,0.0,0.0,0.0,0.0,0.0,0.0,0.0,0.0,0.0,0.0,0.0,0.0,0.0,0.0,0.0,0.0,0.0,0.0,0.0,0.0,0.0,0.0,0.0,0.0,0.0,0.0,0.0,0.0,0.0,0.0,0.0,0.0,0.0,0.0,0.0,0.0,0.0,0.0,0.0,0.0,0.0,0.0,-1.4668,-1.5374,-1.5427,-1.6305,-1.709,-1.7608,-1.4186,-1.3412,-1.447,0.0,0.0,0.0,0.0,0.0,0.0,0.0,0.0,0.0,0.0,0.0,0.0,0.0,0.0,0.0,0.0,0.0,0.0,0.0,0.0,-0.5074,-0.5286,-0.5407,-0.5485,-0.5485,-0.5419,-0.5286,-0.5055,-0.5043,0.0,0.0,0.0,0.0,-0.5043,-0.531,-0.5566,-0.5833,-0.6343,-0.6769,-0.7097,-0.7133,-0.7097,-0.6975,-0.6708,-0.6331,-0.5882,0.0,0.0,0.0,0.0,0.0,0.0,0.0,0.0,0.0,0.0,0.0,0.0,0.0,0.0,0.0,0.0,0.0,0.0,0.0,0.0,0.0,0.0,0.0,0.0,0.0,0.0,0.0,0.0,0.0,0.0,0.0,0.0,0.0,0.0,0.0,0.0,0.0,0.0,0.0,0.0,0.0,-1.135,-1.1005,0.0,0.0,0.0,0.0,0.0,0.0,0.0,0.0,0.0,0.0,0.0,0.0,0.0,-1.6129,-1.6433,-1.6021,-1.6236,-1.7053,-1.6476,-1.6224,-1.6224,-1.5658,-1.5878,-1.6531,-1.4693,0.0,-1.5867,-1.5017,0.0,0.0,0.0,0.0,0.0,0.0,0.0,0.0,0.0,0.0,0.0,0.0,0.0,0.0,0.0,0.0,0.0,0.0,0.0,0.0,0.0,-0.5713,-0.5677,-0.5639,-0.5621,-0.5553,-0.5432,-0.542,0.0,0.0,0.0,-0.5651,-0.5651,-0.6064,-0.6404,-0.6671,-0.706,-0.7303,-0.7425,-0.7532,-0.7605,-0.7605,-0.7459,-0.7134,-0.6659,-0.6513,0.0,0.0,0.0,0.0,0.0,0.0,0.0,0.0,0.0,0.0,0.0,0.0,0.0,0.0,0.0,0.0,0.0,0.0,0.0,0.0,0.0,0.0,0.0,0.0,0.0,0.0,0.0,0.0,0.0,0.0,0.0,0.0,0.0,0.0,0.0,0.0,0.0,0.0,0.0,-1.2009,-1.2662,-1.2626,-1.2906,-1.3063,0.0,0.0,0.0,0.0,0.0,0.0,0.0,0.0,0.0,-1.5354,-1.6053,-1.6388,-1.6296,-1.6,-1.5992,-1.6221,-1.6322,-1.6322,-1.6365,-1.6478,-1.6734,-1.7032,-1.6365,-1.6151,-1.6164,-1.5032,-1.4493,-1.4349,0.0,0.0,0.0,0.0,-1.5474,-1.6004,0.0,0.0,0.0,0.0,0.0,0.0,0.0,0.0,0.0,0.0,0.0,0.0,-0.5977,-0.5995,-0.5985,-0.5945,-0.5986,-0.6003,-0.6003,-0.6003,-0.6003,-0.6003,-0.6198,-0.6307,-0.6307,-0.6769,-0.7109,-0.7303,-0.7545,-0.7715,-0.7776,-0.7928,-0.8033,-0.8093,-0.8093,-0.7796,-0.7291,-0.7097,-0.6854,-0.6574,0.0,0.0,0.0,0.0,0.0,0.0,0.0,0.0,0.0,0.0,0.0,0.0,0.0,0.0,0.0,0.0,0.0,0.0,0.0,0.0,0.0,0.0,0.0,0.0,0.0,0.0,0.0,0.0,0.0,0.0,0.0,0.0,0.0,0.0,0.0,0.0,0.0,-1.2975,-1.3649,-1.3708,-1.4022,-1.4253,0.0,0.0,0.0,0.0,0.0,0.0,-1.6178,-1.6371,-1.6504,-1.6562,-1.6919,-1.6864,-1.6343,-1.6082,-1.5816,-1.5586,-1.5979,-1.6159,-1.6204,-1.6862,-1.7115,-1.7115,-1.7115,-1.6773,-1.6102,-1.5057,-1.4851,-1.5191,-1.5389,-1.5431,-1.5516,-1.6232,-1.681,-1.7275,0.0,0.0,0.0,0.0,0.0,0.0,0.0,0.0,0.0,0.0,0.0,-0.6271,-0.6264,-0.6621,-0.6844,-0.6844,-0.7022,-0.7121,-0.7121,-0.7121,-0.7121,-0.7121,-0.7133,-0.7133,-0.7133,-0.7413,-0.7559,-0.7571,-0.7772,-0.8009,-0.8249,-0.8261,-0.8405,-0.8674,-0.8674,-0.8257,-0.7571,-0.7559,-0.7401,-0.7133,-0.6866,0.0,0.0,0.0,0.0,0.0,0.0,0.0,0.0,0.0,0.0,0.0,0.0,0.0,0.0,0.0,0.0,0.0,0.0,0.0,0.0,0.0,0.0,0.0,0.0,0.0,0.0,0.0,0.0,0.0,0.0,0.0,0.0,0.0,0.0,0.0,0.0,0.0,0.0,-1.3328,-1.498,0.0,0.0,0.0,0.0,-1.7432,-1.7463,-1.8162,-1.957,-1.903,-1.8748,-1.8897,-1.8948,-1.8675,-1.809,-1.7146,-1.6808,-1.7188,-1.625,-1.5826,-1.5826,-1.5873,-1.5873,-1.5873,-1.5873,-1.5873,-1.5833,-1.6086,-1.5742,-1.5013,-1.5013,-1.5044,-1.5057,-1.5089,-1.5653,-1.6374,0.0,0.0,0.0,-0.4474,-0.4605,-0.4838,-0.5151,-0.5333,-0.5634,-0.6213,-0.621,-0.6362,-0.6899,-0.6883,-0.6912,-0.7083,-0.7169,-0.7206,-0.7206,-0.7206,-0.7206,-0.7206,-0.7364,-0.7509,-0.7639,-0.7904,-0.8063,-0.8063,-0.8301,-0.8481,-0.8566,-0.8566,-0.8614,-0.871,-0.871,-0.8554,-0.8305,-0.8136,-0.7836,-0.7449,-0.7352,-0.7158,0.0,0.0,0.0,0.0,0.0,0.0,0.0,0.0,0.0,0.0,0.0,0.0,0.0,0.0,0.0,0.0,0.0,0.0,0.0,0.0,0.0,0.0,0.0,0.0,0.0,0.0,0.0,0.0,0.0,0.0,0.0,0.0,0.0,0.0,0.0,0.0,0.0,-1.5599,-1.6704,0.0,-1.7421,-1.8395,-1.9064,-1.9057,-1.8737,-1.879,-1.9361,-1.817,-1.7468,-1.7548,-1.7175,-1.6996,-1.6985,-1.6619,-1.6629,-1.6932,-1.654,-1.6393,-1.6393,-1.6393,-1.6393,-1.6393,-1.6393,-1.6393,-1.638,-1.6504,-1.6143,-1.5571,-1.6206,-1.6883,-1.7523,-1.8188,-1.8851,-1.94,0.0,0.0,0.0,-0.4762,-0.4828,-0.502,-0.5384,-0.5502,-0.5757,-0.6412,-0.6396,-0.6542,-0.7058,-0.7096,-0.7145,-0.7315,-0.7388,-0.7449,-0.7449,-0.7449,-0.7449,-0.7449,-0.7703,-0.7894,-0.8033,-0.8285,-0.8445,-0.8445,-0.8626,-0.8806,-0.8975,-0.8975,-0.9071,-0.9239,-0.9239,-0.9143,-0.8975,-0.8794,-0.8361,-0.7836,-0.7836,-0.763,-0.7315,0.0,0.0,0.0,0.0,0.0,0.0,0.0,0.0,0.0,0.0,0.0,0.0,0.0,0.0,0.0,0.0,0.0,0.0,0.0,0.0,0.0,0.0,0.0,0.0,0.0,0.0,0.0,0.0,0.0,0.0,0.0,0.0,0.0,0.0,0.0,-1.6754,-1.6896,-1.7837,-1.8608,-1.8859,-1.9602,-2.0025,-1.9859,-1.9496,-1.9358,-1.9521,-1.8249,-1.7566,-1.7566,-1.6952,-1.6559,-1.642,-1.642,-1.6513,-1.67,-1.67,-1.67,-1.67,-1.67,-1.6767,-1.6847,-1.6754,-1.6767,-1.6847,-1.674,-1.6473,-1.6174,-1.6848,-1.7504,-1.8155,-1.8848,-1.9311,-1.9695,0.0,0.0,-0.5122,-0.4859,-0.509,-0.5365,-0.5486,-0.5685,-0.5901,-0.6103,-0.6532,-0.6817,-0.6842,-0.7291,-0.7595,-0.7607,-0.7798,-0.7901,-0.7913,-0.7913,-0.7913,-0.7925,-0.8165,-0.8297,-0.8297,-0.859,-0.8722,-0.8734,-0.8734,-0.9023,-0.954,-0.954,-0.9817,-1.0298,-1.0298,-1.0009,-0.954,-0.954,-0.9052,-0.8321,-0.8309,-0.8039,-0.7631,0.0,0.0,0.0,0.0,0.0,0.0,0.0,0.0,0.0,0.0,0.0,0.0,0.0,0.0,0.0,0.0,0.0,0.0,0.0,0.0,0.0,0.0,0.0,0.0,0.0,0.0,0.0,0.0,0.0,0.0,0.0,0.0,0.0,-1.5876,-1.6848,-1.7416,-1.7033,-1.8393,-1.9336,-1.9204,-1.9989,-2.0296,-1.9798,-1.97,-1.9809,-2.0275,-1.955,-1.913,-1.913,-1.8506,-1.7697,-1.6727,-1.6727,-1.674,-1.6767,-1.6767,-1.6767,-1.6767,-1.6767,-1.6914,-1.7233,-1.6887,-1.6927,-1.7219,-1.6874,-1.6767,-1.6754,-1.6714,-1.67,-1.675,-1.675,-1.68,-1.7,-0.5155,-0.5208,-0.5235,-0.5124,-0.533,-0.5551,-0.5638,-0.5857,-0.6227,-0.6826,-0.6829,-0.7,-0.7543,-0.7606,-0.7654,-0.7796,-0.7853,-0.7985,-0.8165,-0.8177,-0.8261,-0.8481,-0.8566,-0.8602,-0.8602,-0.8854,-0.9095,-0.9287,-0.948,-0.9745,-1.0081,-1.0081,-1.0154,-1.0298,-1.0298,-1.0214,-1.0081,-1.0081,-0.9733,-0.9124,-0.8758,-0.8506,-0.8389,0.0,0.0,0.0,0.0,0.0,0.0,0.0,0.0,0.0,0.0,0.0,0.0,0.0,0.0,0.0,0.0,0.0,0.0,0.0,0.0,0.0,0.0,0.0,0.0,0.0,0.0,0.0,0.0,0.0,0.0,0.0,0.0,-1.7538,-1.7494,-1.8262,-1.8879,-1.9051,-1.9973,-2.0303,-1.9608,-2.006,-2.0418,-2.0543,-1.9174,-1.8816,-1.9892,-1.833,-1.7408,-1.7408,-1.7208,-1.7218,-1.7341,-1.7341,-1.7569,-1.7996,-1.7996,-1.7996,-1.7996,-1.7996,-1.805,-1.8116,-1.8036,-1.805,-1.8116,-1.8036,-1.7996,-1.7916,-1.7048,-1.715,-1.7796,-1.7796,-1.8769,-2.0216,-0.5261,-0.5261,-0.5261,-0.5246,-0.5452,-0.5685,-0.5806,-0.6046,-0.6433,-0.7008,-0.7046,-0.7194,-0.7725,-0.7737,-0.7786,-0.7889,-0.7997,-0.8129,-0.8285,-0.8393,-0.8554,-0.8698,-0.8806,-0.8866,-0.8866,-0.9239,-0.9516,-0.9672,-0.9937,-1.0202,-1.0454,-1.0454,-1.0515,-1.0623,-1.0623,-1.0563,-1.0454,-1.0454,-1.0214,-0.9817,-0.9492,-0.9107,-0.8686,-0.8542,-0.8481,-0.8421,-0.8027,-0.7882,-0.786,-0.7581,0.0,0.0,0.0,0.0,0.0,0.0,0.0,0.0,0.0,0.0,0.0,0.0,0.0,0.0,0.0,0.0,0.0,0.0,0.0,0.0,0.0,0.0,0.0,0.0,-1.6985,-1.8215,-1.8727,-1.9016,-1.9501,-2.0291,-2.0085,-1.9945,-2.0093,-2.036,-2.0327,-1.9797,-1.9062,-1.8801,-1.9131,-1.7823,-1.7279,-1.7673,-1.7522,-1.7622,-1.7956,-1.7969,-1.8143,-1.849,-1.849,-1.849,-1.849,-1.849,-1.8557,0.0,-1.8544,-1.8557,-1.8664,-1.8544,-1.849,0.0,0.0,0.0,0.0,0.0,-2.0617,-2.1728,-0.5201,-0.5201,-0.523,-0.5293,-0.5544,-0.5817,-0.5972,-0.6266,-0.6565,-0.6926,-0.7165,-0.7413,-0.7658,-0.7862,-0.7955,-0.7928,-0.8169,-0.8337,-0.8397,-0.8626,-0.877,-0.8794,-0.9023,-0.9155,-0.9191,-0.966,-0.9937,-0.9997,-1.0226,-1.0478,-1.0767,-1.0767,-1.0851,-1.1105,-1.1105,-1.0985,-1.0767,-1.0767,-1.0575,-1.0346,-1.0346,-0.9733,-0.8842,-0.8806,-0.8782,-0.8722,-0.8457,-0.8333,-0.8297,-0.8069,0.0,0.0,0.0,0.0,0.0,0.0,0.0,0.0,0.0,0.0,0.0,0.0,0.0,0.0,0.0,0.0,0.0,0.0,0.0,0.0,0.0,0.0,0.0,0.0,-1.7482,-1.8379,-1.938,-1.9181,-1.9409,-2.0692,-1.944,-1.9001,-2.0225,-2.0483,-1.9956,-1.8419,-1.909,-1.9219,-1.8402,0.0,0.0,0.0,0.0,-1.8504,-1.8544,-1.8544,-1.8557,-1.8584,-1.8584,-1.8584,-1.8584,-1.8584,-1.8731,-1.8958,-1.8704,-1.8731,-1.8958,-1.8691,-1.8695,-1.8904,-1.9759,-2.0168,-2.0426,-2.1618,-2.214,-2.2317,-0.5277,-0.5277,-0.5277,-0.5293,-0.5752,-0.6074,-0.6011,-0.6454,-0.6946,-0.7329,-0.7432,-0.7659,-0.8176,-0.829,-0.8262,-0.8141,-0.8389,-0.8665,-0.8915,-0.8999,-0.9119,-0.9348,-0.9408,-0.9528,-0.9745,-0.9853,-1.0118,-1.0539,-1.0587,-1.0743,-1.1033,-1.1033,-1.1057,-1.1105,-1.1105,-1.1081,-1.1033,-1.1033,-1.0888,-1.0611,-1.0611,-1.0238,-0.9648,-0.9444,-0.9215,-0.8987,-0.8722,-0.8638,-0.8626,-0.8578,-0.8554,-0.8518,-0.8285,-0.8213,0.0,0.0,0.0,0.0,0.0,0.0,0.0,0.0,0.0,0.0,0.0,0.0,0.0,0.0,0.0,0.0,0.0,0.0,0.0,-1.6082,-1.7889,-1.9148,-1.8568,-1.8257,-1.8334,-1.9174,-1.9816,-1.9723,-1.8464,-1.8577,-1.8716,-1.8693,-1.8292,-1.8442,-1.9366,-1.8698,-1.8426,-1.8591,-1.8534,-1.8597,-1.8838,-1.8838,-1.8958,-1.9256,0.0,0.0,-1.9256,-1.9256,-1.9225,-1.9279,-1.9225,-1.9283,-1.9279,-1.9225,-1.9816,-2.0544,-1.9334,-1.9456,-2.0426,-2.1549,-2.2552,-2.3525,-0.5293,-0.5293,-0.5293,-0.5293,-0.5806,-0.6177,-0.6104,-0.6574,-0.7111,-0.7547,-0.76,-0.7794,-0.8331,-0.8395,-0.8368,-0.8301,-0.8498,-0.8743,-0.9089,-0.9095,-0.9227,-0.9504,-0.9516,-0.9576,-0.9709,-0.9961,-1.0226,-1.0491,-1.0755,-1.0985,-1.1105,-1.1105,-1.1105,-1.1105,-1.1105,-1.1105,-1.1105,-1.1105,-1.1033,-1.0912,-1.0912,-1.0647,-1.025,-0.9865,-0.9624,-0.9444,-0.9047,-0.8903,-0.8878,-0.8758,-0.871,-0.8686,-0.8554,-0.8518,-0.8481,0.0,0.0,0.0,0.0,0.0,0.0,0.0,0.0,0.0,0.0,0.0,0.0,0.0,0.0,-1.3439,-1.4142,0.0,-1.6566,-1.6374,-1.7368,-1.8157,-1.8025,-1.7888,-1.8085,-1.8879,-1.8829,-1.8574,-1.8227,-1.8519,-1.8636,-1.8394,-1.8702,-1.894,-1.9108,-1.8877,-1.8704,-1.8704,-1.8851,-1.8998,-1.9145,-1.9145,-1.9225,-1.943,-1.943,-1.943,-1.943,-1.9519,-1.9586,-1.9586,-1.9586,-1.9586,-1.9573,-1.9484,-2.0097,-2.1088,-2.0217,-2.097,-2.2631,-2.3163,-2.4088,-2.5255,-0.5293,-0.5293,-0.5293,-0.5293,-0.5806,-0.6196,-0.6196,-0.6653,-0.715,-0.7609,-0.7704,-0.7915,-0.8345,-0.8448,-0.8473,-0.8498,-0.8528,-0.8685,-0.9047,-0.9053,-0.9143,-0.942,-0.9492,-0.954,-0.9588,-0.9997,-1.0274,-1.037,-1.0828,-1.1057,-1.1105,-1.1105,-1.1105,-1.1105,-1.1105,-1.1105,-1.1105,-1.1105,-1.1105,-1.1105,-1.1105,-1.0985,-1.0707,-1.0238,-0.9997,-0.9853,-0.9408,-0.9227,-0.9143,-0.8939,-0.8866,-0.8854,-0.8806,-0.8782,-0.8782,-0.8782,-0.8818,0.0,0.0,0.0,0.0,0.0,0.0,0.0,0.0,-1.1942,-1.258,-1.319,-1.3736,-1.4177,-1.4566,-1.5588,-1.6461,-1.6644,-1.6791,-1.7069,-1.7448,-1.7635,-1.7935,-1.8743,-1.776,-1.7406,-1.8323,-1.8726,-1.8738,-1.8157,-1.9194,-1.9485,-1.8626,-1.8851,-1.9011,-1.9011,-1.9239,-1.943,-1.943,-1.9426,-1.9511,-1.9452,-1.9506,-1.9533,-1.9546,-1.9773,-1.988,-1.988,-1.988,-1.988,-1.9867,-1.992,-2.051,-2.1422,-2.1695,-2.3076,-2.4937,-2.4812,-2.5569,-2.6591,-0.5293,-0.5293,-0.5293,-0.5293,-0.5806,-0.6196,-0.6196,-0.6653,-0.7113,-0.7468,-0.7739,-0.8008,-0.8365,-0.8618,-0.8804,-0.893,-0.8505,-0.8468,-0.8986,-0.8834,-0.8866,-0.9131,-0.9384,-0.9624,-0.9853,-0.9913,-1.0178,-1.0647,-1.0731,-1.0888,-1.1105,-1.1105,-1.1105,-1.1105,-1.1105,-1.1105,-1.1105,-1.1105,-1.1105,-1.1105,-1.1105,-1.1093,-1.1033,-1.0707,-1.031,-0.9901,-0.9841,-0.966,-0.9468,-0.9432,-0.942,-0.9384,-0.9131,-0.9059,-0.9059,-0.9059,-0.9227,-0.948,-0.9709,-1.0095,-1.0535,-1.1019,-1.132,-1.1667,0.0,-1.269,-1.319,-1.4758,-1.4587,-1.4579,-1.6118,-1.6635,-1.6644,-1.6007,-1.6899,-1.74,-1.66,-1.6914,-1.7303,-1.7405,-1.7978,-1.8221,-1.7764,-1.7969,-1.8225,-1.8424,-1.8816,-1.8978,-1.8878,-1.9158,-1.9319,-1.9319,-1.9403,-1.943,-1.943,-1.9626,-1.976,-1.976,-2.0013,-2.0134,-2.0134,-2.0174,-2.0187,-2.0187,-2.0187,-2.0187,-2.0234,-2.1441,-2.1949,-2.2186,-2.3411,-2.4458,-2.528,-2.4954,-2.5569,-2.6591,-0.5571,-0.5695,-0.5766,-0.5558,-0.5896,-0.625,-0.6405,-0.676,-0.7134,-0.745,-0.7598,-0.7866,-0.8348,-0.8631,-0.8805,-0.8776,-0.8498,-0.8438,-0.8742,-0.8596,-0.8662,-0.9083,-0.9215,-0.9396,-0.9672,-0.9829,-1.0009,-1.0226,-1.0539,-1.0779,-1.0888,-1.1045,-1.1105,-1.1105,-1.1105,-1.1105,-1.1105,-1.1105,-1.1105,-1.1105,-1.1105,-1.1021,-1.0827,-1.0731,-1.0358,-0.9925,-1.0081,-0.9961,0.0,-0.9913,-0.9973,-0.9949,-0.9829,-0.9793,-0.9793,-0.9793,-0.9877,-1.0057,-1.0478,-1.0973,-1.1428,-1.1777,-1.212,-1.253,-1.3226,-1.348,-1.3858,-1.4947,-1.4987,-1.5098,-1.5814,-1.6114,-1.614,-1.5852,-1.6409,-1.6814,-1.6549,-1.6938,-1.7326,-1.7635,-1.8032,-1.814,-1.7836,-1.8222,-1.8555,-1.8731,-1.9011,-1.9185,-1.9185,-1.9305,-1.943,-1.943,-1.9533,-1.9626,-1.9626,-1.9907,-2.0054,-2.0054,-2.0174,-2.0167,-2.0241,-2.0414,-2.0494,-2.0494,-2.0494,-2.0388,-2.0288,-2.1646,-2.2587,-2.3402,-2.4694,-2.5904,-2.6644,-2.5579,-2.5763,-2.6591,-0.5878,-0.603,-0.6156,-0.5972,-0.6151,-0.6365,-0.6579,-0.684,-0.7073,-0.733,-0.7437,-0.7718,-0.8335,-0.8564,-0.8659,-0.8593,-0.8474,-0.843,-0.8523,-0.8388,-0.8481,-0.8956,-0.9053,-0.9191,-0.9396,-0.966,-0.9829,-0.9901,-1.0286,-1.0503,-1.0575,-1.0767,-1.09,-1.09,-1.09,-1.09,-1.09,-1.09,-1.09,-1.09,-1.09,-1.0743,-1.0575,-1.0575,-1.0298,-0.9937,-1.0202,-1.013,-0.9949,-1.0202,-1.0298,-1.0298,-1.0298,-1.0298,-1.0322,-1.0466,-1.0611,-1.0852,-1.1313,-1.1761,-1.218,-1.2496,-1.2904,-1.3383,-1.3884,-1.4183,-1.4469,-1.5022,-1.5244,-1.5418,-1.5498,-1.5685,-1.5811,-1.5939,-1.6206,-1.65,-1.6794,-1.7139,-1.7462,-1.7929,-1.8062,-1.8142,-1.8222,-1.8621,-1.8958,-1.9038,-1.9239,-1.943,-1.943,-1.9439,-1.9492,-1.9492,-1.9773,-1.992,-1.992,-2.0214,-2.0361,-2.0361,-2.0441,-2.0468,-2.0481,-2.0695,-2.0802,-2.0802,-2.0802,-2.0668,-2.059,-2.2268,-2.3277,-2.3995,-2.6007,-2.708,-2.7301,-2.65,-2.6504,-2.6903,-0.6182,-0.6182,-0.6277,-0.6539,-0.6593,-0.6593,-0.6587,-0.684,-0.7006,-0.7006,-0.7295,-0.7718,-0.8335,-0.8402,-0.8472,-0.858,-0.8474,-0.8395,-0.8407,-0.8334,-0.8409,-0.859,-0.892,-0.9095,-0.9107,-0.9384,-0.9648,-0.9901,-0.9925,-1.0057,-1.031,-1.031,-1.0322,-1.0322,-1.0322,-1.0322,-1.0322,-1.0322,-1.0322,-1.0322,-1.0322,-1.031,-1.031,-1.031,-1.0142,-0.9937,-1.0202,-1.013,-0.9949,-1.0202,-1.0298,-1.0298,-1.0298,-1.0298,-1.0394,-1.0936,-1.1417,-1.1918,-1.2181,-1.2433,-1.2708,-1.314,-1.3675,-1.4135,-1.4442,-1.4736,-1.5062,-1.5324,-1.5391,-1.5484,-1.5718,-1.5771,-1.5925,-1.6219,-1.65,-1.6794,-1.7152,-1.7434,-1.7689,-1.7955,-1.8303,-1.8584,0.0,-1.8918,-1.9038,-1.939,-1.9359,-1.943,-1.943,-1.9639,-1.9786,-1.9786,-2.0067,-2.0214,-2.0214,-2.0508,-2.0655,-2.0668,-2.0949,-2.1082,-2.1082,-2.1096,-2.1096,-2.1096,-2.1096,-2.1096,-2.1272,-2.3854,-2.4224,-2.3529,-2.7409,-2.7914,-2.6599,-2.7867,-2.8095,-2.773,-0.6499,-0.66,-0.6707,-0.6613,-0.6747,-0.686,-0.686,-0.694,-0.7006,-0.7006,-0.7303,0.0,0.0,0.0,0.0,0.0,-0.8423,-0.8448,-0.8527,-0.835,-0.8379,-0.8719,-0.8852,-0.8953,-0.9038,-0.9291,-0.9413,-0.9372,-0.9733,-0.9949,-1.0045,-1.0214,-1.0298,-1.0298,-1.0298,-1.0298,-1.0298,-1.0298,-1.0298,-1.0298,-1.0298,-1.019,-1.0033,-1.0033,-0.9877,-0.9684,0.0,-0.9985,-0.9973,-1.0406,-1.0551,-1.0587,-1.0755,-1.0936,-1.1188,-1.1757,-1.2156,-1.2433,-1.2522,-1.2957,-1.3417,-1.3592,-1.4052,-1.4559,-1.4985,-1.5177,-1.5337,-1.5618,-1.5685,-1.5712,-1.5758,-1.5784,-1.5925,-1.6268,-1.6513,-1.6807,-1.7166,-1.7447,-1.7769,-1.8277,-1.8437,0.0,0.0,0.0,0.0,-1.9417,-1.943,-1.9511,-1.9639,-1.9746,-1.988,-2.008,-2.0374,-2.0535,-2.0535,-2.0815,-2.0962,-2.0962,-2.1069,-2.1109,-2.1109,-2.1109,-2.1109,-2.1109,-2.1109,-2.1109,-2.1235,-2.3014,-2.4008,-2.4564,-2.6823,-2.7853,-2.8163,-2.8655,-2.87,-2.848,-0.6787,-0.6873,-0.694,-0.6774,-0.6873,0.0,0.0,0.0,0.0,0.0,0.0,0.0,0.0,0.0,0.0,0.0,0.0,-0.8306,-0.8514,-0.8328,-0.835,-0.865,-0.8709,-0.8792,-0.8927,-0.9068,-0.9126,-0.9053,-0.9343,-0.948,-0.948,-0.9745,-0.9865,-0.9865,-0.9973,-1.0009,-1.0009,-1.0009,-1.0178,-1.0406,-1.0021,-0.9937,-0.9997,-0.9624,-0.9432,0.0,-0.9552,-0.9684,-0.9865,-1.0478,-1.0683,-1.0767,-1.1033,-1.1333,-1.1718,-1.2192,-1.2551,-1.2853,-1.2942,-1.3368,-1.3837,-1.4027,-1.4436,-1.4832,-1.5305,-1.5471,-1.5605,-1.5744,-1.5784,-1.5784,-1.5784,-1.5784,-1.5965,-1.6366,-1.658,-1.6847,-1.73,-1.7555,-1.7929,-1.8437,-1.8584,-1.8838,0.0,0.0,0.0,-1.943,-1.9466,-1.9599,-1.9786,-2.0,-2.0201,-2.0388,-2.0681,-2.0828,-2.0828,-2.1015,-2.1109,-2.1109,-2.1109,-2.1109,-2.1109,-2.1109,-2.1109,-2.1109,-2.1109,-2.1109,-2.1235,-2.2529,-2.3574,-2.4502,-2.6277,-2.7504,-2.8361,-2.8797,-2.8975,-2.8883,-0.7006,-0.7006,-0.7006,0.0,0.0,0.0,0.0,0.0,0.0,0.0,0.0,0.0,0.0,0.0,0.0,0.0,0.0,0.0,-0.8382,-0.8301,-0.8275,-0.8395,-0.8486,-0.8596,-0.8735,-0.8628,-0.8686,-0.8891,-0.8727,-0.8651,-0.8651,-0.8963,-0.9083,-0.9083,-0.936,-0.9468,-0.9468,-0.9468,-0.9901,-1.0491,-0.948,-0.9528,-1.0106,-0.9095,-0.8854,-0.9083,-0.9083,-0.9263,-0.9612,-1.0382,-1.0695,-1.0731,-1.1057,-1.1504,-1.1974,-1.2264,-1.2698,-1.3181,-1.3442,-1.3661,-1.3957,-1.4449,-1.4826,-1.5081,-1.5371,-1.5631,-1.5784,-1.5784,-1.5784,-1.5784,-1.5784,-1.5784,-1.5971,-1.6593,-1.67,-1.6901,-1.7475,-1.7822,-1.8089,-1.845,-1.8731,-1.9025,-1.939,-1.943,0.0,-1.9444,0.0,-1.9813,-1.984,-2.0374,-2.0681,-2.0695,-2.0962,-2.1109,-2.1109,-2.1109,-2.1109,-2.1109,-2.1109,-2.1109,-2.1109,-2.1109,-2.1109,-2.1109,-2.1109,-2.1109,-2.1235,-2.2529,-2.3139,-2.345,-2.6034,-2.7021,-2.7263,-2.8558,-2.8975,-2.8938,0.0,0.0,0.0,0.0,0.0,0.0,0.0,0.0,0.0,0.0,0.0,0.0,0.0,0.0,0.0,0.0,0.0,0.0,-0.8527,-0.8421,-0.8368,-0.8395,-0.7991,-0.7757,-0.7676,-0.7414,-0.7247,-0.7229,-0.7816,-0.811,-0.811,-0.8593,-0.8806,-0.8806,-0.8878,-0.8915,-0.8915,-0.8915,-0.9023,-0.9191,-0.8915,-0.8927,-0.9083,-0.8806,-0.8746,-0.8806,-0.8806,-0.8975,-0.93,-0.9901,-1.0358,-1.084,-1.1504,-1.1778,-1.2006,-1.268,-1.3126,-1.3411,-1.3473,-1.3783,-1.4172,-1.4569,-1.4892,-1.5158,-1.5583,-1.5731,-1.5784,-1.5784,-1.5784,-1.5784,-1.5784,-1.5784,-1.5952,-1.6326,-1.6567,-1.6834,-1.7259,-1.7515,-1.7903,-1.8424,-1.8557,-1.8798,-1.9377,-1.943,-1.9452,0.0,-1.976,-1.9987,-2.0428,-2.0601,-2.0775,-2.0989,-2.1069,-2.1109,-2.1109,-2.1109,-2.1109,-2.1109,-2.1109,-2.1109,-2.1109,-2.1109,-2.1109,-2.1109,-2.1109,-2.1109,-2.1235,-2.2529,-2.3636,-2.4687,-2.6338,-2.7624,-2.8558,-2.8856,-2.8975,-2.8975,0.0,0.0,0.0,0.0,0.0,0.0,0.0,0.0,0.0,0.0,0.0,0.0,0.0,0.0,0.0,0.0,0.0,0.0,0.0,-0.8088,-0.8012,-0.8138,-0.7814,-0.7547,-0.7385,-0.7083,-0.6774,-0.6438,-0.6905,-0.7249,-0.7461,-0.7966,-0.8299,-0.8542,-0.865,-0.871,-0.871,-0.871,-0.8915,0.0,0.0,-0.8746,-0.9011,-0.8513,-0.8405,-0.853,-0.853,-0.8782,-0.9191,-0.9853,-1.0346,-1.0827,-1.1673,-1.1886,-1.2059,-1.2875,-1.3287,-1.3523,-1.3627,-1.3943,-1.4303,-1.4756,-1.5003,-1.5226,-1.5689,-1.5784,-1.5784,-1.5784,-1.5784,-1.5784,-1.5784,-1.5784,-1.5925,-1.6268,-1.6513,-1.6807,-1.7166,-1.7515,-1.7956,-1.8437,-1.8597,-1.8865,-1.9319,-1.943,-1.9546,0.0,-1.9987,-2.0187,-2.0655,-2.0802,-2.0935,-2.1109,-2.1109,-2.1109,-2.1109,-2.1109,-2.1109,-2.1109,-2.1109,-2.1109,-2.1109,-2.1109,-2.1109,-2.1109,0.0,-2.1411,-2.2027,-2.2764,-2.4193,-2.5973,-2.6702,-2.7822,-2.8975,-2.8975,-2.8975,-2.8975,0.0,0.0,0.0,0.0,0.0,0.0,0.0,0.0,0.0,-0.7995,-0.7928,-0.7888,-0.7875,-0.7767,0.0,0.0,0.0,0.0,0.0,0.0,-0.7401,-0.7622,-0.7483,-0.7335,-0.7196,-0.687,-0.6468,-0.597,-0.6043,-0.6301,-0.6706,-0.722,-0.7695,-0.8165,-0.8448,-0.8602,-0.8602,-0.8602,-0.9011,-0.9564,-0.8609,-0.8657,-0.9172,0.0,-0.8045,-0.8249,-0.8321,-0.8662,-0.9179,-1.0009,-1.0442,-1.0779,-1.1661,-1.1926,-1.2103,-1.2848,-1.3318,-1.3616,-1.382,-1.4059,-1.439,-1.4972,-1.5131,-1.5274,-1.5689,-1.5784,-1.5784,-1.5784,-1.5784,-1.5784,-1.5784,-1.5784,-1.5912,-1.6179,-1.646,-1.6754,-1.7099,-1.7569,-1.8009,-1.845,-1.8718,-1.8998,-1.9332,-1.943,-1.9613,-2.0187,-2.0167,-2.0374,-2.0722,-2.0975,-2.1109,-2.1109,-2.1109,-2.1109,-2.1109,-2.1109,-2.1109,-2.1109,-2.1109,-2.1109,-2.1109,-2.1109,-2.1109,-2.1109,0.0,0.0,-2.3139,-2.3263,-2.4794,-2.7021,-2.7203,-2.8002,-2.8975,-2.8975,-2.8975,-2.8975,0.0,0.0,0.0,0.0,0.0,0.0,0.0,0.0,0.0,0.0,-0.8156,-0.7851,0.0,0.0,0.0,0.0,0.0,0.0,0.0,0.0,0.0,-0.6732,-0.5873,-0.5435,-0.5518,-0.4985,-0.4729,-0.4805,-0.5238,-0.5511,-0.5612,-0.6663,-0.7231,-0.7339,-0.7819,-0.8033,-0.8033,-0.8033,-0.8117,-0.8225,-0.8045,-0.8057,-0.8153,-0.7973,0.0,0.0,-0.8481,-0.8698,-0.8927,-0.9949,-1.0322,-1.0539,-1.1561,-1.2046,-1.2358,-1.2932,-1.3455,-1.382,-1.387,-1.4241,-1.4673,-1.5022,-1.5274,-1.5499,-1.5737,-1.5784,-1.5784,-1.5784,-1.5784,-1.5784,-1.5784,-1.5784,-1.5798,-1.5899,-1.6152,-1.6446,-1.674,-1.7088,-1.7648,-1.8397,-1.8531,-1.8784,-1.9377,-1.943,-1.9613,0.0,0.0,-2.0468,-2.1002,-2.1082,-2.1109,-2.1109,-2.1109,-2.1109,-2.1109,-2.1109,-2.1109,-2.1109,-2.1109,-2.1109,-2.1109,-2.1109,-2.1109,-2.1109,-2.1109,0.0,-2.3201,-2.4255,-2.5607,-2.7142,-2.8241,-2.8797,-2.8975,-2.8975,-2.8975,-2.8975,0.0,0.0,0.0,0.0,0.0,0.0,0.0,-0.8567,-0.858,-0.8501,-0.8294,-0.8125,-0.8062,-0.7999,-0.8025,0.0,0.0,0.0,0.0,0.0,0.0,-0.6285,-0.5567,-0.5107,-0.5006,-0.471,-0.4466,-0.4233,0.0,-0.5349,-0.5695,-0.6645,-0.7246,-0.7515,-0.7794,-0.7901,-0.7901,-0.7901,-0.7901,-0.7901,-0.7901,-0.7901,-0.7901,-0.7901,0.0,0.0,-0.8518,-0.871,-0.8866,-0.9937,-1.0298,-1.0478,-1.1549,-1.2006,-1.2237,-1.289,-1.3262,-1.3574,-1.3968,-1.4259,-1.4609,-1.5188,-1.5404,-1.5507,-1.5598,-1.5605,-1.5565,-1.5404,-1.5378,-1.5431,-1.5578,-1.5605,-1.5658,-1.5758,-1.6086,-1.638,-1.666,-1.7018,-1.7541,-1.8384,-1.849,-1.8718,-1.9363,-1.943,-1.9613,-2.0187,0.0,-2.0494,-2.1082,-2.1109,-2.1109,-2.1109,-2.1109,-2.1109,-2.1109,-2.1109,-2.1109,-2.1109,-2.1109,-2.1109,-2.1109,-2.1109,-2.1109,-2.1109,-2.1109,0.0,-2.3201,-2.4502,-2.579,-2.7142,-2.8498,-2.8975,-2.8975,-2.8975,-2.8975,-2.8975,0.0,0.0,0.0,0.0,0.0,0.0,0.0,-0.8527,-0.8474,-0.8368,-0.8315,-0.8289,-0.8289,-0.8248,-0.8221,0.0,0.0,0.0,0.0,0.0,0.0,0.0,0.0,0.0,-0.467,0.0,0.0,-0.4045,-0.4777,0.0,0.0,0.0,0.0,0.0,-0.7848,-0.7901,-0.7901,-0.7901,-0.7901,0.0,0.0,-0.7901,-0.7901,0.0,0.0,0.0,0.0,-0.871,-0.8866,-0.9937,-1.0298,-1.0478,-1.1549,-1.1966,-1.2196,-1.289,-1.3163,-1.3378,-1.3944,-1.4209,-1.4427,-1.511,-1.5363,-1.5391,-1.5305,-1.5297,-1.5244,-1.5062,-1.5008,-1.5075,-1.5257,-1.5351,-1.5471,-1.5698,-1.5979,-1.6299,-1.666,-1.6901,-1.746,-1.837,-1.849,-1.8718,-1.9363,-1.943,0.0,-2.0187,0.0,0.0,-2.1082,-2.1109,-2.1109,-2.1109,-2.1109,-2.1109,-2.1109,-2.1109,-2.1109,-2.1109,-2.1109,-2.1109,-2.1109,-2.1109,-2.1109,-2.1109,-2.1109,0.0,0.0,-2.4502,-2.579,-2.7142,-2.8498,-2.8975,-2.8975,-2.8975,-2.8975,-2.8975,0.0,0.0,0.0,0.0,0.0,0.0,0.0,-0.8315,-0.8248,-0.8221,-0.8062,-0.7955,-0.7955,-0.8088,-0.8141,0.0,0.0,0.0,0.0,0.0,0.0,0.0,0.0,0.0,0.0,0.0,0.0,-0.4174,-0.4927,0.0,0.0,0.0,0.0,0.0,0.0,-0.7901,-0.7901,-0.7901,0.0,0.0,0.0,0.0,0.0,0.0,0.0,0.0,0.0,-0.871,-0.8866,-0.9937,-1.0298,-1.0478,-1.1549,-1.2206,-1.2599,-1.2974,-1.3423,-1.3767,-1.3837,-1.4008,-1.4269,-1.4611,-1.485,-1.503,-1.5062,-1.5048,-1.5035,-1.5022,-1.5008,-1.5022,-1.5048,-1.5217,-1.5404,-1.5431,-1.5685,-1.6072,-1.662,-1.6727,-1.7181,-1.8357,-1.849,-1.8718,-1.9363,-1.943,-1.9613,0.0,0.0,0.0,-2.1109,-2.1109,-2.1109,-2.1109,-2.1109,-2.1109,-2.1109,-2.1109,-2.1109,-2.1109,-2.1109,-2.1109,-2.1109,-2.1109,-2.1109,-2.1109,-2.1109,0.0,0.0,-2.4502,-2.579,-2.7142,-2.8498,-2.8975,-2.8975,-2.8975,-2.8975,-2.8975,0.0,0.0,0.0,0.0,0.0,0.0,-0.7797,-0.7691,-0.7503,-0.7047,-0.6912,-0.6885,-0.6885,-0.6939,-0.7112,-0.7381,0.0,0.0,0.0,0.0,0.0,0.0,0.0,0.0,0.0,0.0,-0.4538,-0.4729,-0.5772,0.0,0.0,0.0,0.0,0.0,0.0,-0.7901,-0.7901,-0.7901,0.0,0.0,0.0,0.0,0.0,0.0,0.0,0.0,0.0,0.0,-0.8818,-0.9576,-1.0033,-1.0418,-1.1164,-1.1895,-1.2478,-1.2764,-1.2998,-1.325,-1.3673,-1.3887,-1.4103,-1.4686,-1.4918,-1.4914,-1.4566,-1.4486,-1.4378,-1.3975,-1.3908,-1.4015,-1.4376,-1.4536,-1.4776,-1.5311,-1.5498,-1.5832,-1.6593,-1.67,-1.7154,-1.8343,-1.849,-1.8718,-1.9363,0.0,-1.9613,0.0,0.0,0.0,-2.1109,-2.1109,-2.1109,-2.1109,-2.1109,-2.1109,-2.1109,-2.1109,-2.1109,-2.1109,-2.1109,-2.1109,-2.1109,-2.1109,-2.1109,-2.1109,-2.1109,0.0,0.0,-2.4131,-2.5301,-2.6034,-2.8182,-2.8975,-2.8975,-2.8975,-2.8975,-2.8975,0.0,0.0,0.0,0.0,0.0,-0.7877,-0.7155,-0.7155,-0.6993,-0.629,-0.6344,-0.6399,-0.6209,-0.6209,-0.629,-0.6534,-0.6401,0.0,0.0,0.0,0.0,0.0,0.0,0.0,0.0,0.0,-0.4742,-0.5112,-0.6162,-0.6834,0.0,0.0,-0.7901,-0.7901,0.0,0.0,0.0,0.0,0.0,0.0,0.0,0.0,0.0,0.0,0.0,0.0,0.0,0.0,0.0,0.0,0.0,-1.0382,-1.0948,-1.1546,-1.2114,-1.2475,-1.2735,-1.3003,-1.3547,-1.3727,-1.3909,-1.4568,-1.4643,-1.4469,-1.4055,-1.3895,-1.3707,-1.3293,-1.3213,-1.336,-1.3868,-1.4028,-1.4349,-1.5137,-1.5337,-1.5698,-1.658,-1.67,-1.7154,-1.8343,-1.849,-1.8718,-1.9363,-1.9519,0.0,0.0,0.0,0.0,0.0,-2.1109,-2.1109,-2.1109,-2.1109,-2.1109,-2.1109,-2.1109,-2.1109,-2.1109,-2.1109,-2.1109,-2.1109,-2.1109,-2.1109,-2.1109,0.0,0.0,0.0,-2.3946,-2.4994,-2.524,-2.7942,-2.8975,-2.8975,-2.8975,-2.8975,-2.8975,0.0,0.0,0.0,0.0,0.0,0.0,-0.6517,-0.6815,-0.6896,-0.629,-0.6723,-0.6869,-0.6263,-0.6209,-0.5964,-0.5363,-0.5624,0.0,0.0,0.0,0.0,0.0,0.0,0.0,0.0,0.0,-0.4501,-0.5112,-0.5837,-0.6507,-0.7112,-0.766,-0.7901,-0.7901,0.0,0.0,0.0,0.0,0.0,0.0,0.0,0.0,-0.7901,0.0,0.0,0.0,0.0,0.0,0.0,0.0,0.0,0.0,0.0,-1.131,-1.1597,-1.2168,-1.2841,-1.3392,-1.3404,-1.3574,-1.3786,-1.4053,-1.3881,-1.3613,-1.3613,-1.3387,-1.3213,-1.3213,-1.3213,-1.3267,-1.3547,-1.3895,-1.4282,-1.4914,-1.5204,-1.5698,-1.658,-1.67,-1.7154,-1.8343,-1.849,-1.8718,-1.9363,-1.988,0.0,0.0,0.0,0.0,0.0,-2.1109,-2.1109,-2.1109,-2.1109,-2.1109,-2.1109,-2.1109,-2.1109,-2.1109,-2.1109,-2.1109,-2.1109,-2.1109,-2.1109,0.0,0.0,0.0,0.0,-2.3946,-2.4994,-2.524,-2.7942,-2.8975,-2.8975,-2.8975,-2.8975,-2.8975,0.0,0.0,0.0,0.0,0.0,0.0,0.0,-0.5773,-0.5664,-0.5117,-0.5199,-0.5254,-0.5062,-0.5034,-0.4952,-0.4759,-0.5094,0.0,0.0,0.0,0.0,0.0,0.0,0.0,0.0,-0.5191,-0.578,-0.6461,-0.7068,-0.7461,-0.766,-0.7821,-0.7901,-0.7901,-0.7901,-0.7901,0.0,0.0,0.0,0.0,0.0,-0.7901,-0.7901,0.0,0.0,0.0,0.0,0.0,0.0,0.0,0.0,0.0,0.0,0.0,0.0,-1.1633,-1.2176,-1.2733,-1.3087,-1.3349,-1.3522,-1.3537,-1.3584,-1.3493,-1.312,-1.2895,-1.2698,-1.2601,-1.2472,-1.2593,-1.3214,-1.3427,-1.3814,-1.4847,-1.5089,-1.5471,-1.6553,-1.67,-1.7154,-1.8343,-1.8851,-1.9158,0.0,0.0,0.0,0.0,0.0,0.0,0.0,-2.1109,-2.1109,-2.1109,-2.1109,-2.1109,-2.1109,-2.1109,-2.1109,-2.1109,-2.1109,-2.1109,-2.1109,-2.1109,0.0,0.0,0.0,0.0,0.0,-2.3946,-2.4994,-2.524,-2.7942,-2.8975,-2.8975,-2.8975,-2.8975,-2.8975,0.0,0.0,0.0,0.0,0.0,0.0,0.0,-0.5199,-0.5117,-0.4574,-0.4684,-0.4732,-0.4519,-0.4491,-0.4491,-0.4491,-0.4727,0.0,0.0,0.0,0.0,0.0,0.0,0.0,-0.5414,-0.5859,-0.6461,-0.7241,-0.7581,-0.7764,-0.7828,-0.7828,-0.7782,-0.7679,-0.7679,-0.7769,0.0,0.0,0.0,0.0,-0.782,-0.7832,-0.7901,0.0,0.0,0.0,0.0,0.0,0.0,0.0,0.0,0.0,0.0,0.0,0.0,0.0,-1.1685,-1.2124,-1.2638,-1.2962,-1.3089,-1.3033,-1.3119,-1.3094,-1.2762,-1.2565,-1.2395,-1.2308,-1.2311,-1.2512,-1.308,-1.34,-1.3854,-1.4861,-1.5102,-1.5498,-1.6553,-1.67,-1.7154,-1.8343,-1.9011,0.0,0.0,0.0,0.0,0.0,0.0,0.0,0.0,-2.1109,-2.1109,-2.1109,-2.1109,-2.1109,-2.1109,-2.1109,-2.1109,-2.1109,-2.1109,-2.1109,-2.1109,-2.1109,0.0,0.0,0.0,0.0,0.0,-2.3946,-2.4994,-2.524,-2.7942,-2.8975,-2.8975,-2.8975,-2.8975,-2.8975,0.0,0.0,0.0,0.0,0.0,0.0,0.0,-0.5007,-0.5062,-0.4574,-0.4924,-0.5062,-0.4546,-0.4491,-0.4491,-0.4491,0.0,0.0,0.0,0.0,0.0,0.0,0.0,0.0,-0.609,-0.624,-0.6691,-0.7518,-0.7518,-0.7569,-0.7706,-0.7706,-0.7579,-0.7383,-0.7373,-0.7577,0.0,0.0,0.0,0.0,-0.7703,-0.7725,0.0,0.0,0.0,0.0,0.0,0.0,0.0,0.0,0.0,0.0,0.0,0.0,0.0,0.0,0.0,0.0,0.0,-1.238,-1.2565,-1.2592,-1.2544,-1.2504,-1.2478,-1.2381,0.0,-1.2294,-1.2572,-1.2879,-1.3186,-1.3707,-1.4282,-1.4914,-1.5204,-1.5698,-1.658,-1.678,-1.7248,-1.8357,-1.9011,0.0,0.0,0.0,0.0,0.0,0.0,0.0,0.0,-2.1109,-2.1109,-2.1109,-2.1109,-2.1109,-2.1109,-2.1109,-2.1109,-2.1109,-2.1109,-2.1109,-2.1109,-2.1109,0.0,0.0,0.0,0.0,0.0,-2.3946,-2.4994,-2.524,-2.7942,-2.8975,-2.8975,-2.8975,-2.8975,-2.8975,0.0,0.0,0.0,0.0,0.0,0.0,0.0,0.0,0.0,0.0,-0.4601,-0.4649,-0.4519,-0.4491,-0.4491,0.0,0.0,0.0,0.0,0.0,0.0,0.0,0.0,0.0,-0.7119,-0.7182,-0.7348,-0.7651,-0.7651,-0.7683,-0.7706,-0.7706,-0.794,-0.837,-0.8142,-0.8003,0.0,0.0,0.0,0.0,-0.7856,-0.7841,0.0,0.0,0.0,0.0,-0.7901,-0.8069,0.0,0.0,0.0,0.0,0.0,0.0,0.0,0.0,-1.0827,-1.0972,-1.1313,0.0,-1.2355,-1.222,-1.2363,-1.2452,0.0,-1.2118,-1.2196,-1.2399,-1.2544,-1.283,-1.3413,-1.3841,-1.4282,-1.4914,-1.5204,-1.5698,-1.658,-1.7488,-1.817,-1.8464,-1.9011,-1.943,0.0,0.0,0.0,0.0,0.0,0.0,0.0,-2.1109,-2.1109,-2.1109,-2.1109,-2.1109,-2.1109,-2.1109,-2.1109,-2.1109,-2.1109,-2.1109,-2.1109,-2.1109,0.0,0.0,0.0,0.0,-2.1299,-2.3946,-2.4994,-2.524,-2.7942,-2.8975,-2.8975,-2.8975,-2.8975,-2.8975,0.0,0.0,0.0,0.0,0.0,0.0,0.0,0.0,0.0,0.0,0.0,-0.4491,-0.4491,-0.4491,0.0,0.0,0.0,0.0,0.0,0.0,0.0,0.0,0.0,-0.6174,-0.6976,-0.7441,-0.7631,-0.752,-0.7588,-0.7698,-0.7894,-0.7894,-0.8133,-0.8619,-0.8398,-0.8213,0.0,0.0,0.0,-0.7889,-0.7784,0.0,0.0,0.0,0.0,0.0,-0.7901,-0.7997,0.0,-0.8417,-0.8698,-0.8987,0.0,0.0,0.0,0.0,-1.0491,-1.0719,-1.0888,-1.1313,-1.1747,-1.1752,-1.1879,-1.198,-1.2029,-1.2069,-1.2222,-1.2596,-1.2803,-1.3089,-1.3705,-1.4202,-1.4643,-1.5084,-1.5524,-1.6099,-1.6981,-1.7903,-1.8544,-1.8677,-1.9092,0.0,0.0,0.0,0.0,0.0,0.0,0.0,0.0,-2.1109,-2.1109,-2.1109,-2.1109,-2.1109,-2.1109,-2.1109,-2.1109,-2.1109,-2.1109,-2.1109,-2.1109,-2.1109,-2.1109,0.0,0.0,0.0,-2.1235,-2.3263,-2.4502,-2.5178,-2.7263,-2.848,-2.8975,-2.8975,-2.8975,-2.8975,0.0,0.0,0.0,0.0,0.0,0.0,0.0,0.0,0.0,0.0,0.0,0.0,0.0,0.0,0.0,0.0,0.0,0.0,0.0,0.0,0.0,0.0,-0.5995,-0.6472,-0.6546,-0.737,-0.7614,-0.7244,-0.7349,-0.7658,-0.8115,-0.8115,-0.8299,-0.8656,-0.848,-0.8369,-0.8261,0.0,-0.7737,-0.7877,-0.7701,0.0,0.0,0.0,0.0,0.0,0.0,0.0,0.0,-0.8201,-0.8493,-0.8758,-0.9011,0.0,0.0,0.0,0.0,0.0,-1.0719,-1.0972,-1.1203,-1.1378,-1.144,-1.1577,-1.2018,-1.217,-1.2401,-1.2881,-1.3207,-1.3618,-1.4119,-1.4713,-1.5156,-1.5351,-1.5925,-1.6633,-1.7462,-1.8103,-1.8597,-1.8891,-1.9185,0.0,0.0,0.0,0.0,0.0,0.0,0.0,0.0,-2.1109,-2.1109,-2.1109,-2.1109,-2.1109,-2.1109,-2.1109,-2.1109,-2.1109,-2.1109,-2.1109,-2.1109,-2.1109,-2.1109,0.0,0.0,0.0,-2.1235,-2.2529,-2.3884,-2.5117,-2.6459,-2.7822,-2.8975,-2.8975,-2.8975,-2.8975,0.0,0.0,0.0,0.0,0.0,0.0,0.0,0.0,0.0,0.0,0.0,0.0,0.0,0.0,0.0,0.0,0.0,0.0,0.0,0.0,0.0,-0.479,-0.5423,-0.6202,-0.7136,-0.7297,-0.7256,-0.6968,-0.6993,-0.738,-0.8115,-0.8115,-0.8548,-0.9332,-0.907,-0.8734,-0.8273,-0.8,-0.7865,-0.7901,-0.7853,0.0,0.0,0.0,0.0,0.0,0.0,0.0,0.0,-0.8201,-0.8493,-0.8758,-0.9011,0.0,0.0,0.0,0.0,0.0,-1.0936,-1.1212,-1.1484,-1.1614,-1.1702,-1.1787,-1.2017,-1.2514,-1.2934,-1.3255,-1.3707,-1.4209,-1.4776,-1.5097,-1.5351,-1.5391,-1.6099,-1.686,-1.7488,-1.8103,-1.8597,-1.8891,0.0,0.0,0.0,0.0,0.0,0.0,0.0,0.0,0.0,0.0,-2.1109,-2.1109,-2.1109,-2.1109,-2.1109,-2.1109,-2.1109,-2.1109,-2.1109,-2.1109,-2.1109,-2.1109,-2.1109,0.0,0.0,-2.1109,-2.1235,-2.2529,-2.3884,-2.5117,-2.6459,-2.7822,-2.8975,-2.8975,-2.8975,-2.8975,0.0,0.0,0.0,0.0,0.0,0.0,0.0,0.0,0.0,0.0,0.0,0.0,0.0,0.0,0.0,0.0,0.0,0.0,0.0,0.0,-0.4847,-0.4802,-0.5156,-0.5623,-0.6268,-0.6955,-0.7066,-0.6574,-0.6705,-0.7482,-0.877,-0.9406,-0.9796,-0.9913,-0.9504,-0.8871,-0.8074,-0.8102,-0.7858,-0.7488,0.0,0.0,0.0,0.0,0.0,0.0,0.0,0.0,0.0,0.0,-0.8345,-0.8722,-0.8842,0.0,0.0,0.0,0.0,0.0,-1.0791,-1.1176,-1.1581,-1.1866,-1.2016,-1.2213,-1.2836,-1.3105,-1.337,-1.3935,-1.426,-1.4576,-1.5137,-1.5311,-1.5551,-1.6032,-1.658,-1.7208,-1.7969,-1.8317,-1.8664,0.0,0.0,0.0,0.0,0.0,0.0,0.0,0.0,0.0,0.0,0.0,-2.1109,-2.1109,-2.1109,-2.1109,-2.1109,-2.1109,-2.1109,-2.1109,-2.1109,-2.1109,-2.1109,-2.1109,-2.1109,-2.1109,0.0,-2.1109,-2.1172,-2.179,-2.2764,-2.4131,-2.5423,-2.6719,-2.8002,-2.8737,-2.8975,-2.8975,0.0,0.0,0.0,0.0,0.0,0.0,0.0,0.0,0.0,0.0,0.0,0.0,0.0,0.0,0.0,0.0,0.0,0.0,0.0,-0.4664,-0.4805,-0.4904,-0.509,-0.5311,-0.5494,-0.653,-0.6848,-0.6347,-0.681,-0.7902,-0.9546,-1.0654,-1.0863,-1.0274,-0.9639,-0.8825,-0.7911,-0.8023,-0.7688,-0.7139,0.0,0.0,0.0,0.0,0.0,0.0,0.0,0.0,0.0,0.0,0.0,0.0,0.0,0.0,0.0,-0.9901,-1.0142,-1.0382,-1.0767,-1.1224,-1.1727,-1.2255,-1.2406,-1.2632,-1.35,-1.3655,-1.3788,-1.4578,-1.4741,-1.4936,-1.5491,-1.5658,-1.5952,-1.6687,-1.7112,-1.7594,-1.837,-1.8544,-1.8784,0.0,0.0,0.0,0.0,0.0,0.0,0.0,0.0,0.0,0.0,0.0,-2.1109,-2.1109,-2.1109,-2.1109,-2.1109,-2.1109,-2.1109,-2.1109,-2.1109,-2.1109,-2.1109,-2.1109,-2.1109,-2.1109,-2.1109,-2.1109,-2.1109,-2.1109,-2.1902,-2.3201,-2.4193,-2.5546,-2.7142,-2.8498,-2.8975,-2.8975,0.0,0.0,0.0,0.0,0.0,0.0,0.0,0.0,0.0,0.0,0.0,0.0,0.0,0.0,0.0,0.0,0.0,0.0,0.0,-0.5131,-0.5327,-0.4911,-0.5332,-0.5623,-0.5766,-0.6167,-0.64,-0.6497,-0.7504,-0.8761,-1.0254,-1.109,-1.1044,-1.0251,-0.9344,-0.8559,-0.7881,-0.7526,-0.7262,-0.7139,-0.7687,0.0,0.0,0.0,0.0,0.0,0.0,0.0,0.0,0.0,0.0,0.0,0.0,0.0,-0.9612,-1.0118,-1.0274,-1.0466,-1.1224,-1.1633,-1.2051,-1.2841,-1.2833,-1.2858,-1.3539,-1.3939,-1.4304,-1.4924,-1.5226,-1.5538,-1.6099,-1.6433,-1.6727,-1.7112,-1.7407,-1.7769,-1.8397,0.0,0.0,0.0,0.0,0.0,0.0,0.0,0.0,0.0,0.0,0.0,0.0,0.0,0.0,-2.1109,-2.1109,-2.1109,-2.1109,-2.1109,-2.1109,-2.1109,-2.1109,-2.1109,-2.1109,-2.1109,-2.1109,-2.1109,-2.1109,-2.1109,-2.1109,-2.1109,-2.1902,-2.3139,-2.3201,-2.4794,-2.7142,-2.8498,-2.8975,-2.8975,0.0,0.0,0.0,0.0,0.0,0.0,0.0,0.0,0.0,0.0,0.0,0.0,0.0,0.0,0.0,0.0,0.0,0.0,0.0,-0.4834,-0.499,-0.4911,-0.5352,-0.5657,-0.58,-0.6231,-0.6504,-0.6614,-0.8354,-0.935,-0.9597,-1.1044,-1.1023,-0.9695,-0.9731,-0.8898,-0.7492,-0.7977,-0.7858,-0.7372,-0.7746,-0.7901,0.0,0.0,0.0,0.0,0.0,0.0,0.0,0.0,-0.8141,-0.8493,-0.865,-0.8963,-0.9396,-1.0094,-1.0406,-1.0683,-1.1321,-1.1921,-1.2499,-1.2965,-1.3229,-1.3534,-1.4123,-1.4482,-1.4767,-1.5029,-1.5389,-1.5792,-1.6206,-1.671,-1.7125,-1.742,-1.7675,-1.8076,0.0,0.0,0.0,0.0,0.0,0.0,0.0,0.0,0.0,0.0,0.0,0.0,0.0,0.0,0.0,-2.1109,-2.1109,-2.1109,-2.1109,-2.1109,-2.1109,-2.1109,-2.1109,-2.1109,-2.1109,-2.1109,-2.1109,-2.1109,-2.1109,-2.1109,-2.1109,-2.1109,-2.1425,-2.2027,-2.3636,-2.5423,-2.7142,-2.8498,-2.8975,-2.8975,0.0,0.0,0.0,0.0,0.0,0.0,0.0,0.0,0.0,0.0,0.0,0.0,0.0,0.0,0.0,0.0,0.0,0.0,-0.4491,-0.4682,-0.4809,-0.4881,-0.5393,-0.5705,-0.58,-0.6461,-0.694,-0.7157,-0.9298,-1.0224,-0.9999,-1.1031,-1.0735,-0.9322,-0.9521,-0.8707,-0.725,-0.8031,-0.8033,-0.752,-0.7781,-0.7901,0.0,0.0,0.0,0.0,0.0,0.0,0.0,0.0,-0.8069,-0.8333,-0.8626,-0.889,-0.9251,-1.0057,-1.0418,-1.0755,-1.1544,-1.2147,-1.2713,-1.32,-1.3611,-1.3923,-1.4397,-1.4761,-1.5053,-1.521,-1.577,-1.6313,-1.6563,-1.7166,-1.7661,-1.7716,-1.8063,0.0,0.0,0.0,0.0,0.0,0.0,0.0,0.0,0.0,0.0,0.0,0.0,0.0,0.0,0.0,0.0,0.0,-2.1109,-2.1109,-2.1109,-2.1109,-2.1109,-2.1109,-2.1109,-2.1109,-2.1109,-2.1109,-2.1109,-2.1109,-2.1109,-2.1109,-2.1109,-2.1109,-2.1109,-2.1362,-2.4008,-2.5546,-2.6581,-2.8361,-2.8975,-2.8975,0.0,0.0,0.0,0.0,0.0,0.0,0.0,0.0,0.0,0.0,0.0,0.0,0.0,0.0,0.0,0.0,0.0,0.0,-0.4491,-0.4748,-0.4887,-0.4887,-0.5481,-0.58,-0.58,-0.6926,-0.7698,-0.8098,-1.0244,-1.1511,-1.1846,-1.106,-1.0187,-0.9252,-0.8468,-0.7764,-0.7219,-0.7561,-0.7626,-0.7531,-0.7781,-0.7901,-0.7901,0.0,0.0,0.0,0.0,0.0,0.0,0.0,-0.8069,-0.8333,-0.8626,-0.889,-0.9251,-1.0057,-1.0298,-1.061,-1.191,-1.2282,-1.256,-1.3639,-1.3897,-1.3978,-1.4244,-1.4653,-1.51,-1.5447,-1.6391,-1.7206,-1.7206,-1.7889,-1.8397,-1.8049,-1.8488,0.0,0.0,0.0,0.0,0.0,0.0,0.0,0.0,0.0,0.0,0.0,0.0,0.0,0.0,0.0,0.0,0.0,-2.1109,-2.1109,-2.1109,-2.1109,-2.1109,-2.1109,-2.1109,-2.1109,-2.1109,-2.1109,-2.1109,-2.1109,-2.1109,-2.1109,-2.1109,-2.1109,-2.1109,-2.1362,-2.4008,-2.4994,-2.5301,-2.8002,-2.8975,-2.8975,0.0,0.0,0.0,0.0,0.0,0.0,0.0,0.0,0.0,0.0,0.0,0.0,0.0,0.0,0.0,0.0,0.0,0.0,-0.4491,-0.4748,-0.4887,-0.4887,-0.5393,-0.5698,-0.58,-0.7118,-0.8171,-0.8941,-0.975,-1.0206,-1.0181,-0.9757,-0.8961,-0.7852,-0.8722,-0.8423,-0.7407,-0.8315,-0.8562,-0.8294,-0.7604,-0.7568,-0.7848,0.0,0.0,0.0,0.0,0.0,0.0,0.0,0.0,0.0,-0.8566,-0.8758,-0.9011,-1.0009,-1.0551,-1.1033,-1.1812,-1.2551,-1.3237,-1.3546,-1.3851,-1.4166,-1.4292,-1.4871,-1.5567,-1.6183,-1.6632,-1.7015,-1.7422,-1.7849,0.0,-1.8555,0.0,0.0,0.0,0.0,0.0,0.0,0.0,0.0,0.0,0.0,0.0,0.0,0.0,0.0,0.0,0.0,0.0,0.0,-2.1109,-2.1109,-2.1109,-2.1109,-2.1109,-2.1109,-2.1109,-2.1109,-2.1109,-2.1109,-2.1109,-2.1109,-2.1109,-2.1109,-2.1109,-2.1109,-2.1109,-2.1362,-2.4008,-2.4994,-2.5301,-2.8002,-2.8975,-2.8975,0.0,0.0,0.0,0.0,0.0,0.0,0.0,0.0,0.0,0.0,-0.4491,-0.4491,0.0,0.0,0.0,-0.4491,-0.4491,-0.4491,-0.4491,-0.4694,-0.4857,-0.4887,-0.5291,-0.5762,-0.6258,-0.7285,-0.8234,-0.9142,-0.9523,-0.9624,-0.9405,-0.8876,-0.809,-0.7171,-0.8394,-0.8424,-0.7617,-0.8426,-0.8817,-0.8747,-0.7561,-0.7408,-0.7875,0.0,0.0,0.0,0.0,0.0,0.0,0.0,0.0,0.0,-0.8542,-0.871,-0.8915,-0.9985,-1.0587,-1.1093,-1.1863,-1.2673,-1.3403,-1.3582,-1.3936,-1.4349,-1.4668,-1.5158,-1.5753,-1.6693,-1.7118,-1.7397,-1.7676,-1.821,0.0,0.0,0.0,0.0,0.0,0.0,0.0,0.0,0.0,0.0,0.0,0.0,0.0,0.0,0.0,0.0,0.0,0.0,0.0,0.0,-2.1109,-2.1109,-2.1109,-2.1109,-2.1109,-2.1109,-2.1109,-2.1109,-2.1109,-2.1109,-2.1109,-2.1109,-2.1109,-2.1109,-2.1109,-2.1109,-2.1411,-2.209,-2.4193,-2.5301,-2.6034,-2.8182,-2.8975,-2.8975,0.0,0.0,0.0,0.0,0.0,0.0,0.0,0.0,0.0,-0.4491,-0.4491,-0.4491,0.0,0.0,0.0,-0.4491,-0.4491,-0.4491,-0.4491,-0.4634,-0.4755,-0.486,-0.5228,-0.5853,-0.6844,-0.7236,-0.785,-0.8656,-0.9239,-0.9437,-0.9177,-0.8188,-0.7469,-0.7032,-0.7761,-0.7982,-0.7803,-0.8175,-0.8595,-0.8847,-0.7577,-0.7399,-0.7901,-0.7848,0.0,0.0,0.0,0.0,0.0,0.0,0.0,0.0,-0.8518,-0.8686,-0.8915,-0.9949,-1.0454,-1.0937,-1.1984,-1.2686,-1.3238,-1.373,-1.4092,-1.4534,-1.5369,-1.5507,-1.5842,-1.6972,-1.7635,-1.8036,-1.8022,-1.8771,0.0,0.0,0.0,0.0,0.0,0.0,0.0,0.0,0.0,0.0,0.0,0.0,0.0,0.0,0.0,0.0,0.0,0.0,0.0,0.0,-2.1096,-2.1109,-2.1109,-2.1109,-2.1109,0.0,-2.1109,-2.1109,-2.1109,-2.1109,-2.1109,-2.1109,-2.1109,-2.1172,-2.1299,-2.1299,-2.209,-2.3387,-2.4687,-2.5912,-2.7142,-2.8498,-2.8975,-2.8975,0.0,0.0,0.0,0.0,0.0,0.0,0.0,0.0,-0.4491,-0.4491,-0.4491,-0.4491,-0.4491,-0.4491,0.0,-0.4491,-0.4491,-0.4491,-0.4491,-0.4634,-0.4707,-0.4741,-0.5173,-0.5526,-0.5757,-0.6029,-0.6418,-0.6872,-0.7811,-0.8307,-0.8311,-0.7033,-0.6663,-0.7102,-0.7789,-0.7872,-0.7522,-0.8294,-0.8377,-0.7939,-0.7101,-0.7238,-0.7848,-0.7434,-0.7542,0.0,0.0,0.0,0.0,0.0,0.0,0.0,-0.8273,-0.8542,-0.8878,-0.9733,-1.0322,-1.09,-1.1748,-1.2506,-1.3194,-1.3492,-1.3952,-1.4582,-1.5632,-1.5708,-1.5821,-1.6964,-1.7622,-1.8062,-1.8343,0.0,0.0,0.0,0.0,0.0,0.0,0.0,0.0,0.0,0.0,0.0,0.0,0.0,0.0,0.0,0.0,0.0,0.0,0.0,0.0,-2.0775,-2.0989,-2.1109,-2.1109,-2.1109,-2.1109,0.0,-2.1109,-2.1109,-2.1109,-2.1109,-2.1109,-2.1109,-2.1109,-2.1727,-2.264,-2.264,-2.345,-2.4748,-2.6034,-2.6762,-2.7142,-2.8498,-2.8975,-2.8975,0.0,0.0,0.0,0.0,0.0,0.0,0.0,0.0,-0.4491,-0.4491,-0.4491,-0.4491,-0.4491,-0.4491,0.0,0.0,-0.4491,-0.4491,-0.4491,-0.4566,-0.4641,-0.4687,-0.4986,-0.5182,-0.525,-0.5474,-0.5774,-0.6081,-0.6683,-0.7117,-0.7303,-0.643,-0.636,-0.7038,-0.7319,-0.7532,-0.7631,-0.8006,-0.814,-0.8046,-0.7481,-0.7598,-0.8054,-0.778,-0.7765,-0.7901,-0.7901,0.0,0.0,0.0,0.0,0.0,0.0,0.0,-0.8842,-0.9516,-1.0178,-1.0827,-1.1513,-1.2312,-1.3049,-1.3568,-1.4002,-1.4582,-1.5532,-1.5645,-1.5808,-1.678,-1.7566,-1.8123,0.0,0.0,0.0,0.0,0.0,0.0,0.0,0.0,0.0,0.0,0.0,0.0,0.0,0.0,0.0,0.0,0.0,0.0,0.0,-2.0307,-2.0535,-2.0668,-2.0828,-2.0962,-2.1109,-2.1109,-2.1109,-2.1109,-2.1109,-2.1109,-2.1109,-2.1109,-2.1109,-2.1109,-2.1109,-2.1853,-2.3076,-2.3076,-2.424,-2.6034,-2.6702,-2.7383,-2.8062,-2.8737,-2.8975,-2.8975,0.0,0.0,0.0,0.0,0.0,0.0,0.0,0.0,0.0,-0.4491,-0.4491,-0.4491,-0.4491,-0.4491,-0.4491,0.0,0.0,0.0,-0.4491,-0.4491,-0.4545,-0.4675,-0.4796,-0.4908,-0.5022,-0.523,-0.5487,-0.5725,-0.5881,-0.6105,-0.639,-0.6118,-0.6288,-0.6908,-0.6794,-0.7069,-0.7626,-0.7622,-0.7887,-0.8312,-0.8075,-0.8124,-0.8357,-0.8357,-0.8225,-0.8033,-0.8033,-0.8009,-0.7973,-0.7973,0.0,0.0,0.0,0.0,-0.8806,-0.93,-0.9997,-1.0743,-1.1333,-1.2127,-1.3012,-1.3725,-1.4099,-1.4522,-1.5258,-1.5406,-1.5654,-1.6464,-1.7357,0.0,0.0,0.0,0.0,0.0,0.0,0.0,0.0,0.0,0.0,0.0,0.0,0.0,0.0,0.0,0.0,0.0,0.0,0.0,-1.972,-2.0,-2.0267,-2.0521,-2.0575,-2.0735,-2.1029,-2.1029,-2.1056,-2.1109,-2.1109,-2.1109,-2.1109,-2.1109,-2.1109,-2.1109,-2.1109,-2.1853,-2.3139,-2.3325,-2.4855,-2.7021,-2.7263,-2.8002,-2.8975,-2.8975,-2.8975,-2.8975,0.0,0.0,0.0,0.0,0.0,0.0,0.0,0.0,0.0,0.0,-0.4491,-0.4491,-0.4491,-0.4491,-0.4491,-0.4491,-0.4491,-0.4491,-0.4491,0.0,0.0,-0.4518,-0.4668,-0.4728,-0.4748,-0.502,-0.5243,-0.5453,-0.5576,-0.58,-0.6047,-0.5915,-0.6216,-0.69,-0.6587,-0.6679,-0.7037,-0.7498,-0.7678,-0.7668,-0.8084,-0.8418,-0.865,-0.865,-0.8638,-0.8602,-0.8602,-0.8457,-0.8237,-0.8237,-0.8093,0.0,0.0,0.0,-0.877,-0.9059,-0.9721,-1.0515,-1.1285,-1.2445,-1.3483,-1.3821,-1.4099,-1.4473,-1.5023,-1.5132,-1.536,0.0,0.0,0.0,0.0,0.0,0.0,0.0,0.0,0.0,0.0,0.0,0.0,0.0,0.0,0.0,0.0,0.0,0.0,0.0,0.0,0.0,-1.9426,-1.9693,-1.988,-1.992,-2.016,-2.0441,-2.0735,-2.0735,-2.0855,-2.1109,-2.1109,-2.1109,-2.1109,-2.1109,-2.1109,-2.1109,-2.1109,-2.1853,-2.3201,-2.4317,-2.5668,-2.7142,-2.8301,-2.8856,-2.8975,-2.8975,-2.8975,-2.8975,0.0,0.0,0.0,0.0,0.0,0.0,0.0,0.0,0.0,0.0,0.0,-0.4491,-0.4491,-0.4491,-0.4491,-0.4491,-0.4491,-0.4491,-0.4491,-0.4491,-0.4491,-0.4491,-0.4552,-0.4634,-0.4687,-0.4816,-0.4999,-0.523,-0.5419,-0.5576,-0.5779,-0.5718,-0.6158,-0.6965,-0.6268,-0.634,-0.7038,-0.7545,-0.7756,-0.7815,-0.8786,-0.909,-0.8927,-0.8927,-0.883,-0.871,-0.871,-0.8638,-0.853,-0.853,-0.8333,-0.8117,-0.8117,0.0,0.0,0.0,-0.9444,-1.0286,-1.1236,-1.2276,-1.3157,-1.358,-1.3882,-1.4279,-1.4949,-1.5108,-1.5273,-1.5909,0.0,0.0,0.0,0.0,0.0,0.0,0.0,0.0,0.0,0.0,0.0,0.0,0.0,0.0,0.0,0.0,0.0,0.0,0.0,-1.943,-1.943,-1.9492,-1.9626,-1.98,-1.992,-2.0134,-2.0428,-2.0588,-2.0815,-2.1109,-2.1109,-2.1109,-2.1109,-2.1109,-2.1109,-2.1109,-2.1109,-2.1853,-2.3201,-2.4502,-2.579,-2.7142,-2.8498,-2.8975,-2.8975,-2.8975,-2.8975,-2.8975,0.0,0.0,0.0,0.0,0.0,0.0,0.0,0.0,0.0,0.0,0.0,-0.4491,-0.4491,0.0,0.0,0.0,-0.4491,-0.4491,-0.4491,-0.4491,-0.4491,-0.4491,-0.4491,-0.4545,-0.4662,-0.4674,-0.4796,-0.4988,-0.5176,-0.5325,-0.5474,-0.5474,-0.588,-0.6633,-0.5867,-0.6157,-0.7244,-0.7643,-0.7903,-0.8176,-0.9546,-0.972,-0.9247,-0.9512,-0.9432,-0.9215,-0.9287,-0.9143,-0.8927,-0.8987,-0.8746,-0.8409,-0.8409,-0.8602,0.0,0.0,0.0,-1.0202,-1.1128,-1.1999,-1.2735,-1.3278,-1.3664,-1.4074,-1.4728,-1.496,-1.5139,0.0,0.0,0.0,0.0,0.0,0.0,0.0,0.0,0.0,0.0,0.0,0.0,0.0,0.0,0.0,0.0,0.0,0.0,0.0,0.0,0.0,-1.943,-1.943,-1.9466,-1.9679,-1.9693,-1.9826,-2.012,-2.0414,-2.0708,-2.1002,-2.1002,-2.1042,-2.1109,-2.1109,-2.1109,-2.1109,-2.1109,-2.1664,-2.2716,-2.4317,-2.5607,-2.6641,-2.8361,-2.8975,-2.8975,-2.8975,-2.8975,-2.8975,0.0,0.0,0.0,0.0,0.0,0.0,0.0,0.0,0.0,0.0,0.0,-0.4491,-0.4491,-0.4491,-0.4491,-0.4491,-0.4491,-0.4491,-0.4491,-0.4491,-0.4491,-0.4491,-0.4491,0.0,-0.4505,-0.4648,-0.4701,-0.4714,-0.4863,-0.4982,-0.5123,-0.5123,-0.5243,-0.5493,-0.5446,-0.6183,-0.7507,-0.7707,-0.8073,-0.86,-1.009,-1.0192,-0.9605,-1.0607,-1.084,-1.0611,-1.0863,-1.031,-0.9516,-0.9757,-0.9324,-0.8686,-0.8686,-0.8866,-0.9083,0.0,0.0,0.0,-1.0985,-1.1721,-1.2457,-1.3012,-1.3532,-1.3978,-1.4256,-1.4533,-1.4811,0.0,0.0,0.0,0.0,0.0,0.0,0.0,0.0,0.0,0.0,0.0,0.0,0.0,0.0,0.0,0.0,0.0,0.0,0.0,0.0,0.0,-1.9359,-1.943,-1.943,-1.9444,-1.9444,-1.9533,-1.9813,-2.0107,-2.0401,-2.0695,-2.0695,-2.0842,-2.1109,-2.1109,-2.1109,-2.1109,-2.1109,-2.1172,-2.1425,-2.3946,-2.5056,-2.5362,-2.8002,-2.8975,-2.8975,-2.8975,-2.8975,-2.8975,0.0,0.0,0.0,0.0,0.0,0.0,0.0,0.0,0.0,0.0,0.0,0.0,0.0,-0.4491,-0.4491,-0.4491,-0.4491,-0.4491,-0.4491,-0.4491,-0.4491,-0.4491,-0.4491,-0.4491,-0.4491,-0.4545,-0.4573,-0.4573,-0.4701,-0.4796,-0.485,-0.4921,-0.5042,-0.5223,-0.542,-0.6133,-0.7167,-0.7915,-0.829,-0.8523,-1.0256,-1.0407,-0.975,-1.0734,-1.1057,-1.0985,-1.1081,-1.0827,-1.0503,-1.043,-0.9985,-0.9444,-0.9275,-0.9167,-0.9131,-0.9312,-0.9684,-1.0154,-1.0719,-1.1285,-1.1946,-1.2674,-1.3254,-1.3725,-1.399,-1.4389,-1.4739,0.0,0.0,0.0,0.0,0.0,0.0,0.0,0.0,0.0,0.0,0.0,0.0,0.0,0.0,0.0,0.0,0.0,0.0,0.0,0.0,0.0,-1.9055,-1.9301,-1.943,-1.943,-1.943,-1.9506,-1.98,-1.9907,-2.0107,-2.0401,-2.0588,-2.0735,-2.0842,-2.1029,-2.1109,-2.1109,-2.1109,-2.1109,-2.1235,-2.3014,-2.4255,-2.5178,-2.7021,-2.8241,-2.8975,-2.8975,-2.8975,-2.8975,0.0,0.0,0.0,0.0,0.0,0.0,0.0,0.0,-0.4566,-0.4566,0.0,0.0,0.0,0.0,-0.4545,-0.4498,-0.4491,-0.4491,-0.4491,-0.4491,-0.4491,-0.4491,-0.4491,-0.4491,-0.4491,-0.4443,-0.4443,-0.4491,-0.4518,-0.4565,-0.4648,-0.4721,-0.4816,-0.4925,-0.5332,-0.6142,-0.7258,-0.7906,-0.8375,-0.8825,-1.0044,-1.0362,-1.0125,-1.0874,-1.1363,-1.1648,-1.1648,-1.1528,-1.1359,-1.114,-1.0731,-1.025,-0.9985,-0.966,-0.9384,-0.9492,-0.9636,-0.9889,-1.0406,-1.0875,-1.1429,-1.2349,-1.2916,-1.3363,-1.3809,-1.4183,-1.4497,0.0,0.0,0.0,0.0,0.0,0.0,0.0,0.0,0.0,0.0,0.0,0.0,0.0,0.0,0.0,0.0,0.0,0.0,0.0,0.0,0.0,-1.8881,-1.9243,-1.943,-1.943,-1.943,-1.9466,-1.9653,-1.9653,-1.98,-2.0094,-2.0294,-2.0481,-2.0681,-2.0869,-2.1015,-2.1109,-2.1109,-2.1109,-2.1235,-2.2529,-2.3574,-2.4564,-2.6277,-2.7564,-2.8361,-2.8856,-2.8975,-2.8975,0.0,0.0,0.0,0.0,0.0,0.0,0.0,0.0,-0.4694,-0.4694,0.0,0.0,0.0,0.0,0.0,-0.4511,-0.4498,-0.4498,-0.4491,-0.4491,-0.4491,-0.4491,-0.4491,-0.4491,-0.4491,-0.4301,-0.4294,-0.4491,-0.4294,-0.4301,-0.4491,-0.4498,-0.4491,-0.4518,-0.5126,-0.6271,-0.7753,-0.7579,-0.828,-0.95,-0.9523,-0.9995,-1.0773,-1.1186,-1.1886,-1.2711,-1.2711,-1.2385,-1.1922,-1.195,-1.1588,-1.1081,-1.0767,-1.0334,-0.9877,-0.9612,-0.9496,-0.9636,0.0,0.0,0.0,-1.2023,-1.2493,-1.2904,-1.3688,0.0,0.0,0.0,0.0,0.0,0.0,0.0,0.0,0.0,0.0,0.0,0.0,0.0,0.0,0.0,0.0,0.0,0.0,0.0,0.0,0.0,0.0,-1.8532,-1.8881,-1.9185,-1.943,-1.943,-1.943,-1.943,-1.943,-1.943,-1.9506,-1.9786,-1.98,-2.0094,-2.0655,-2.0668,-2.0828,-2.1096,-2.1109,-2.1109,-2.1235,-2.2529,-2.3076,-2.3387,-2.5973,-2.6961,-2.7142,-2.8498,-2.8975,-2.8975,0.0,0.0,0.0,0.0,0.0,-0.4525,-0.4641,-0.4667,-0.4728,0.0,0.0,0.0,-0.4863,-0.4857,-0.4796,-0.4668,-0.4655,-0.4607,-0.4498,-0.4491,-0.4491,-0.4491,-0.4491,-0.4491,-0.4491,-0.445,-0.445,-0.4491,-0.445,-0.445,-0.4491,-0.4607,-0.4593,-0.4518,-0.5126,-0.5911,-0.6814,-0.7306,-0.8098,-0.9126,-1.0008,-1.0668,-1.1229,-1.2,-1.2573,-1.3012,-1.3012,-1.2873,-1.2759,-1.2554,-1.2131,-1.1549,-1.0888,-1.0587,-1.0382,-0.9925,-0.9793,-0.9829,-0.9973,0.0,0.0,0.0,0.0,0.0,0.0,0.0,0.0,0.0,0.0,0.0,0.0,0.0,0.0,0.0,0.0,0.0,0.0,0.0,0.0,0.0,0.0,0.0,0.0,0.0,0.0,0.0,-1.8486,-1.8706,-1.8532,-1.9068,-1.943,-1.943,-1.943,-1.943,-1.943,-1.943,-1.947,-1.9492,-1.9693,-1.988,-2.0054,-2.0481,-2.0722,-2.0802,-2.1015,-2.1109,-2.1109,-2.1475,-2.2215,-2.3263,-2.4933,-2.6156,-2.7142,-2.8498,-2.8975,-2.8975,0.0,0.0,-0.4491,-0.4491,-0.4545,-0.4614,-0.4674,-0.4796,-0.4904,0.0,0.0,0.0,-0.5108,-0.5047,-0.4914,-0.4802,-0.4782,-0.4721,-0.4593,-0.4586,-0.4559,-0.4491,-0.4491,-0.4491,-0.4491,-0.4429,-0.4429,-0.4491,-0.4429,-0.4429,-0.4491,-0.458,-0.458,-0.4511,-0.5057,-0.5562,-0.609,-0.673,-0.7927,-0.9419,-0.9603,-1.0564,-1.1897,-1.2172,-1.2756,-1.3435,-1.3326,-1.3363,-1.3411,-1.3133,-1.2687,-1.2143,-1.1564,-1.1154,-1.0767,-1.0346,-1.0081,-0.9925,-1.0033,-1.0286,-1.0611,-1.0996,0.0,0.0,-1.2626,-1.3073,0.0,0.0,0.0,0.0,0.0,0.0,0.0,0.0,0.0,0.0,0.0,0.0,0.0,0.0,0.0,0.0,0.0,0.0,0.0,0.0,-1.8365,-1.8751,-1.8823,-1.9185,-1.943,-1.943,-1.943,-1.943,-1.943,-1.943,-1.943,-1.943,-1.9546,-1.9679,-1.9813,-2.016,-2.0441,-2.0681,-2.0855,-2.1002,-2.1109,-2.1109,-2.1538,-2.2466,-2.4255,-2.5485,-2.6399,-2.8301,-2.8975,-2.8975,0.0,0.0,-0.4491,-0.4491,-0.4614,-0.4694,-0.4714,-0.4965,-0.513,0.0,-0.5447,-0.5596,-0.5508,-0.5325,-0.5143,-0.5002,-0.4986,-0.4911,-0.4775,-0.4721,-0.4668,-0.4545,-0.4505,-0.4491,-0.4491,-0.4334,-0.4334,-0.4491,-0.4334,-0.4334,-0.4491,-0.4505,-0.4505,-0.4511,-0.4931,-0.5278,-0.5644,-0.6095,-0.7749,-0.9975,-0.8923,-1.0156,-1.2556,-1.207,-1.2723,-1.3882,-1.364,-1.3713,-1.387,-1.3604,-1.3194,-1.2747,-1.2445,-1.1866,-1.1214,-1.0864,-1.0394,-1.0069,-1.025,-1.0322,-1.0454,-1.0936,-1.1273,0.0,-1.2409,-1.2638,0.0,0.0,0.0,0.0,0.0,0.0,0.0,0.0,0.0,0.0,0.0,0.0,0.0,0.0,0.0,0.0,0.0,0.0,-1.7229,-1.759,-1.8084,-1.8695,-1.9345,-1.943,-1.943,-1.943,-1.943,-1.943,-1.943,-1.943,-1.943,-1.943,-1.943,-1.9506,-1.976,-1.9786,-2.0107,-2.0628,-2.0655,-2.0842,-2.1109,-2.1109,-2.1109,-2.1362,-2.4008,-2.4994,-2.5301,-2.8002,-2.8975,-2.8975,-0.4491,-0.4491,-0.4491,-0.4491,-0.4614,-0.4735,-0.4857,-0.5128,-0.5392,-0.5481,-0.5759,-0.5976,-0.6115,-0.5949,-0.5757,-0.5644,-0.5413,-0.5296,-0.5262,-0.4921,-0.4735,-0.4823,-0.4621,-0.4491,-0.4491,-0.4464,-0.4464,-0.4491,-0.4464,-0.4464,-0.4491,-0.4614,-0.4607,-0.4511,-0.4931,-0.5332,-0.5772,-0.5983,-0.7573,-0.9913,-0.9794,-1.0609,-1.1982,-1.2833,-1.3445,-1.3894,-1.3845,-1.387,-1.387,-1.3604,-1.3447,-1.3266,-1.2783,-1.2518,-1.2216,-1.1298,-1.096,-1.0767,-1.0394,-1.0442,-1.0635,-1.0743,-1.1128,0.0,-1.1682,-1.2252,-1.2735,0.0,0.0,0.0,0.0,0.0,0.0,0.0,0.0,0.0,0.0,0.0,0.0,0.0,0.0,0.0,0.0,0.0,-1.7266,-1.7553,-1.8094,-1.8695,-1.9345,-1.943,-1.943,-1.943,-1.943,-1.943,-1.943,-1.943,-1.943,-1.943,-1.943,-1.9457,-1.9466,-1.9693,-1.9987,-2.0334,-2.0575,-2.0842,-2.1109,-2.1109,-2.1109,-2.1362,-2.4008,-2.4994,-2.5301,-2.8002,-2.8975,-2.8975,-0.4491,-0.4491,-0.4511,-0.4593,-0.4701,-0.4857,-0.4968,-0.5338,-0.561,-0.5684,-0.6017,-0.6281,-0.6395,-0.6234,-0.6084,-0.5928,-0.5779,-0.563,-0.5521,-0.5264,-0.5074,-0.4894,-0.4701,-0.4566,-0.4491,-0.4491,-0.4491,-0.4491,-0.4491,-0.4491,-0.4491,-0.4566,-0.4607,-0.4614,-0.4891,-0.5311,-0.582,-0.6044,-0.7049,-0.858,-0.9671,0.0,-1.2665,-1.3564,-1.4075,-1.4328,-1.4461,-1.4509,-1.4461,-1.4208,-1.4026,-1.3833,-1.3435,-1.3121,-1.2783,-1.2107,-1.1721,-1.1357,-1.0827,-1.0816,-1.0888,-1.0719,-1.0984,0.0,0.0,-1.1802,-1.2155,0.0,0.0,0.0,0.0,0.0,0.0,0.0,0.0,0.0,0.0,0.0,0.0,0.0,0.0,0.0,0.0,0.0,-1.6863,-1.7524,-1.8272,-1.8814,-1.9132,-1.9292,-1.943,-1.943,-1.943,-1.943,-1.943,-1.943,-1.943,-1.943,-1.943,-1.943,-1.943,-1.9519,-1.9746,-2.004,-2.0321,-2.0628,-2.0909,-2.1042,-2.1109,-2.1362,-2.4008,-2.4994,-2.5301,-2.8002,-2.8975,-2.8975,-0.4491,-0.4491,-0.4539,-0.4667,-0.4816,-0.4955,-0.5157,-0.5576,-0.5888,-0.6003,-0.6335,-0.6573,-0.66,-0.6511,-0.6342,-0.6175,-0.6114,-0.6017,-0.5772,-0.5705,-0.5501,-0.5108,-0.4891,-0.4707,-0.458,-0.4518,-0.4491,-0.4491,-0.4491,-0.4491,-0.4491,-0.4491,-0.4573,-0.4701,-0.4877,-0.527,-0.582,-0.6197,-0.6866,-0.7848,-0.9579,-1.1399,-1.3135,-1.4088,-1.4411,-1.4392,-1.4702,-1.4898,-1.5077,-1.492,-1.4678,-1.4413,-1.4208,-1.3773,-1.329,-1.2952,-1.2481,-1.1962,-1.1479,-1.131,-1.1214,-1.1009,-1.1069,-1.1212,0.0,0.0,0.0,0.0,0.0,0.0,0.0,0.0,0.0,0.0,0.0,0.0,0.0,0.0,0.0,0.0,0.0,0.0,0.0,0.0,-1.6336,-1.7365,-1.8174,-1.8741,-1.8918,-1.9158,-1.9305,-1.943,-1.943,-1.943,-1.943,-1.943,-1.943,-1.943,-1.943,-1.943,-1.943,-1.943,-1.9533,-1.9813,-2.0107,-2.0401,-2.0695,-2.0989,-2.1109,-2.1362,-2.4008,-2.4994,-2.5301,-2.8002,-2.8975,-2.8975,-0.4491,-0.4491,-0.4539,-0.4667,-0.4816,-0.506,-0.5474,-0.58,-0.6155,-0.6687,-0.6802,-0.6883,-0.7004,-0.6896,-0.6802,-0.6788,-0.658,-0.645,-0.6416,-0.6125,-0.5895,-0.5711,-0.5272,-0.4982,-0.487,-0.4627,-0.4491,-0.4491,-0.4491,-0.4491,-0.4491,-0.4491,-0.4573,-0.4701,-0.4955,-0.5332,-0.5827,-0.63,-0.7743,-0.9848,-1.0675,-1.1112,0.0,-1.4059,-1.4271,-1.3225,-1.3514,-1.4225,-1.5137,0.0,-1.5234,-1.5004,-1.498,-1.4594,-1.4063,-1.3568,-1.3037,-1.2554,-1.2252,-1.2011,-1.1778,-1.1754,-1.1597,-1.1453,-1.1489,0.0,-1.1501,-1.1537,0.0,0.0,0.0,0.0,0.0,0.0,0.0,0.0,0.0,0.0,0.0,0.0,0.0,0.0,0.0,0.0,0.0,-1.6815,-1.7404,-1.8095,-1.8835,-1.8958,-1.9092,-1.9417,-1.943,-1.943,-1.943,-1.943,-1.943,-1.943,-1.943,-1.943,-1.943,-1.943,-1.9533,-1.9813,-2.0107,-2.0401,-2.0695,-2.0989,-2.1109,-2.1362,-2.4008,-2.4994,-2.5301,-2.8002,-2.8975,-2.8975,-0.4505,-0.4559,-0.4675,-0.4796,-0.502,-0.5298,-0.5657,-0.6112,-0.66,-0.7115,-0.7183,-0.7244,-0.7394,-0.7278,-0.7183,-0.7183,-0.6987,-0.6824,0.0,-0.6539,-0.6274,-0.5949,-0.5589,-0.5325,-0.5182,-0.4825,-0.4668,-0.4728,-0.458,-0.4491,-0.4491,-0.4491,-0.4621,-0.483,-0.5009,-0.54,-0.5962,-0.641,-0.7425,0.0,0.0,0.0,0.0,-1.3378,-1.419,-1.3954,-1.4137,-1.4982,-1.603,0.0,-1.5885,0.0,0.0,-1.5173,-1.4859,-1.4171,-1.3809,-1.3507,-1.294,-1.2656,-1.25,-1.2228,-1.2071,-1.191,-1.1754,-1.1718,-1.167,-1.1525,0.0,0.0,0.0,0.0,0.0,0.0,-1.1597,0.0,0.0,0.0,0.0,0.0,0.0,0.0,0.0,0.0,0.0,0.0,0.0,-1.7621,-1.813,-1.8637,-1.8985,-1.9105,-1.9279,-1.943,-1.943,-1.943,-1.943,-1.943,-1.943,-1.943,-1.943,-1.943,-1.9439,-1.9573,-2.004,-2.0307,-2.0454,-2.0922,-2.1109,-2.1362,-2.4008,-2.4994,-2.5301,-2.8002,-2.8975,-2.8975,-0.4627,-0.4675,-0.4748,-0.4914,-0.5189,-0.5535,-0.5922,-0.6458,-0.6953,-0.7371,-0.7441,-0.7536,-0.7645,-0.7556,-0.7495,-0.7495,-0.7353,-0.7159,0.0,-0.6987,-0.6749,-0.6256,-0.5989,-0.576,-0.5521,-0.504,-0.4863,-0.4948,-0.4674,-0.4573,-0.4614,-0.4614,-0.4707,-0.4901,-0.5164,-0.5548,-0.6027,-0.6552,-0.7236,-0.8085,-0.9387,-1.0049,-1.0457,-1.223,-1.365,-1.4632,-1.441,-1.5332,-1.6682,-1.6561,-1.6465,0.0,-1.603,-1.5789,-1.5487,-1.4908,-1.4533,-1.4171,-1.3604,-1.3338,-1.3133,-1.2747,-1.259,-1.2469,-1.2204,-1.2042,-1.1898,-1.1561,-1.1489,0.0,0.0,0.0,-1.12,-1.0984,0.0,-1.1068,0.0,0.0,0.0,0.0,0.0,0.0,0.0,0.0,0.0,0.0,0.0,0.0,-1.7582,-1.8277,-1.8758,-1.8861,-1.9132,-1.9292,-1.943,-1.943,-1.943,-1.943,-1.943,-1.943,-1.943,-1.943,-1.947,-1.9519,-2.0013,-2.0281,-2.0401,-2.0895,-2.1109,-2.1362,-2.4008,-2.4994,-2.5301,-2.8002,-2.8975,-2.8975,-0.4877,-0.4789,-0.4782,-0.5042,-0.5257,-0.5644,-0.6381,-0.6837,-0.7139,-0.7398,-0.7617,-0.7801,-0.7801,-0.7801,-0.7794,-0.7794,-0.7665,-0.7522,-0.7412,0.0,-0.7373,-0.6876,-0.6607,-0.624,-0.5793,-0.5312,-0.509,-0.509,-0.483,-0.4762,-0.4874,-0.4874,-0.4881,-0.4914,-0.5521,-0.5874,-0.6033,-0.6627,-0.7658,-0.8906,-0.9549,-1.0141,-1.0655,0.0,-1.234,-1.4632,-1.3497,0.0,0.0,-1.6984,-1.6899,0.0,0.0,0.0,0.0,0.0,0.0,0.0,0.0,0.0,0.0,-1.3483,0.0,0.0,-1.2747,-1.2481,-1.2155,-1.1597,-1.1489,-1.1333,-1.0803,-1.0743,-1.0466,-0.9709,-0.9997,0.0,0.0,0.0,0.0,0.0,0.0,0.0,0.0,0.0,0.0,0.0,0.0,0.0,-1.7569,-1.7903,-1.8275,-1.8905,-1.8931,-1.9078,-1.9417,-1.943,-1.943,-1.943,-1.943,-1.943,-1.943,-1.943,-1.9519,-1.98,-2.0107,-2.0401,-2.0681,-2.0989,-2.1109,-2.1362,-2.4008,-2.4994,-2.5301,-2.8002,-2.8975,-2.8975,-0.5015,-0.4988,-0.4982,-0.5083,-0.5467,-0.6057,-0.6803,-0.7129,-0.738,-0.7631,-0.7746,0.0,0.0,-0.8113,-0.8153,0.0,0.0,-0.7977,-0.7821,-0.7767,0.0,-0.7045,-0.6878,-0.6607,-0.6254,-0.5711,-0.5433,-0.5433,-0.5033,-0.487,-0.4887,-0.4887,-0.5026,-0.5255,-0.5528,-0.5962,-0.6498,-0.6856,-0.7597,0.0,0.0,-0.9562,-1.003,0.0,0.0,-1.3963,-1.4511,-1.5798,0.0,-1.7322,-1.7286,-1.7201,-1.7117,-1.6899,-1.6585,-1.6042,-1.5632,0.0,0.0,0.0,-1.4268,-1.4075,0.0,0.0,0.0,0.0,0.0,-1.2385,-1.2168,-1.189,-1.1321,-1.1212,-1.096,-1.0166,-1.0178,-1.0142,0.0,0.0,0.0,0.0,0.0,0.0,0.0,0.0,0.0,0.0,0.0,0.0,0.0,-1.7475,-1.8009,-1.8624,-1.8824,-1.9065,-1.9417,-1.943,-1.943,-1.943,-1.943,-1.943,-1.943,-1.943,-1.9533,-1.9813,-2.0107,-2.0401,-2.0695,-2.0989,-2.1109,-2.1362,-2.4008,-2.4994,-2.5301,-2.8002,-2.8975,-2.8975,-0.5203,-0.5209,-0.523,-0.5284,-0.5745,-0.6342,-0.6991,-0.7272,0.0,0.0,-0.7984,0.0,-0.8323,0.0,-0.8425,0.0,-0.8374,-0.8248,-0.8201,-0.8058,0.0,-0.7556,-0.7353,-0.7048,0.0,-0.6152,-0.5854,-0.5745,-0.5298,-0.5074,-0.5074,-0.5074,-0.5182,-0.5405,-0.5726,-0.6152,-0.6722,-0.7075,-0.7563,0.0,0.0,-0.9198,0.0,0.0,-1.2758,-1.3004,0.0,-1.5747,-1.6879,-1.7361,-1.7479,-1.7455,-1.7286,-1.7165,-1.6996,-1.6465,-1.6175,-1.5934,-1.5499,-1.5197,0.0,-1.4654,-1.4389,0.0,-1.3857,0.0,-1.3302,0.0,0.0,0.0,-1.173,-1.1549,-1.126,-1.0551,-1.0358,-1.0118,0.0,-0.966,0.0,0.0,0.0,0.0,0.0,0.0,0.0,0.0,0.0,0.0,0.0,0.0,-1.7662,-1.8156,-1.8557,-1.8918,-1.9212,-1.9319,-1.943,-1.943,-1.943,-1.943,-1.943,-1.943,-1.9586,-1.996,-2.0147,-2.0454,-2.0842,-2.1029,-2.1109,-2.1362,-2.4008,-2.4994,-2.5301,-2.8002,-2.8975,-2.8975,-0.5399,-0.544,-0.5501,-0.5616,-0.604,0.0,0.0,0.0,-0.7556,0.0,-0.8296,-0.8486,-0.8492,-0.8628,-0.8615,-0.8402,-0.8374,-0.8429,-0.8506,-0.8377,0.0,0.0,-0.7977,-0.7543,-0.693,0.0,-0.6349,-0.6013,-0.5616,-0.5433,-0.5419,-0.5426,-0.5426,-0.5453,-0.604,-0.647,-0.6749,-0.7197,-0.757,-0.7929,-0.8615,-0.913,-0.9597,-1.1033,-1.1647,-1.1881,-1.3324,-1.4639,-1.5909,-1.7103,-1.7527,-1.7527,-1.7503,-1.7334,-1.7129,-1.7092,-1.673,-1.626,-1.6006,-1.5741,-1.5475,-1.5209,0.0,0.0,0.0,0.0,-1.3785,0.0,0.0,0.0,0.0,0.0,-1.1369,-1.0815,-1.0491,-1.013,0.0,0.0,0.0,0.0,0.0,0.0,0.0,0.0,0.0,0.0,0.0,0.0,0.0,0.0,-1.7261,-1.7569,-1.817,-1.8637,-1.8918,-1.9225,-1.943,-1.943,-1.943,-1.943,-1.943,-1.943,-1.9679,-2.0167,-2.0167,-2.0561,-2.1109,-2.1109,-2.1109,-2.1362,-2.4008,-2.5056,-2.5485,-2.8062,-2.8975,-2.8975,-0.5847,-0.6037,-0.6272,-0.639,-0.6607,-0.6919,0.0,0.0,0.0,0.0,-0.8296,-0.8526,-0.8642,-0.8784,-0.894,-0.9083,-0.9096,0.0,0.0,0.0,0.0,-0.8431,-0.8031,-0.7692,-0.7434,-0.7021,-0.6661,-0.6356,-0.6177,-0.5951,-0.5691,-0.5806,-0.5854,-0.5867,-0.6177,-0.6546,-0.7004,-0.7394,-0.797,-0.8629,-0.9103,-0.9381,0.0,0.0,-1.1095,-1.2314,-1.462,-1.6381,-1.7657,-1.7961,-1.8082,-1.8046,-1.7841,-1.7732,-1.7599,-1.7201,-1.6996,-1.6827,-1.6561,-1.6296,-1.603,-1.5765,-1.5487,-1.5234,0.0,0.0,0.0,0.0,0.0,0.0,0.0,0.0,0.0,0.0,0.0,0.0,0.0,0.0,0.0,-0.9348,0.0,0.0,0.0,0.0,0.0,0.0,0.0,0.0,0.0,0.0,0.0,-1.7569,-1.817,-1.8637,-1.8918,-1.9225,-1.943,-1.943,-1.943,-1.943,-1.943,-1.943,-1.9679,-2.0167,-2.0167,-2.0561,-2.1109,-2.1109,-2.1109,-2.1362,-2.4008,-2.6216,-2.8062,-2.8737,-2.8975,-2.8975,-0.6118,-0.6424,-0.6715,-0.6865,0.0,0.0,-0.7665,0.0,0.0,-0.8346,-0.8581,0.0,-0.8798,-0.9001,-0.9117,-0.9089,-0.915,0.0,-0.9309,0.0,0.0,-0.8682,-0.8438,-0.8113,-0.7699,-0.7441,0.0,-0.6675,0.0,-0.62,-0.5901,-0.5952,-0.6064,-0.6146,-0.643,-0.681,-0.7272,-0.7773,-0.8391,-0.9055,-0.9286,0.0,0.0,-0.9903,-1.0952,-1.2445,-1.3955,-1.5814,-1.7538,-1.8103,-1.83,-1.8263,-1.8106,-1.8058,-1.7974,-1.7551,-1.743,-1.7358,-1.6972,-1.6767,-1.6585,-1.6308,-1.6042,-1.5777,-1.5511,-1.5125,-1.4787,0.0,0.0,0.0,0.0,0.0,0.0,0.0,0.0,0.0,0.0,0.0,0.0,0.0,0.0,0.0,0.0,0.0,0.0,0.0,0.0,0.0,0.0,0.0,0.0,-1.7181,-1.8036,-1.8571,-1.8731,-1.9158,-1.943,-1.943,-1.943,-1.943,-1.943,-1.9492,-1.98,-2.0241,-2.0374,-2.0681,-2.1109,-2.1109,-2.1109,-2.1362,-2.4008,-2.6641,-2.8975,-2.8975,-2.8975,-2.8975,-0.6422,-0.6736,-0.7018,-0.7159,0.0,0.0,0.0,-0.8008,0.0,-0.8763,0.0,-0.8939,-0.8939,-0.9245,-0.9259,-0.8886,0.0,-0.9164,-0.9422,-0.9164,-0.8952,-0.8972,-0.8898,-0.8555,-0.797,-0.7902,-0.7597,0.0,-0.6756,-0.6458,-0.6107,-0.6107,-0.622,-0.6409,-0.6776,-0.7163,-0.761,-0.8228,-0.8784,-0.9282,-0.9334,-0.9571,-0.9869,-0.9957,-1.104,-1.2455,-1.258,-1.4315,-1.6677,-1.7766,-1.8273,-1.8396,-1.836,-1.8348,-1.8287,-1.801,-1.7925,-1.7817,-1.7334,-1.7189,-1.7129,-1.6827,-1.6585,-1.6344,-1.6054,-1.5789,-1.5523,-1.527,-1.4811,-1.4425,0.0,0.0,0.0,0.0,0.0,0.0,0.0,0.0,0.0,0.0,0.0,0.0,0.0,0.0,0.0,0.0,0.0,0.0,0.0,0.0,0.0,-1.67,-1.7822,0.0,-1.849,0.0,-1.939,-1.943,-1.943,-1.943,-1.943,-1.9666,-1.996,-2.0254,-2.0548,-2.0842,-2.1109,-2.1109,-2.1235,-2.1601,-2.3884,-2.6277,-2.8498,-2.8677,-2.8737,-2.8737,-0.7214,-0.7339,-0.7529,-0.7665,-0.778,-0.8011,-0.8479,-0.8629,-0.8676,-0.8581,-0.8994,-0.9306,-0.9306,-0.9462,-0.9585,-0.9625,-0.9652,0.0,0.0,0.0,0.0,-0.9483,-0.9015,-0.875,-0.8689,-0.8377,-0.8018,0.0,0.0,-0.7183,-0.6728,-0.6728,-0.6741,-0.6817,-0.697,-0.7543,-0.8303,-0.856,0.0,-0.9523,-0.9422,-0.9632,-0.9963,-1.0181,-1.1209,-1.2588,-1.2702,-1.4558,-1.6915,-1.7182,-1.8024,-1.8903,-1.8686,-1.8613,-1.8565,-1.83,-1.8215,-1.8143,-1.7829,-1.7732,-1.7624,-1.7141,-1.6984,-1.6887,-1.6622,-1.6344,-1.6066,-1.5813,-1.5511,-1.5089,-1.4425,0.0,0.0,0.0,0.0,0.0,0.0,0.0,0.0,0.0,0.0,0.0,0.0,0.0,0.0,0.0,0.0,0.0,0.0,0.0,0.0,0.0,-1.7569,0.0,0.0,0.0,0.0,-1.943,-1.943,-1.943,-1.943,-1.9666,-1.996,-2.0254,-2.0548,-2.0842,-2.1109,-2.1109,-2.1727,-2.2764,-2.3263,-2.4379,-2.5851,-2.6961,-2.7323,-2.7504,-0.7489,-0.7672,-0.7875,-0.8024,-0.8241,0.0,0.0,-0.8988,0.0,-0.9089,-0.9252,-0.9408,-0.949,-0.9632,-0.972,-0.9713,-0.9713,-0.9741,-0.9815,-0.9618,-0.9496,-0.949,-0.9286,0.0,-0.8885,-0.8648,-0.8384,-0.816,0.0,-0.7489,-0.7272,-0.7197,-0.7156,-0.7177,-0.7556,-0.8099,0.0,0.0,0.0,-0.9618,-0.9693,-0.9856,-1.0011,-1.0304,-1.0877,-1.1538,-1.1644,-1.307,-1.5024,-1.6527,-1.7958,-1.9048,-1.8927,-1.8891,-1.8831,-1.8577,-1.8493,-1.8432,-1.8167,-1.8094,-1.7998,-1.7599,-1.7491,-1.7394,-1.6996,-1.6803,-1.6622,-1.6368,-1.5982,-1.5499,-1.4835,-1.4401,0.0,0.0,0.0,0.0,0.0,0.0,-1.2211,0.0,0.0,0.0,0.0,0.0,0.0,0.0,0.0,0.0,0.0,0.0,0.0,0.0,0.0,0.0,0.0,0.0,0.0,-1.943,-1.943,-1.943,-1.9386,-1.9826,-2.0094,-2.0254,-2.0708,-2.0975,-2.1109,-2.1109,-2.1902,-2.3076,-2.3076,-2.3884,-2.5178,-2.652,-2.7021,-2.7203,-0.7828,-0.8024,-0.8241,-0.8425,-0.8723,0.0,-0.8743,-0.9171,-0.951,-0.951,-0.949,-0.9517,-0.9639,-0.9781,-0.9822,-0.9713,-0.9734,-0.9788,-0.9863,-0.9768,-0.9632,-0.9483,-0.9564,-0.9442,-0.9033,-0.8933,-0.8777,0.0,0.0,0.0,-0.7502,-0.7509,-0.755,0.0,0.0,0.0,0.0,0.0,-0.9503,-0.972,-0.9862,-0.9997,-1.0168,-1.0405,-1.0514,-1.0555,-1.0677,-1.1571,-1.3144,-1.5349,-1.7238,-1.8676,-1.8676,-1.888,-1.9036,-1.8831,-1.877,-1.871,-1.8444,-1.8384,-1.8312,-1.8034,-1.7962,-1.7841,-1.737,-1.7261,-1.7165,-1.6851,-1.6356,-1.5825,-1.5366,-1.5065,0.0,0.0,0.0,0.0,0.0,0.0,0.0,0.0,0.0,0.0,0.0,0.0,0.0,0.0,0.0,0.0,0.0,0.0,0.0,0.0,0.0,-1.7955,-1.8422,0.0,-1.9011,0.0,-1.943,-1.9457,-1.9479,-2.0,-2.0267,-2.0361,-2.0882,-2.1109,-2.1109,-2.1109,-2.1727,-2.264,-2.264,-2.3263,-2.4379,-2.5973,-2.6581,-2.684,-0.8581,-0.8628,-0.8737,0.0,0.0,0.0,-0.9449,-0.9327,-0.9255,-0.9255,-0.9537,-0.9788,-0.9802,-0.9876,-0.9963,-0.995,-1.0134,-1.0161,-0.9977,-0.9957,-0.9876,-0.9788,-0.9673,-0.9591,-0.9551,-0.9395,-0.9245,0.0,0.0,0.0,0.0,-0.7678,-0.8119,0.0,0.0,0.0,0.0,-0.9367,-0.9625,-0.9936,-0.989,-1.0086,-1.0453,-1.048,-1.0575,-1.0704,-1.0717,-1.1571,-1.2816,-1.3079,-1.4958,-1.7173,-1.7173,-1.8086,-1.9072,-1.9048,-1.9036,-1.8976,-1.8722,-1.865,-1.8589,-1.8324,-1.8251,-1.8179,-1.7865,-1.7805,-1.766,-1.7153,-1.6622,-1.6151,-1.5873,-1.5608,-1.5342,0.0,0.0,0.0,0.0,0.0,-1.3471,-1.3447,0.0,0.0,0.0,0.0,0.0,0.0,0.0,0.0,0.0,0.0,0.0,-1.6299,0.0,-1.7331,-1.8144,-1.8406,0.0,-1.943,-1.943,-1.9506,-1.9773,-2.0094,-2.0374,-2.0655,-2.0975,-2.1109,-2.1109,-2.1109,-2.1172,-2.1299,-2.1299,-2.1362,-2.179,-2.4255,-2.5178,-2.5546,0.0,0.0,0.0,0.0,0.0,0.0,0.0,-0.9517,-0.9551,-0.9551,-0.9707,-0.9856,-0.9883,-1.0093,-1.0188,-1.0188,-1.0243,-1.0256,-1.0188,-1.0188,-1.012,-0.9903,-0.9842,-0.9829,-0.9741,-0.9503,-0.9395,0.0,0.0,0.0,0.0,0.0,0.0,0.0,0.0,-0.932,-0.9523,-0.9612,-0.9802,-0.999,-1.0086,-1.0256,-1.05,-1.0595,-1.067,-1.0717,-1.0717,-1.1049,-1.1571,-1.1571,-1.3399,-1.5749,-1.5749,-1.6721,-1.7829,-1.7829,-1.8419,-1.9048,-1.8951,-1.8915,-1.8855,-1.8589,-1.8529,-1.8456,-1.8191,-1.8131,-1.8022,-1.7636,-1.7141,-1.6682,-1.6429,-1.6296,-1.6079,0.0,0.0,0.0,0.0,0.0,0.0,-1.4232,0.0,-1.3676,0.0,0.0,0.0,0.0,0.0,0.0,0.0,0.0,0.0,-1.6061,0.0,-1.7566,-1.8089,-1.8552,-1.8958,-1.943,-1.943,-1.9519,-1.9813,-2.0094,-2.0494,-2.0949,-2.1056,-2.1109,-2.1109,-2.1109,-2.1109,-2.1109,-2.1109,-2.1109,-2.1411,-2.407,-2.4994,-2.5362,-0.9259,0.0,-0.9334,0.0,-0.9598,-0.9652,-0.9585,-0.9754,-0.9903,-0.9951,-0.9992,-1.0046,-1.0107,-1.0249,-1.0344,-1.0344,-1.0385,-1.0392,-1.0344,-1.0344,-1.0276,-1.0127,-1.0114,0.0,-0.989,-0.9686,-0.9605,-0.9673,-0.9313,0.0,0.0,-0.8642,0.0,0.0,-0.9401,-0.9557,-0.9747,-0.9842,-0.9998,-1.0188,-1.0297,-1.0432,-1.0568,-1.0677,-1.0717,-1.0717,-1.0717,-1.0717,-1.0717,-1.0717,-1.2033,-1.3735,-1.4128,-1.5229,-1.6462,-1.6915,-1.77,-1.8547,-1.9008,-1.9072,-1.9024,-1.8843,-1.8794,-1.8734,-1.8469,-1.8408,-1.8312,-1.795,-1.7575,-1.7213,-1.6875,-1.6815,-1.667,-1.6199,0.0,0.0,0.0,-1.504,0.0,-1.4835,-1.4594,-1.4377,-1.4268,0.0,0.0,0.0,0.0,0.0,0.0,0.0,0.0,0.0,0.0,0.0,0.0,-1.8489,-1.8951,-1.943,-1.9452,-1.9639,-1.9947,-2.0321,-2.0722,-2.1109,-2.1109,-2.1109,-2.1109,-2.1109,-2.1109,-2.1109,-2.1109,-2.1109,-2.1411,-2.407,-2.4994,-2.5362,-0.9571,-0.9605,-0.9646,-0.9788,-0.9815,-0.9869,-0.9957,-0.9984,-1.01,-1.0256,-1.0399,-1.0432,-1.029,-1.0405,-1.0487,-1.0487,-1.0629,-1.0649,-1.05,-1.0487,-1.0426,0.0,0.0,-1.0209,-0.9984,-0.9977,-0.9909,-0.9822,0.0,0.0,-0.8327,-0.8119,-0.8555,-0.9605,-0.9605,-0.9768,-0.9984,-0.9984,-1.0215,-1.0487,-1.0487,-1.0582,-1.0717,-1.0717,-1.0717,-1.0717,-1.0717,-1.0717,-1.0717,-1.0717,-1.0717,-1.0982,-1.2355,-1.3801,-1.5229,-1.6592,-1.698,-1.7302,-1.874,-1.9072,-1.9072,-1.9072,-1.9072,-1.9,-1.8746,-1.8686,-1.8529,-1.7986,-1.7865,-1.7708,-1.7177,-1.7092,-1.6996,-1.673,0.0,0.0,0.0,-1.5427,0.0,-1.5101,-1.4871,-1.4811,-1.5065,0.0,0.0,0.0,0.0,0.0,0.0,0.0,0.0,-1.5851,-1.6187,0.0,-1.7588,-1.8138,-1.8709,-1.943,-1.9653,-1.9947,-2.0254,-2.0828,-2.1096,-2.1109,-2.1109,-2.1109,-2.1109,-2.1109,-2.1109,-2.1109,-2.1109,-2.1109,-2.1411,-2.407,-2.4994,-2.5362,-0.9741,-0.9754,-0.9802,-0.9889,-0.9916,-0.9963,-1.0181,-1.0209,-1.0256,-1.0405,-1.0466,-1.0514,-1.0575,-1.0622,-1.0649,0.0,-1.069,-1.0697,0.0,-1.0649,-1.0582,-1.0432,-1.0426,-1.0358,-1.0209,-1.0209,-1.0134,-0.9916,0.0,0.0,0.0,-0.9178,-0.934,-0.9754,-0.9802,-0.9903,-0.9997,-1.0161,-1.0317,-1.0493,-1.0493,-1.0582,-1.0717,-1.0717,-1.0717,-1.0717,-1.0717,-1.0717,-1.0717,-1.0717,-1.0717,-1.0784,-1.1247,-1.2355,-1.3538,-1.3988,-1.4838,-1.5879,-1.7302,-1.77,-1.7893,-1.888,-1.9072,-1.9048,-1.8976,-1.8807,-1.8638,-1.8456,-1.8287,-1.8046,-1.7696,-1.7624,-1.7479,-1.7044,-1.6827,0.0,0.0,0.0,-1.5644,-1.5644,-1.5246,-1.5016,0.0,-1.5028,0.0,0.0,0.0,0.0,0.0,0.0,0.0,0.0,-1.6579,0.0,-1.7585,-1.8365,-1.8848,-1.9068,-1.9535,-2.0054,-2.0548,-2.0935,-2.1109,-2.1109,-2.1109,-2.1109,-2.1109,-2.1109,-2.1109,-2.1109,-2.1109,-2.1109,-2.1411,-2.407,-2.4994,-2.5362,-0.9992,-0.9992,-1.0025,-1.012,-1.0134,-1.0188,-1.0337,-1.0358,-1.0412,-1.0561,-1.0575,-1.0616,-1.0711,-1.0717,0.0,-1.0717,-1.0717,-1.0717,-1.0717,-1.0717,-1.0677,-1.0582,-1.0575,-1.0507,-1.0365,0.0,0.0,-1.0134,-1.0134,-1.0086,-0.9992,-0.9903,-0.991,-0.9998,-1.0093,-1.0168,-1.0222,-1.0317,-1.0446,-1.0575,-1.0575,-1.0636,-1.0717,-1.0717,-1.0717,-1.0717,-1.0717,-1.0717,-1.0717,-1.0717,-1.0717,-1.0717,-1.0717,-1.1314,-1.2099,-1.2618,-1.3407,-1.4511,-1.6462,-1.698,-1.7367,-1.874,-1.9072,-1.9072,-1.9072,-1.8951,-1.8807,-1.871,-1.8553,-1.836,-1.8082,-1.795,-1.7768,-1.7443,-1.7213,-1.7032,-1.6875,0.0,-1.6199,0.0,0.0,0.0,0.0,-1.5608,0.0,0.0,0.0,0.0,0.0,0.0,0.0,-1.603,-1.6784,0.0,-1.7596,-1.8333,-1.8816,-1.9037,-1.9814,-2.0374,-2.0842,-2.1029,-2.1109,-2.1109,-2.1109,-2.1109,-2.1109,-2.1109,-2.1109,-2.1109,-2.1109,-2.1109,-2.1362,-2.3512,-2.4317,-2.4625,-1.0283,-1.0283,0.0,0.0,-1.0297,0.0,-1.0487,-1.0507,-1.0561,-1.0704,-1.0717,-1.0717,-1.0717,-1.0717,-1.0717,-1.0717,0.0,0.0,0.0,-1.0717,-1.0717,-1.0717,-1.0717,-1.0656,-1.0514,-1.0507,-1.0439,-1.0297,-1.0283,-1.0283,-1.0283,-1.0283,-1.0283,-1.0283,-1.029,-1.0371,-1.0493,-1.05,-1.0588,-1.0717,-1.0717,-1.0717,-1.0717,-1.0717,-1.0717,-1.0717,-1.0717,-1.0717,-1.0717,-1.0717,-1.0717,-1.0717,-1.0717,-1.0717,-1.0982,-1.2297,-1.2618,-1.3276,-1.5998,-1.6786,-1.7173,-1.8612,-1.9008,-1.9072,-1.9072,-1.9072,-1.9012,-1.8758,-1.871,-1.8638,-1.8372,-1.8106,-1.7925,-1.7901,-1.7479,-1.7153,-1.7153,0.0,-1.673,0.0,0.0,0.0,0.0,-1.6465,-1.6308,0.0,0.0,0.0,0.0,0.0,-1.6091,-1.6332,-1.6827,-1.7265,-1.7563,-1.8114,-1.8685,-1.9337,-2.0279,-2.0828,-2.1109,-2.1109,-2.1109,-2.1109,-2.1109,-2.1109,-2.1109,-2.1109,-2.1109,-2.1109,-2.1109,-2.1109,-2.1235,-2.2577,-2.3076,-2.3263,0.0,0.0,-1.0317,-1.0426,-1.0439,-1.0493,-1.0643,-1.0663,-1.0677,-1.0717,-1.0717,-1.0717,-1.0717,-1.0717,-1.0717,-1.0717,-1.0717,-1.0717,-1.0717,-1.0717,-1.0717,-1.0717,-1.0717,-1.0704,-1.067,-1.0663,-1.0595,-1.0439,-1.0331,-1.0283,-1.0283,-1.0283,-1.0283,-1.0283,-1.0392,-1.046,-1.05,-1.0616,-1.0683,-1.0717,-1.0717,-1.0717,-1.0717,-1.0717,-1.0717,-1.0717,-1.0717,-1.0717,-1.0717,-1.0717,-1.0717,-1.0717,-1.0717,-1.0717,-1.0784,-1.1115,-1.1181,-1.1571,-1.3333,-1.4577,-1.5749,-1.7173,-1.8291,-1.9072,-1.9072,-1.9072,-1.906,-1.9,-1.8988,-1.8903,-1.8638,-1.8541,-1.8432,-1.8227,-1.7913,-1.7684,-1.7684,-1.7286,0.0,0.0,-1.6827,-1.6706,-1.6706,-1.6634,-1.6598,0.0,0.0,0.0,0.0,-1.673,-1.6839,-1.6899,-1.702,-1.7247,-1.7499,-1.7923,-1.8623,-1.9724,-2.0385,-2.0828,-2.1109,-2.1109,-2.1109,-2.1109,-2.1109,-2.1109,-2.1109,-2.1109,-2.1109,-2.1109,-2.1109,-2.1109,-2.1235,-2.2577,-2.3076,-2.3263,-1.048,-1.048,-1.0507,-1.0582,-1.0595,-1.0622,-1.0711,-1.0717,-1.0717,-1.0717,-1.0717,-1.0717,-1.0717,-1.0717,-1.0717,-1.0717,-1.0717,-1.0717,-1.0717,-1.0717,-1.0717,-1.0717,-1.0717,-1.0717,-1.0717,-1.0717,-1.0677,-1.0595,-1.0521,-1.048,-1.048,-1.048,-1.048,-1.0487,-1.0561,-1.0595,-1.0602,-1.0683,-1.0717,-1.0717,-1.0717,-1.0717,-1.0717,-1.0717,-1.0717,-1.0717,-1.0717,-1.0717,-1.0717,-1.0717,-1.0717,-1.0717,-1.0717,-1.0717,-1.0717,-1.0717,-1.0717,-1.0982,-1.2421,-1.3341,-1.4446,-1.6462,-1.8086,-1.9072,-1.9072,-1.9072,-1.9072,-1.9072,-1.9072,-1.9036,-1.8891,-1.877,-1.8638,-1.8493,-1.8239,-1.8022,-1.7889,-1.7624,0.0,-1.7286,-1.7141,-1.7056,-1.7056,-1.6948,-1.6875,-1.6875,0.0,0.0,-1.6875,-1.7129,-1.7213,-1.7092,-1.7213,-1.7334,-1.7479,-1.8208,-1.9025,-1.9963,-2.0611,-2.0962,-2.1109,-2.1109,-2.1109,-2.1109,-2.1109,-2.1109,-2.1109,-2.1109,-2.1109,-2.1109,-2.1109,-2.1109,-2.1172,-2.1902,-2.2215,-2.2278,-1.0717,-1.0717,-1.0717,-1.0717,-1.0717,-1.0717,-1.0717,-1.0717,-1.0717,-1.0717,-1.0717,-1.0717,-1.0717,-1.0717,-1.0717,-1.0717,-1.0717,-1.0717,-1.0717,-1.0717,-1.0717,-1.0717,-1.0717,-1.0717,-1.0717,-1.0717,-1.0717,-1.0717,-1.0717,-1.0717,-1.0717,-1.0717,-1.0717,-1.0717,-1.0717,-1.0717,-1.0717,-1.0717,-1.0717,-1.0717,-1.0717,-1.0717,-1.0717,-1.0717,-1.0717,-1.0717,-1.0717,-1.0717,-1.0717,-1.0717,-1.0717,-1.0717,-1.0717,-1.0717,-1.0717,-1.0717,-1.0717,-1.0982,-1.2165,-1.2816,-1.3726,-1.6322,-1.8086,-1.9072,-1.9072,-1.9072,-1.9072,-1.9072,-1.9072,-1.9072,-1.9072,-1.8891,-1.8746,-1.8746,-1.8529,-1.8263,-1.8034,0.0,-1.7853,-1.7636,-1.7563,-1.7539,-1.7539,-1.7298,-1.7153,-1.7153,-1.7153,-1.7153,0.0,-1.7394,-1.7443,-1.7213,-1.7418,-1.7563,-1.7612,-1.8749,-1.963,-2.0123,-2.0787,-2.1109,-2.1109,-2.1109,-2.1109,-2.1109,-2.1109,-2.1109,-2.1109,-2.1109,-2.1109,-2.1109,-2.1109,-2.1109,-2.1109,-2.1109,-2.1109,-2.1109,-1.0717,-1.0717,-1.0717,-1.0717,-1.0717,-1.0717,-1.0717,-1.0717,-1.0717,-1.0717,-1.0717,-1.0717,-1.0717,-1.0717,-1.0717,-1.0717,-1.0717,-1.0717,-1.0717,-1.0717,-1.0717,-1.0717,-1.0717,-1.0717,-1.0717,-1.0717,-1.0717,-1.0717,-1.0717,-1.0717,-1.0717,-1.0717,-1.0717,-1.0717,-1.0717,-1.0717,-1.0717,-1.0717,-1.0717,-1.0717,-1.0717,-1.0717,-1.0717,-1.0717,-1.0717,-1.0717,-1.0717,-1.0717,-1.0717,-1.0717,-1.0717,-1.0717,-1.0717,-1.0717,-1.0717,-1.0717,-1.0717,-1.0717,-1.0982,-1.275,-1.4968,-1.6592,-1.8086,-1.9072,-1.9072,-1.9072,-1.9072,-1.9072,-1.9072,-1.9072,-1.9072,-1.9048,-1.9012,-1.9012,-1.8794,-1.8613,-1.8565,0.0,-1.8215,-1.8179,-1.7962,-1.7817,-1.7817,-1.7575,-1.7418,-1.7418,-1.7418,-1.7418,-1.7418,-1.7672,-1.7793,-1.7756,-1.7793,-1.7925,-1.8167,-1.9137,-1.9685,-1.9799,-2.0648,-2.1109,-2.1109,-2.1109,-2.1109,-2.1109,-2.1109,-2.1109,-2.1109,-2.1109,-2.1109,-2.1109,-2.1109,-2.1109,-2.1109,-2.1109,-2.1109,-2.1109,-1.0717,-1.0717,-1.0717,-1.0717,-1.0717,-1.0717,-1.0717,-1.0717,-1.0717,-1.0717,-1.0717,-1.0717,-1.0717,-1.0717,-1.0751,-1.0766,-1.0846,-1.0873,-1.0955,-1.0806,-1.0717,-1.0717,-1.0717,-1.0717,-1.0717,-1.0717,-1.0717,-1.0717,-1.0717,-1.0717,-1.0717,-1.0717,-1.0717,-1.0717,-1.0717,-1.0717,-1.0717,-1.0717,-1.0717,-1.0717,-1.0717,-1.0717,-1.0717,-1.0717,-1.0717,-1.0717,-1.0717,-1.0717,-1.0717,-1.0717,-1.0717,-1.0717,-1.0717,-1.0717,-1.0717,-1.0717,-1.0717,-1.0717,-1.0717,-1.2223,-1.4119,-1.5489,-1.6915,-1.815,-1.8944,-1.9072,-1.9072,-1.9072,-1.9072,-1.9072,-1.9072,-1.9072,-1.9072,-1.9072,-1.8976,0.0,0.0,-1.8577,-1.8456,-1.8312,-1.8179,-1.8094,-1.8094,-1.7986,-1.7925,-1.7925,-1.7925,-1.7925,-1.7925,-1.8034,-1.8094,-1.8094,-1.8094,-1.8227,-1.8505,-1.9299,-1.975,-1.9903,-2.0727,-2.1109,-2.1109,-2.1109,-2.1109,-2.1109,-2.1109,-2.1109,-2.1109,-2.1109,-2.1109,-2.1109,-2.1109,-2.1109,-2.1109,-2.1109,-2.1109,-2.1109,-1.0717,-1.0717,-1.0717,-1.0717,-1.0717,-1.0717,-1.0717,-1.0717,-1.0717,-1.0717,-1.0751,-1.0772,-1.0772,-1.0806,-1.0873,-1.0989,-1.0995,-1.1043,-1.1158,-1.0948,-1.0826,-1.0826,-1.0826,-1.0826,-1.0826,-1.0826,-1.0806,-1.0772,-1.0772,-1.0758,-1.0717,-1.0717,-1.0717,-1.0717,-1.0717,-1.0717,-1.0717,-1.0717,-1.0717,-1.0717,-1.0717,-1.0717,-1.0717,-1.0717,-1.0717,-1.0717,-1.0717,-1.0717,-1.0717,-1.0717,-1.0717,-1.0717,-1.0717,-1.0717,-1.0717,-1.0717,-1.0717,-1.0717,-1.0717,-1.1967,-1.3538,-1.4651,-1.6203,-1.7765,-1.888,-1.9072,-1.9072,-1.9072,-1.9072,-1.9072,-1.9072,-1.9072,-1.9072,-1.9072,0.0,-1.9,0.0,-1.877,-1.8698,-1.8505,-1.842,-1.8384,-1.8384,-1.8336,-1.83,-1.83,-1.83,-1.83,-1.83,-1.8348,-1.8408,-1.8469,-1.842,-1.8567,-1.8896,-1.9525,-1.9877,-2.0106,-2.0792,-2.1046,-2.0982,-2.1046,-2.1109,-2.1109,-2.1109,-2.1109,-2.1109,-2.1109,-2.1109,-2.1109,-2.1109,-2.1109,-2.1109,-2.1109,-2.1109,-2.1109,-1.0717,-1.0717,-1.0717,-1.0717,-1.0717,-1.0717,-1.0717,-1.0717,-1.0717,-1.0717,-1.0846,-1.086,-1.086,-1.105,-1.12,-1.1145,-1.1145,-1.1151,-1.1234,-1.1214,-1.1131,-1.1131,-1.1131,-1.1131,-1.1131,-1.1131,-1.1063,-1.086,-1.086,-1.0793,-1.0717,-1.0717,-1.0717,-1.0717,-1.0717,-1.0717,-1.0717,-1.0717,-1.0717,-1.0717,-1.0717,-1.0717,-1.0717,-1.0717,-1.0717,-1.0717,-1.0717,-1.0717,-1.0717,-1.0717,-1.0717,-1.0717,-1.0717,-1.0717,-1.0717,-1.0717,-1.0717,-1.0717,-1.0717,-1.2684,-1.4782,-1.4847,-1.6926,-1.8944,-1.9072,-1.9072,-1.9072,-1.9072,-1.9072,-1.9072,-1.9072,-1.9072,-1.9072,-1.9072,0.0,0.0,-1.9048,-1.9048,-1.9036,-1.9024,-1.8807,-1.865,-1.865,-1.8432,-1.83,-1.83,-1.83,-1.83,-1.83,-1.8529,-1.877,-1.9012,-1.8782,-1.8971,-1.9546,-1.9877,-2.0081,-2.0106,-2.0792,-2.0919,-2.0666,-2.0982,-2.1109,-2.1109,-2.1109,-2.1109,-2.1109,-2.1109,-2.1109,-2.1109,-2.1109,-2.1109,-2.1109,-2.1109,-2.1109,-2.1109,-1.0717,-1.0717,-1.0717,-1.0717,-1.0717,-1.0717,-1.0717,-1.0799,-1.0793,-1.0793,-1.0989,-1.1084,-1.1084,-1.1131,-1.1199,-1.1294,-1.1307,-1.1348,-1.1443,-1.1443,-1.1362,-1.1241,-1.1234,-1.1234,-1.1234,-1.1234,-1.1138,-1.1084,-1.1084,-1.105,-1.0995,-1.0995,-1.0995,-1.0989,-1.09,-1.0793,-1.0786,-1.0758,-1.0717,-1.0717,-1.0717,-1.0717,-1.0717,-1.0717,-1.0717,-1.0717,-1.0717,-1.0717,-1.0717,-1.0717,-1.0717,-1.0717,-1.0717,-1.0717,-1.0717,-1.0717,-1.0717,-1.0717,-1.0717,-1.2099,-1.3801,-1.4716,-1.6333,-1.8022,-1.888,-1.9072,-1.9072,-1.9072,-1.9072,-1.9072,-1.9072,-1.9072,-1.9072,-1.9072,0.0,-1.9072,-1.9072,-1.9072,-1.9072,-1.9072,-1.8988,-1.8927,-1.8927,-1.8843,-1.8782,-1.8782,-1.8782,-1.8782,-1.8782,-1.8879,-1.8976,-1.9072,-1.8976,-1.9039,-1.9264,-1.9647,-1.9775,-1.9775,-2.0475,-2.0729,-2.0615,-2.0919,-2.1109,-2.1109,-2.1109,-2.1109,-2.1109,-2.1109,-2.1109,-2.1109,-2.1109,-2.1109,-2.1109,-2.1109,-2.1109,-2.1109,-1.0717,-1.0717,-1.0738,-1.0785,-1.0792,-1.0806,-1.0853,-1.0948,-1.1016,-1.1016,-1.1145,-1.1233,-1.1233,-1.1274,-1.1348,-1.1457,-1.1463,-1.1504,-1.1613,-1.1619,-1.1525,-1.1314,-1.1307,-1.1307,-1.1307,-1.1307,-1.128,-1.1233,-1.1233,-1.1212,-1.1234,-1.1234,-1.1234,-1.1158,-1.1056,-1.0989,-1.0873,-1.0766,-1.0765,-1.0717,-1.0717,-1.0717,-1.0717,-1.0717,-1.0717,-1.0717,-1.0717,-1.0717,-1.0717,-1.0717,-1.0717,-1.0717,-1.0717,-1.0717,-1.0717,-1.0717,-1.0717,-1.0717,-1.0717,-1.1703,-1.3144,-1.4586,-1.6268,-1.7893,-1.888,-1.9072,-1.9072,-1.9072,-1.9072,-1.9072,-1.9072,-1.9072,-1.9072,-1.9072,-1.9072,-1.9072,-1.9072,-1.9072,-1.9072,-1.9072,-1.9072,-1.9072,-1.9072,-1.9072,-1.9072,-1.9072,-1.9072,-1.9072,-1.9072,-1.9072,-1.9072,-1.9072,-1.9072,-1.9072,-1.9072,-1.952,-1.9711,-1.9647,-2.0412,-2.0666,-2.0488,-2.0919,-2.1109,-2.1109,-2.1109,-2.1109,-2.1109,-2.1109,-2.1109,-2.1109,-2.1109,-2.1109,-2.1109,-2.1109,-2.1109,-2.1109,-1.0724,-1.0724,-1.0772,-1.0853,-1.088,-1.0995,-1.1138,-1.1234,-1.1234,-1.1234,-1.1301,-1.1396,-1.1396,-1.1531,-1.1619,-1.1619,-1.1619,-1.1619,-1.1619,-1.1619,-1.1619,-1.1619,-1.1619,-1.1619,-1.1619,-1.1619,-1.1545,-1.1396,-1.1396,-1.1314,-1.1165,-1.1165,-1.1165,-1.1165,-1.1234,-1.1084,-1.088,-1.088,-1.0793,-1.0717,-1.0717,-1.0717,-1.0717,-1.0717,-1.0717,-1.0717,-1.0717,-1.0717,-1.0717,-1.0717,-1.0717,-1.0717,-1.0717,-1.0717,-1.0717,-1.0717,-1.0717,-1.0717,-1.0717,-1.1703,-1.3144,-1.4586,-1.699,-1.9072,-1.9072,-1.9072,-1.9072,-1.9072,-1.9072,-1.9072,-1.9072,-1.9072,-1.9072,-1.9072,-1.9072,-1.9072,-1.9072,-1.9072,-1.9072,-1.9072,-1.9072,-1.9072,-1.9072,-1.9072,-1.9072,-1.9072,-1.9072,-1.9072,-1.9072,-1.9072,-1.9072,-1.9072,-1.9072,-1.9072,-1.9072,-1.9788,-1.9903,-1.9647,-2.0602,-2.0729,-2.0106,-2.0792,-2.1109,-2.1109,-2.1109,-2.1109,-2.1109,-2.1109,-2.1109,-2.1109,-2.1109,-2.1109,-2.1109,-2.1109,-2.1109,-2.1109,-1.1029,-1.1029,-1.1043,-1.109,-1.1097,-1.1111,-1.1158,-1.1253,-1.1321,-1.1321,-1.1457,-1.1552,-1.1552,-1.1592,-1.1619,-1.1619,-1.1619,-1.1619,-1.1619,-1.1619,-1.1619,-1.1619,-1.1619,-1.1619,-1.1619,-1.1619,-1.1599,-1.1552,-1.1552,-1.1531,-1.1484,-1.1484,-1.1484,-1.1477,-1.1369,-1.124,-1.109,-1.0989,-1.0793,-1.0717,-1.0717,-1.0717,-1.0717,-1.0717,-1.0717,-1.0717,-1.0717,-1.0717,-1.0717,-1.0717,-1.0717,-1.0717,-1.0717,-1.0717,-1.0717,-1.0717,-1.0717,-1.0717,-1.0717,-1.1703,-1.3144,-1.4586,-1.6268,-1.7893,-1.888,-1.9072,-1.9072,-1.9072,-1.9072,-1.9072,-1.9072,-1.9072,-1.9072,-1.9072,-1.9072,-1.9072,-1.9072,-1.9072,-1.9072,-1.9072,-1.9072,-1.9072,-1.9072,-1.9072,-1.9072,-1.9072,-1.9072,-1.9072,-1.9072,-1.9072,-1.9072,-1.9072,-1.9072,-1.9072,-1.9072,-1.952,-1.9711,-1.9647,-2.0157,-2.0425,-2.0488,-2.0679,-2.0856,-2.1109,-2.1109,-2.1109,-2.1109,-2.1109,-2.1109,-2.1109,-2.1109,-2.1109,-2.1109,-2.1109,-2.1109,-2.1109,-1.1234,-1.1234,-1.1255,-1.124,-1.1253,-1.1274,-1.1335,-1.1423,-1.1484,-1.1484,-1.1558,-1.1619,-1.1619,-1.1619,-1.1619,-1.1619,-1.1619,-1.1619,-1.1619,-1.1619,-1.1619,-1.1619,-1.1619,-1.1619,-1.1619,-1.1619,-1.1619,-1.1619,-1.1619,-1.1619,-1.1619,-1.1619,-1.1619,-1.1613,-1.1525,-1.1362,-1.1158,-1.107,-1.0914,-1.0717,-1.0717,-1.0717,-1.0717,-1.0717,-1.0717,-1.0717,-1.0717,-1.0717,-1.0717,-1.0717,-1.0717,-1.0717,-1.0717,-1.0717,-1.0717,-1.0717,-1.0717,-1.0717,-1.0717,-1.1306,-1.2421,-1.439,-1.5944,-1.7367,-1.8752,-1.9072,-1.9072,-1.9072,-1.9072,-1.9072,-1.9072,-1.9072,-1.9072,-1.9072,-1.9072,-1.9072,-1.9072,-1.9072,-1.9072,-1.9072,-1.9072,-1.9072,-1.9072,-1.9072,-1.9072,-1.9072,-1.9072,-1.9072,-1.9072,-1.9072,-1.9072,-1.9072,-1.9072,-1.9072,-1.9072,-1.9456,-1.9571,-1.9571,-1.9915,-2.0234,-2.0425,-2.0539,-2.0729,-2.0919,-2.1046,-2.1109,-2.1109,-2.1109,-2.1109,-2.1109,-2.1109,-2.1109,-2.1109,-2.1109,-2.1109,-2.1109,-1.1275,-1.1275,-1.1246,-1.1389,-1.1409,-1.1457,-1.1599,-1.1619,-1.1619,-1.1619,-1.1619,-1.1619,-1.1619,-1.1619,-1.1619,-1.1619,-1.1619,-1.1619,-1.1619,-1.1619,-1.1619,-1.1619,-1.1619,-1.1619,-1.1619,-1.1619,-1.1619,-1.1619,-1.1619,-1.1619,-1.1619,-1.1619,-1.1619,-1.1619,-1.1619,-1.145,-1.1234,-1.1234,-1.0989,-1.0717,-1.0717,-1.0717,-1.0717,-1.0717,-1.0717,-1.0717,-1.0717,-1.0717,-1.0717,-1.0717,-1.0717,-1.0717,-1.0717,-1.0717,-1.0717,-1.0717,-1.0717,-1.0717,-1.0717,-1.0717,-1.1372,-1.4193,-1.5879,-1.7238,-1.874,-1.9072,-1.9072,-1.9072,-1.9072,-1.9072,-1.9072,-1.9072,-1.9072,-1.9072,-1.9072,-1.9072,-1.9072,-1.9072,-1.9072,-1.9072,-1.9072,-1.9072,-1.9072,-1.9072,-1.9072,-1.9072,-1.9072,-1.9072,-1.9072,-1.9072,-1.9072,-1.9072,-1.9072,-1.9072,-1.9072,-1.9392,-1.9571,-1.9571,-1.9915,-2.0106,-2.0106,-2.0425,-2.0602,-2.0602,-2.0919,-2.1109,-2.1109,-2.1109,-2.1109,-2.1109,-2.1109,-2.1109,-2.1109,-2.1109,-2.1109,-2.1109,-1.1518,-1.1518,-1.1531,-1.1565,-1.1572,-1.1579,-1.1613,-1.1619,-1.1619,-1.1619,-1.1619,-1.1619,-1.1619,-1.1619,-1.1619,-1.1619,-1.1619,-1.1619,-1.1619,-1.1619,-1.1619,-1.1619,-1.1619,-1.1619,-1.1619,-1.1619,-1.1619,-1.1619,-1.1619,-1.1619,-1.1619,-1.1619,-1.1619,-1.1619,-1.1619,-1.145,-1.1234,-1.1234,-1.0989,-1.0717,-1.0717,-1.0717,-1.0717,-1.0717,-1.0717,-1.0717,-1.0717,-1.0717,-1.0717,-1.0717,-1.0717,-1.0717,-1.0717,-1.0717,-1.0717,-1.0717,-1.0717,-1.0717,-1.0717,-1.0717,-1.1372,-1.4193,-1.5098,-1.6009,-1.8547,-1.9072,-1.9072,-1.9072,-1.9072,-1.9072,-1.9072,-1.9072,-1.9072,-1.9072,-1.9072,-1.9072,-1.9072,-1.9072,-1.9072,-1.9072,-1.9072,-1.9072,-1.9072,-1.9072,-1.9072,-1.9072,-1.9072,-1.9072,-1.9072,-1.9072,-1.9072,-1.9072,-1.9072,-1.9072,-1.9072,-1.92,-1.9328,-1.9571,-1.9915,-2.0106,-2.0106,-2.0425,-2.0602,-2.0602,-2.0919,-2.1109,-2.1109,-2.1109,-2.1109,-2.1109,-2.1109,-2.1109,-2.1109,-2.1109,-2.1109,-2.1109,-1.1619,-1.1619,-1.1619,-1.1619,-1.1619,-1.1619,-1.1619,-1.1619,-1.1619,-1.1619,-1.1619,-1.1619,-1.1619,-1.1619,-1.1619,-1.1619,-1.1619,-1.1619,-1.1619,-1.1619,-1.1619,-1.1619,-1.1619,-1.1619,-1.1619,-1.1619,-1.1619,-1.1619,-1.1619,-1.1619,-1.1619,-1.1619,-1.1619,-1.1619,-1.1619,-1.145,-1.1234,-1.1234,-1.0989,-1.0717,-1.0717,-1.0717,-1.0717,-1.0717,-1.0717,-1.0717,-1.0717,-1.0717,-1.0717,-1.0717,-1.0717,-1.0717,-1.0717,-1.0717,-1.0717,-1.0717,-1.0717,-1.0717,-1.0717,-1.0717,-1.1181,-1.3341,-1.439,-1.5629,-1.8483,-1.9072,-1.9072,-1.9072,-1.9072,-1.9072,-1.9072,-1.9072,-1.9072,-1.9072,-1.9072,-1.9072,-1.9072,-1.9072,-1.9072,-1.9072,-1.9072,-1.9072,-1.9072,-1.9072,-1.9072,-1.9072,-1.9072,-1.9072,-1.9072,-1.9072,-1.9072,-1.9072,-1.9072,-1.9072,-1.9072,-1.9072,-1.92,-1.9392,-1.952,-1.9724,-1.9839,-2.003,-2.0221,-2.0361,-2.0729,-2.0919,-2.1109,-2.1109,-2.1109,-2.1109,-2.1109,-2.1109,-2.1109,-2.1109,-2.1109,-2.1109,-1.1619,-1.1619,-1.1619,-1.1619,-1.1619,-1.1619,-1.1619,-1.1619,-1.1619,-1.1619,-1.1619,-1.1619,-1.1619,-1.1619,-1.1619,-1.1619,-1.1619,-1.1619,-1.1619,-1.1619,-1.1619,-1.1619,-1.1619,-1.1619,-1.1619,-1.1619,-1.1619,-1.1619,-1.1619,-1.1619,-1.1619,-1.1619,-1.1619,-1.1619,-1.1619,-1.145,-1.1234,-1.1234,-1.0989,-1.0717,-1.0717,-1.0717,-1.0717,-1.0717,-1.0717,-1.0717,-1.0717,-1.0717,-1.0717,-1.0717,-1.0717,-1.0717,-1.0717,-1.0717,-1.0717,-1.0717,-1.0717,-1.0717,-1.0717,-1.0717,-1.1115,-1.275,-1.4063,-1.5629,-1.8483,-1.9072,-1.9072,-1.9072,-1.9072,-1.9072,-1.9072,-1.9072,-1.9072,-1.9072,-1.9072,-1.9072,-1.9072,-1.9072,-1.9072,-1.9072,-1.9072,-1.9072,-1.9072,-1.9072,-1.9072,-1.9072,-1.9072,-1.9072,-1.9072,-1.9072,-1.9072,-1.9072,-1.9072,-1.9072,-1.9072,-1.9072,-1.9072,-1.9072,-1.9072,-1.9264,-1.9507,-1.9647,-1.9839,-2.0043,-2.0412,-2.0729,-2.1046,-2.1109,-2.1109,-2.1109,-2.1109,-2.1109,-2.1109,-2.1109,-2.1109,-2.1109,-1.1619,-1.1619,-1.1619,-1.1619,-1.1619,-1.1619,-1.1619,-1.1619,-1.1619,-1.1619,-1.1619,-1.1619,-1.1619,-1.1619,-1.1619,-1.1619,-1.1619,-1.1619,-1.1619,-1.1619,-1.1619,-1.1619,-1.1619,-1.1619,-1.1619,-1.1619,-1.1619,-1.1619,-1.1619,-1.1619,-1.1619,-1.1619,-1.1619,-1.1619,-1.1619,-1.145,-1.1234,-1.1234,-1.0989,-1.0717,-1.0717,-1.0717,-1.0717,-1.0717,-1.0717,-1.0717,-1.0717,-1.0717,-1.0717,-1.0717,-1.0717,-1.0717,-1.0717,-1.0717,-1.0717,-1.0717,-1.0717,-1.0717,-1.0717,-1.0717,-1.1306,-1.3932,-1.4782,-1.5629,-1.8483,-1.9072,-1.9072,-1.9072,-1.9072,-1.9072,-1.9072,-1.9072,-1.9072,-1.9072,-1.9072,-1.9072,-1.9072,-1.9072,-1.9072,-1.9072,-1.9072,-1.9072,-1.9072,-1.9072,-1.9072,-1.9072,-1.9072,-1.9072,-1.9072,-1.9072,-1.9072,-1.9072,-1.9072,-1.9072,-1.9072,-1.9072,-1.9072,-1.9072,-1.9072,-1.9136,-1.92,-1.9788,-1.9903,-1.9711,-2.0348,-2.0615,-2.0666,-2.0982,-2.1109,-2.1109,-2.1109,-2.1109,-2.1109,-2.1109,-2.1109,-2.1109,-1.1619,-1.1619,-1.1619,-1.1619,-1.1619,-1.1619,-1.1619,-1.1619,-1.1619,-1.1619,-1.1619,-1.1619,-1.1619,-1.1619,-1.1619,-1.1619,-1.1619,-1.1619,-1.1619,-1.1619,-1.1619,-1.1619,-1.1619,-1.1619,-1.1619,-1.1619,-1.1619,-1.1619,-1.1619,-1.1619,-1.1619,-1.1619,-1.1619,-1.1619,-1.1619,-1.145,-1.1234,-1.1234,-1.0989,-1.0717,-1.0717,-1.0717,-1.0717,-1.0717,-1.0717,-1.0717,-1.0717,-1.0717,-1.0717,-1.0717,-1.0717,-1.0717,-1.0717,-1.0717,-1.0717,-1.0717,-1.0717,-1.0717,-1.0717,-1.0717,-1.0982,-1.2223,-1.3735,-1.5238,-1.6473,-1.7969,-1.9072,-1.9072,-1.9072,-1.9072,-1.9072,-1.9072,-1.9072,-1.9072,-1.9072,-1.9072,-1.9072,-1.9072,-1.9072,-1.9072,-1.9072,-1.9072,-1.9072,-1.9072,-1.9072,-1.9072,-1.9072,-1.9072,-1.9072,-1.9072,-1.9072,-1.9072,-1.9072,-1.9072,-1.9072,-1.9072,-1.9072,-1.9072,-1.9072,-1.9072,-1.9136,-1.9404,-1.9584,-1.9647,-1.9903,-2.0157,-2.0361,-2.0666,-2.0792,-2.0856,-2.1046,-2.1109,-2.1109,-2.1109,-2.1109,-2.1109]}]]